Darstellungsparameter: Aktuell verwendete Einstellungen:
Skalierung der Graphiken ... ?
xyx+y,   Skalierungsfaktor:      Skalierung: Modus: x, Faktor: 1
Darstellungszeitraum ... ?
Vom - - bis: - -   Zeitraum: 16.11.2019 - 14.12.2019
Min/Max/Avg-Anzeige ... ?
Zeige MMA aktuell
Zeige MMA Monat
Zeige MMA alles
Zeige --A aktuell
Zeige --A Monat
Zeige --A alles
Keine MMA-Anzeige
MMA:
Average (ber die Originaldaten)
MMA-Basis: 16.11.2019 - 14.12.2019
Quicknavigation für Darstellung... ?
Tage:      1T, 2T, 3T, 5T -1T -2T -3T -5T +1T +2T +3T +5T
Wochen: 1W, 2W, 3W -1W -2W -3W +1W +2W +3W
Monate: 1M, 3M, 6M -1M -3M -6M +1M +3M +6M
Jahre:    1J, 3J, 5J, 10J -1J -3J -5J -10J +1J +3J +5J +10J
Nutze für die Darstellung ... ?
Originaldaten oder Mittelwerte auf ...
Stundenbasis Tagesbasis Wochenbasis
Monatsbasis Jahresbasis      Datenbasis: Original-Daten
Darstellen als:
Statistik (Auto) Statistik J:M      Darstellung:
Zur Graphik,    zurück zur Übersicht aller Sensoren.
 
Tabellarische Datenbersicht: ?
 
Sensor: Nr:Datum:Temp:Feuchte:
Aussen-T/F 1 16-11-2019 00:09:17 2.3 C 40 %
2 16-11-2019 00:19:17 2.3 C 40 %
3 16-11-2019 00:29:17 2.3 C 40 %
4 16-11-2019 00:39:17 2.3 C 40 %
5 16-11-2019 00:49:17 2.4 C 40 %
6 16-11-2019 00:59:17 2.3 C 40 %
7 16-11-2019 01:09:17 2.3 C 40 %
8 16-11-2019 01:19:17 2.2 C 40 %
9 16-11-2019 01:29:17 2.2 C 40 %
10 16-11-2019 01:39:17 2.2 C 40 %
11 16-11-2019 01:49:17 2.3 C 40 %
12 16-11-2019 01:59:17 2.3 C 40 %
13 16-11-2019 02:09:17 2.3 C 40 %
14 16-11-2019 02:19:17 2.3 C 40 %
15 16-11-2019 02:29:17 2.2 C 40 %
16 16-11-2019 02:39:17 2.1 C 39 %
17 16-11-2019 02:49:17 2.1 C 40 %
18 16-11-2019 02:59:17 2 C 40 %
19 16-11-2019 03:09:17 2 C 40 %
20 16-11-2019 03:19:17 1.9 C 41 %
21 16-11-2019 03:29:17 1.5 C 40 %
22 16-11-2019 03:39:18 1.3 C 40 %
23 16-11-2019 03:49:17 1.3 C 41 %
24 16-11-2019 03:59:17 1.3 C 41 %
25 16-11-2019 04:09:17 1.1 C 41 %
Sensor: Nr:Datum:Temp:Feuchte:
Aussen-T/F 26 16-11-2019 04:19:17 0.8 C 41 %
27 16-11-2019 04:29:17 0.3 C 40 %
28 16-11-2019 04:39:17 0 C 41 %
29 16-11-2019 04:49:17 -0.2 C 41 %
30 16-11-2019 04:59:17 -0.1 C 42 %
31 16-11-2019 05:09:17 -0.4 C 42 %
32 16-11-2019 05:19:17 -0.5 C 42 %
33 16-11-2019 05:29:17 -0.7 C 42 %
34 16-11-2019 05:39:17 -0.6 C 42 %
35 16-11-2019 05:49:17 -0.8 C 42 %
36 16-11-2019 05:59:17 -1 C 42 %
37 16-11-2019 06:09:17 -1 C 42 %
38 16-11-2019 06:19:17 -1.1 C 42 %
39 16-11-2019 06:29:17 -1 C 43 %
40 16-11-2019 06:39:17 -1 C 43 %
41 16-11-2019 06:49:17 -1.4 C 42 %
42 16-11-2019 06:59:17 -1.5 C 42 %
43 16-11-2019 07:09:17 -1.5 C 42 %
44 16-11-2019 07:19:17 -1.6 C 42 %
45 16-11-2019 07:29:17 -1.4 C 43 %
46 16-11-2019 07:39:17 -1 C 43 %
47 16-11-2019 07:49:17 -0.9 C 43 %
48 16-11-2019 07:59:17 -0.7 C 43 %
49 16-11-2019 08:09:17 -0.7 C 43 %
50 16-11-2019 08:19:17 -0.7 C 43 %
Sensor: Nr:Datum:Temp:Feuchte:
Aussen-T/F 51 16-11-2019 08:29:17 -0.6 C 43 %
52 16-11-2019 08:39:17 -0.5 C 43 %
53 16-11-2019 08:49:17 -0.4 C 43 %
54 16-11-2019 08:59:17 -0.3 C 43 %
55 16-11-2019 09:09:17 -0.4 C 43 %
56 16-11-2019 09:19:17 -0.5 C 43 %
57 16-11-2019 09:29:17 -0.5 C 43 %
58 16-11-2019 09:39:17 -0.4 C 43 %
59 16-11-2019 09:49:17 -0.4 C 43 %
60 16-11-2019 09:59:17 -0.2 C 43 %
61 16-11-2019 10:09:17 0.2 C 43 %
62 16-11-2019 10:19:17 0.6 C 43 %
63 16-11-2019 10:29:17 0.6 C 41 %
64 16-11-2019 10:39:17 0.3 C 40 %
65 16-11-2019 10:49:17 0.5 C 40 %
66 16-11-2019 10:59:17 0.6 C 39 %
67 16-11-2019 11:09:17 0.7 C 38 %
68 16-11-2019 11:19:17 1.1 C 36 %
69 16-11-2019 11:29:17 1.6 C 32 %
70 16-11-2019 11:39:17 2.4 C 32 %
71 16-11-2019 11:49:17 2.1 C 30 %
72 16-11-2019 11:59:17 1.8 C 31 %
73 16-11-2019 12:09:17 1.6 C 32 %
74 16-11-2019 12:19:17 1.6 C 33 %
75 16-11-2019 12:29:17 2.3 C 31 %
Sensor: Nr:Datum:Temp:Feuchte:
Aussen-T/F 76 16-11-2019 12:39:17 2.5 C 30 %
77 16-11-2019 12:49:17 2.6 C 32 %
78 16-11-2019 12:59:17 2.6 C 33 %
79 16-11-2019 13:09:17 2.5 C 35 %
80 16-11-2019 13:19:17 2.6 C 36 %
81 16-11-2019 13:29:17 3.2 C 36 %
82 16-11-2019 13:39:17 3.7 C 35 %
83 16-11-2019 13:49:17 4 C 32 %
84 16-11-2019 13:59:17 3.9 C 32 %
85 16-11-2019 14:09:17 3.7 C 32 %
86 16-11-2019 14:19:17 3.7 C 33 %
87 16-11-2019 14:29:17 3.7 C 32 %
88 16-11-2019 14:39:17 3.9 C 32 %
89 16-11-2019 14:49:17 3.9 C 31 %
90 16-11-2019 14:59:17 4 C 30 %
91 16-11-2019 15:09:17 4.4 C 29 %
92 16-11-2019 15:19:17 4.7 C 29 %
93 16-11-2019 15:29:17 4.6 C 29 %
94 16-11-2019 15:39:17 4.4 C 28 %
95 16-11-2019 15:49:17 4.5 C 28 %
96 16-11-2019 15:59:17 4.2 C 28 %
97 16-11-2019 16:09:17 4 C 29 %
98 16-11-2019 16:19:17 4.3 C 26 %
99 16-11-2019 16:29:17 3.8 C 27 %
100 16-11-2019 16:39:17 3.5 C 30 %
Sensor: Nr:Datum:Temp:Feuchte:
Aussen-T/F 101 16-11-2019 16:49:17 3.6 C 31 %
102 16-11-2019 16:59:17 3.4 C 32 %
103 16-11-2019 17:09:17 3.5 C 32 %
104 16-11-2019 17:19:17 3.3 C 32 %
105 16-11-2019 17:29:17 2.6 C 36 %
106 16-11-2019 17:39:17 2.2 C 36 %
107 16-11-2019 17:49:17 2.3 C 39 %
108 16-11-2019 17:59:17 2.2 C 40 %
109 16-11-2019 18:09:17 2 C 39 %
110 16-11-2019 18:19:17 2.2 C 40 %
111 16-11-2019 18:29:17 2 C 40 %
112 16-11-2019 18:39:17 1.9 C 40 %
113 16-11-2019 18:49:17 1.7 C 40 %
114 16-11-2019 18:59:17 1.6 C 40 %
115 16-11-2019 19:09:17 1.4 C 40 %
116 16-11-2019 19:19:17 1.3 C 41 %
117 16-11-2019 19:29:17 1 C 41 %
118 16-11-2019 19:39:17 1.1 C 42 %
119 16-11-2019 19:49:17 0.7 C 42 %
120 16-11-2019 19:59:17 0.5 C 42 %
121 16-11-2019 20:09:17 0.5 C 43 %
122 16-11-2019 20:19:17 0.6 C 43 %
123 16-11-2019 20:29:17 0.7 C 44 %
124 16-11-2019 20:39:17 0.7 C 44 %
125 16-11-2019 20:49:17 0.6 C 43 %
Sensor: Nr:Datum:Temp:Feuchte:
Aussen-T/F 126 16-11-2019 20:59:17 0.6 C 43 %
127 16-11-2019 21:09:17 1.1 C 43 %
128 16-11-2019 21:19:17 0.3 C 43 %
129 16-11-2019 21:29:17 0.1 C 43 %
130 16-11-2019 21:39:17 0 C 43 %
131 16-11-2019 21:49:17 -0.2 C 42 %
132 16-11-2019 21:59:17 -0.3 C 43 %
133 16-11-2019 22:09:17 0 C 43 %
134 16-11-2019 22:19:17 -0.5 C 43 %
135 16-11-2019 22:29:17 -0.7 C 42 %
136 16-11-2019 22:39:17 -0.9 C 42 %
137 16-11-2019 22:49:17 -0.9 C 42 %
138 16-11-2019 22:59:17 -1 C 42 %
139 16-11-2019 23:09:17 -1.2 C 42 %
140 16-11-2019 23:19:17 -1 C 42 %
141 16-11-2019 23:29:17 -1.3 C 42 %
142 16-11-2019 23:39:17 -1.3 C 42 %
143 16-11-2019 23:49:17 -1.6 C 42 %
144 16-11-2019 23:59:17 -1.6 C 42 %
145 17-11-2019 00:09:17 -1.6 C 42 %
146 17-11-2019 00:19:17 -1.3 C 43 %
147 17-11-2019 00:29:17 -1.6 C 42 %
148 17-11-2019 00:39:17 -1.9 C 42 %
149 17-11-2019 00:49:17 -1.9 C 42 %
150 17-11-2019 00:59:17 -2 C 41 %
Sensor: Nr:Datum:Temp:Feuchte:
Aussen-T/F 151 17-11-2019 01:09:17 -2.2 C 41 %
152 17-11-2019 01:19:17 -1.4 C 42 %
153 17-11-2019 01:29:17 -2 C 41 %
154 17-11-2019 01:39:17 -1.7 C 42 %
155 17-11-2019 01:49:17 -1.3 C 42 %
156 17-11-2019 01:59:17 -1.2 C 42 %
157 17-11-2019 02:09:17 -1 C 43 %
158 17-11-2019 02:19:17 -1 C 43 %
159 17-11-2019 02:29:17 -0.5 C 43 %
160 17-11-2019 02:39:17 -0.3 C 43 %
161 17-11-2019 02:49:17 -0.2 C 43 %
162 17-11-2019 02:59:17 -0.2 C 43 %
163 17-11-2019 03:09:17 0 C 43 %
164 17-11-2019 03:19:17 0.1 C 43 %
165 17-11-2019 03:29:17 0.2 C 43 %
166 17-11-2019 03:39:17 0.3 C 43 %
167 17-11-2019 03:49:17 0.5 C 43 %
168 17-11-2019 03:59:17 0.5 C 43 %
169 17-11-2019 04:09:17 0.7 C 43 %
170 17-11-2019 04:19:17 0.8 C 43 %
171 17-11-2019 04:29:17 0.9 C 43 %
172 17-11-2019 04:39:17 0.9 C 43 %
173 17-11-2019 04:49:17 0.8 C 43 %
174 17-11-2019 04:59:17 0.8 C 43 %
175 17-11-2019 05:09:17 0.8 C 43 %
Sensor: Nr:Datum:Temp:Feuchte:
Aussen-T/F 176 17-11-2019 05:19:17 0.8 C 43 %
177 17-11-2019 05:29:17 1 C 42 %
178 17-11-2019 05:39:17 0.8 C 43 %
179 17-11-2019 05:49:17 0.8 C 43 %
180 17-11-2019 05:59:17 0.8 C 43 %
181 17-11-2019 06:09:17 0.8 C 43 %
182 17-11-2019 06:19:17 0.8 C 43 %
183 17-11-2019 06:29:17 0.8 C 43 %
184 17-11-2019 06:39:17 0.9 C 43 %
185 17-11-2019 06:49:17 1 C 41 %
186 17-11-2019 06:59:17 0.9 C 43 %
187 17-11-2019 07:09:17 1 C 41 %
188 17-11-2019 07:19:17 1 C 41 %
189 17-11-2019 07:29:17 1 C 41 %
190 17-11-2019 07:39:17 1.1 C 41 %
191 17-11-2019 07:49:17 1.1 C 41 %
192 17-11-2019 07:59:17 1.1 C 41 %
193 17-11-2019 08:09:17 1.2 C 41 %
194 17-11-2019 08:19:17 1.2 C 41 %
195 17-11-2019 08:29:17 1.2 C 41 %
196 17-11-2019 08:39:17 1.3 C 41 %
197 17-11-2019 08:49:17 1.4 C 41 %
198 17-11-2019 08:59:17 1.5 C 42 %
199 17-11-2019 09:09:17 1.5 C 42 %
200 17-11-2019 09:19:17 1.8 C 42 %
Sensor: Nr:Datum:Temp:Feuchte:
Aussen-T/F 201 17-11-2019 09:29:17 2 C 41 %
202 17-11-2019 09:39:17 2.1 C 41 %
203 17-11-2019 09:49:17 2.1 C 41 %
204 17-11-2019 09:59:17 2.3 C 41 %
205 17-11-2019 10:09:17 2.5 C 42 %
206 17-11-2019 10:19:17 2.6 C 42 %
207 17-11-2019 10:29:17 2.6 C 42 %
208 17-11-2019 10:39:17 2.7 C 41 %
209 17-11-2019 10:49:17 2.8 C 41 %
210 17-11-2019 10:59:17 3 C 41 %
211 17-11-2019 11:09:17 3.2 C 40 %
212 17-11-2019 11:19:17 3.3 C 40 %
213 17-11-2019 11:29:17 3.5 C 39 %
214 17-11-2019 11:39:17 3.5 C 39 %
215 17-11-2019 11:49:17 3.5 C 39 %
216 17-11-2019 11:59:17 3.7 C 38 %
217 17-11-2019 12:09:17 3.9 C 38 %
218 17-11-2019 12:19:17 3.8 C 38 %
219 17-11-2019 12:29:17 3.9 C 38 %
220 17-11-2019 12:39:17 4 C 37 %
221 17-11-2019 12:49:17 4.1 C 37 %
222 17-11-2019 12:59:17 4.4 C 37 %
223 17-11-2019 13:09:17 4.5 C 36 %
224 17-11-2019 13:19:17 4.6 C 33 %
225 17-11-2019 13:29:17 4.7 C 32 %
Sensor: Nr:Datum:Temp:Feuchte:
Aussen-T/F 226 17-11-2019 13:39:17 4.7 C 32 %
227 17-11-2019 13:49:17 4.8 C 32 %
228 17-11-2019 13:59:17 4.8 C 32 %
229 17-11-2019 14:09:17 4.9 C 33 %
230 17-11-2019 14:19:17 4.9 C 31 %
231 17-11-2019 14:29:17 5.1 C 31 %
232 17-11-2019 14:39:17 4.6 C 29 %
233 17-11-2019 14:49:17 4.4 C 31 %
234 17-11-2019 14:59:17 4.3 C 35 %
235 17-11-2019 15:09:17 4.3 C 35 %
236 17-11-2019 15:19:17 4.2 C 37 %
237 17-11-2019 15:29:17 4.1 C 37 %
238 17-11-2019 15:39:18 4.2 C 38 %
239 17-11-2019 15:49:17 4 C 38 %
240 17-11-2019 15:59:17 4 C 37 %
241 17-11-2019 16:09:17 4 C 38 %
242 17-11-2019 16:19:17 4 C 38 %
243 17-11-2019 16:29:17 3.8 C 40 %
244 17-11-2019 16:39:17 3.8 C 40 %
245 17-11-2019 16:49:17 3.8 C 39 %
246 17-11-2019 16:59:17 3.7 C 40 %
247 17-11-2019 17:09:17 3.7 C 40 %
248 17-11-2019 17:19:17 3.6 C 40 %
249 17-11-2019 17:29:17 3.6 C 40 %
250 17-11-2019 17:39:17 3.6 C 40 %
Sensor: Nr:Datum:Temp:Feuchte:
Aussen-T/F 251 17-11-2019 17:49:17 3.6 C 41 %
252 17-11-2019 17:59:17 3.7 C 41 %
253 17-11-2019 18:09:17 3.8 C 41 %
254 17-11-2019 18:19:17 3.9 C 42 %
255 17-11-2019 18:29:17 3.9 C 42 %
256 17-11-2019 18:39:17 3.9 C 41 %
257 17-11-2019 18:49:17 3.9 C 41 %
258 17-11-2019 18:59:17 3.8 C 41 %
259 17-11-2019 19:09:17 3.8 C 40 %
260 17-11-2019 19:19:17 3.8 C 41 %
261 17-11-2019 19:29:17 3.8 C 41 %
262 17-11-2019 19:39:17 3.8 C 41 %
263 17-11-2019 19:49:17 3.9 C 41 %
264 17-11-2019 19:59:17 3.9 C 41 %
265 17-11-2019 20:09:17 3.9 C 41 %
266 17-11-2019 20:19:17 3.9 C 41 %
267 17-11-2019 20:29:17 3.9 C 41 %
268 17-11-2019 20:39:17 3.9 C 41 %
269 17-11-2019 20:49:17 4 C 40 %
270 17-11-2019 20:59:17 4 C 40 %
271 17-11-2019 21:09:17 3.9 C 41 %
272 17-11-2019 21:19:17 4 C 40 %
273 17-11-2019 21:29:17 3.9 C 41 %
274 17-11-2019 21:39:17 3.9 C 41 %
275 17-11-2019 21:49:17 3.9 C 41 %
Sensor: Nr:Datum:Temp:Feuchte:
Aussen-T/F 276 17-11-2019 21:59:17 3.9 C 41 %
277 17-11-2019 22:09:17 3.9 C 41 %
278 17-11-2019 22:19:17 3.9 C 41 %
279 17-11-2019 22:29:17 3.9 C 41 %
280 17-11-2019 22:39:17 3.9 C 41 %
281 17-11-2019 22:49:17 3.9 C 41 %
282 17-11-2019 22:59:17 3.8 C 41 %
283 17-11-2019 23:09:17 3.8 C 41 %
284 17-11-2019 23:19:17 3.8 C 41 %
285 17-11-2019 23:29:17 3.8 C 41 %
286 17-11-2019 23:39:17 3.8 C 41 %
287 17-11-2019 23:49:17 3.7 C 41 %
288 17-11-2019 23:59:17 3.6 C 41 %
289 18-11-2019 00:09:17 3.6 C 40 %
290 18-11-2019 00:19:17 3.6 C 40 %
291 18-11-2019 00:29:17 3.5 C 40 %
292 18-11-2019 00:39:17 3.5 C 40 %
293 18-11-2019 00:49:17 3.4 C 40 %
294 18-11-2019 00:59:17 3.4 C 39 %
295 18-11-2019 01:09:17 3.4 C 39 %
296 18-11-2019 01:19:17 3.4 C 38 %
297 18-11-2019 01:29:17 3.4 C 38 %
298 18-11-2019 01:39:17 3.3 C 38 %
299 18-11-2019 01:49:17 3.4 C 39 %
300 18-11-2019 01:59:17 3.4 C 39 %
Sensor: Nr:Datum:Temp:Feuchte:
Aussen-T/F 301 18-11-2019 02:09:17 3.4 C 40 %
302 18-11-2019 02:19:17 3.3 C 40 %
303 18-11-2019 02:29:17 3.4 C 40 %
304 18-11-2019 02:39:17 3.4 C 40 %
305 18-11-2019 02:49:17 3.4 C 40 %
306 18-11-2019 02:59:17 3.3 C 40 %
307 18-11-2019 03:09:17 3.3 C 40 %
308 18-11-2019 03:19:17 3.4 C 41 %
309 18-11-2019 03:29:17 3.4 C 41 %
310 18-11-2019 03:39:17 3.3 C 40 %
311 18-11-2019 03:49:17 3.4 C 40 %
312 18-11-2019 03:59:17 3.4 C 40 %
313 18-11-2019 04:09:17 3.4 C 40 %
314 18-11-2019 04:19:17 3.3 C 40 %
315 18-11-2019 04:29:17 3.4 C 40 %
316 18-11-2019 04:39:18 3.3 C 40 %
317 18-11-2019 04:49:17 3.3 C 40 %
318 18-11-2019 04:59:17 3.3 C 40 %
319 18-11-2019 05:09:17 3.4 C 40 %
320 18-11-2019 05:19:18 3.3 C 40 %
321 18-11-2019 05:29:18 3.3 C 40 %
322 18-11-2019 05:39:17 3.3 C 41 %
323 18-11-2019 05:49:17 3.3 C 40 %
324 18-11-2019 05:59:17 3.3 C 41 %
325 18-11-2019 06:09:17 3.3 C 41 %
Sensor: Nr:Datum:Temp:Feuchte:
Aussen-T/F 326 18-11-2019 06:19:17 3.3 C 41 %
327 18-11-2019 06:29:17 3.2 C 41 %
328 18-11-2019 06:39:17 3.2 C 41 %
329 18-11-2019 06:49:17 3.2 C 41 %
330 18-11-2019 06:59:17 3.2 C 41 %
331 18-11-2019 07:09:17 3.2 C 41 %
332 18-11-2019 07:19:18 3.2 C 41 %
333 18-11-2019 07:29:18 3.2 C 41 %
334 18-11-2019 07:39:18 3.3 C 41 %
335 18-11-2019 07:49:17 3.3 C 41 %
336 18-11-2019 07:59:17 3.3 C 41 %
337 18-11-2019 08:09:17 3.3 C 41 %
338 18-11-2019 08:19:17 3.3 C 41 %
339 18-11-2019 08:29:17 3.4 C 41 %
340 18-11-2019 08:39:18 3.4 C 41 %
341 18-11-2019 08:49:18 3.4 C 41 %
342 18-11-2019 08:59:18 3.4 C 41 %
343 18-11-2019 09:09:17 3.5 C 41 %
344 18-11-2019 09:19:17 3.6 C 41 %
345 18-11-2019 09:29:17 3.6 C 40 %
346 18-11-2019 09:39:17 3.7 C 40 %
347 18-11-2019 09:49:17 3.9 C 38 %
348 18-11-2019 09:59:17 4.1 C 37 %
349 18-11-2019 10:09:17 4.1 C 35 %
350 18-11-2019 10:19:31 4.2 C 35 %
Sensor: Nr:Datum:Temp:Feuchte:
Aussen-T/F 351 18-11-2019 10:29:31 4.1 C 35 %
352 18-11-2019 10:39:17 4.1 C 35 %
353 18-11-2019 10:49:17 4.2 C 36 %
354 18-11-2019 10:59:17 4.1 C 35 %
355 18-11-2019 11:09:17 4.1 C 35 %
356 18-11-2019 11:19:17 4.2 C 35 %
357 18-11-2019 11:29:17 4.3 C 34 %
358 18-11-2019 11:39:17 4.4 C 34 %
359 18-11-2019 11:49:17 4.7 C 33 %
360 18-11-2019 11:59:17 5 C 29 %
361 18-11-2019 12:09:17 4.9 C 30 %
362 18-11-2019 12:19:17 5 C 28 %
363 18-11-2019 12:29:17 4.8 C 30 %
364 18-11-2019 12:39:17 4.8 C 30 %
365 18-11-2019 12:49:17 4.8 C 30 %
366 18-11-2019 12:59:17 4.8 C 30 %
367 18-11-2019 13:09:17 4.7 C 30 %
368 18-11-2019 13:19:17 4.7 C 31 %
369 18-11-2019 13:29:17 4.8 C 30 %
370 18-11-2019 13:39:17 4.8 C 30 %
371 18-11-2019 13:49:17 4.8 C 29 %
372 18-11-2019 13:59:17 4.8 C 30 %
373 18-11-2019 14:09:17 4.8 C 28 %
374 18-11-2019 14:19:17 4.8 C 30 %
375 18-11-2019 14:29:17 4.8 C 30 %
Sensor: Nr:Datum:Temp:Feuchte:
Aussen-T/F 376 18-11-2019 14:39:17 4.8 C 30 %
377 18-11-2019 14:49:17 4.6 C 30 %
378 18-11-2019 14:59:17 4.5 C 30 %
379 18-11-2019 15:09:17 4.5 C 31 %
380 18-11-2019 15:19:18 4.5 C 31 %
381 18-11-2019 15:29:18 4.5 C 30 %
382 18-11-2019 15:39:17 4.5 C 30 %
383 18-11-2019 15:49:17 4.4 C 30 %
384 18-11-2019 15:59:17 4.3 C 30 %
385 18-11-2019 16:09:17 4.2 C 31 %
386 18-11-2019 16:19:17 4.1 C 31 %
387 18-11-2019 16:29:17 4.1 C 30 %
388 18-11-2019 16:39:17 4.1 C 31 %
389 18-11-2019 16:49:17 4.1 C 32 %
390 18-11-2019 16:59:17 4.1 C 30 %
391 18-11-2019 17:09:17 4.1 C 30 %
392 18-11-2019 17:19:17 4.1 C 30 %
393 18-11-2019 17:29:17 4 C 31 %
394 18-11-2019 17:39:17 4 C 31 %
395 18-11-2019 17:49:17 4 C 31 %
396 18-11-2019 17:59:17 3.9 C 33 %
397 18-11-2019 18:09:17 3.9 C 34 %
398 18-11-2019 18:19:17 3.8 C 34 %
399 18-11-2019 18:29:17 3.8 C 35 %
400 18-11-2019 18:39:17 3.7 C 34 %
Sensor: Nr:Datum:Temp:Feuchte:
Aussen-T/F 401 18-11-2019 18:49:17 3.5 C 36 %
402 18-11-2019 18:59:17 3.5 C 35 %
403 18-11-2019 19:09:17 3.3 C 34 %
404 18-11-2019 19:19:17 3.2 C 34 %
405 18-11-2019 19:29:17 3 C 36 %
406 18-11-2019 19:39:17 2.9 C 36 %
407 18-11-2019 19:49:17 2.7 C 36 %
408 18-11-2019 19:59:17 2.7 C 36 %
409 18-11-2019 20:09:17 2.4 C 36 %
410 18-11-2019 20:19:17 2.3 C 37 %
411 18-11-2019 20:29:17 2.2 C 36 %
412 18-11-2019 20:39:17 2 C 37 %
413 18-11-2019 20:49:17 1.9 C 39 %
414 18-11-2019 20:59:17 1.8 C 38 %
415 18-11-2019 21:09:17 1.6 C 40 %
416 18-11-2019 21:19:17 1.5 C 39 %
417 18-11-2019 21:29:17 1.5 C 40 %
418 18-11-2019 21:39:17 1.5 C 40 %
419 18-11-2019 21:49:17 1.6 C 40 %
420 18-11-2019 21:59:17 1.8 C 40 %
421 18-11-2019 22:09:17 2 C 38 %
422 18-11-2019 22:19:17 2 C 38 %
423 18-11-2019 22:29:17 2.2 C 36 %
424 18-11-2019 22:39:17 2.2 C 36 %
425 18-11-2019 22:49:17 2.2 C 36 %
Sensor: Nr:Datum:Temp:Feuchte:
Aussen-T/F 426 18-11-2019 22:59:17 2.2 C 36 %
427 18-11-2019 23:09:17 2.2 C 36 %
428 18-11-2019 23:19:17 2.4 C 36 %
429 18-11-2019 23:29:17 2.6 C 36 %
430 18-11-2019 23:39:17 2.7 C 35 %
431 18-11-2019 23:49:17 2.7 C 35 %
432 18-11-2019 23:59:17 2.8 C 36 %
433 19-11-2019 00:09:17 2.9 C 36 %
434 19-11-2019 00:19:17 2.9 C 36 %
435 19-11-2019 00:29:17 3 C 36 %
436 19-11-2019 00:39:17 3 C 35 %
437 19-11-2019 00:49:18 3 C 35 %
438 19-11-2019 00:59:18 3 C 36 %
439 19-11-2019 01:09:17 3.2 C 36 %
440 19-11-2019 01:19:17 3.2 C 36 %
441 19-11-2019 01:29:17 3.2 C 36 %
442 19-11-2019 01:39:18 3.3 C 37 %
443 19-11-2019 01:49:18 3.4 C 36 %
444 19-11-2019 01:59:18 3.3 C 36 %
445 19-11-2019 02:09:18 3.3 C 36 %
446 19-11-2019 02:19:17 3.4 C 36 %
447 19-11-2019 02:29:17 3.3 C 36 %
448 19-11-2019 02:39:17 3.4 C 37 %
449 19-11-2019 02:49:17 3.3 C 37 %
450 19-11-2019 02:59:17 3.3 C 38 %
Sensor: Nr:Datum:Temp:Feuchte:
Aussen-T/F 451 19-11-2019 03:09:17 3.3 C 40 %
452 19-11-2019 03:19:17 3.4 C 39 %
453 19-11-2019 03:29:17 3.4 C 39 %
454 19-11-2019 03:39:17 3.5 C 37 %
455 19-11-2019 03:49:17 3.5 C 37 %
456 19-11-2019 03:59:17 3.5 C 38 %
457 19-11-2019 04:09:17 3.6 C 37 %
458 19-11-2019 04:19:18 3.6 C 36 %
459 19-11-2019 04:29:18 3.5 C 36 %
460 19-11-2019 04:39:17 3.5 C 37 %
461 19-11-2019 04:49:17 3.4 C 37 %
462 19-11-2019 04:59:17 3.1 C 39 %
463 19-11-2019 05:09:17 2.5 C 40 %
464 19-11-2019 05:19:18 2.3 C 41 %
465 19-11-2019 05:29:18 2 C 42 %
466 19-11-2019 05:39:17 1.6 C 43 %
467 19-11-2019 05:49:17 1.5 C 43 %
468 19-11-2019 05:59:17 1.8 C 44 %
469 19-11-2019 06:09:17 1.8 C 44 %
470 19-11-2019 06:19:17 1.7 C 43 %
471 19-11-2019 06:29:17 1.7 C 43 %
472 19-11-2019 06:39:17 1.8 C 43 %
473 19-11-2019 06:49:17 2 C 42 %
474 19-11-2019 06:59:17 2.1 C 42 %
475 19-11-2019 07:09:17 2.4 C 42 %
Sensor: Nr:Datum:Temp:Feuchte:
Aussen-T/F 476 19-11-2019 07:19:17 2.2 C 42 %
477 19-11-2019 07:29:17 1.5 C 42 %
478 19-11-2019 07:39:17 1.3 C 42 %
479 19-11-2019 07:49:17 1.2 C 42 %
480 19-11-2019 07:59:17 1.8 C 43 %
481 19-11-2019 08:09:17 2.1 C 42 %
482 19-11-2019 08:19:17 2.5 C 42 %
483 19-11-2019 08:29:17 2.8 C 42 %
484 19-11-2019 08:39:17 2.5 C 41 %
485 19-11-2019 08:49:17 2.6 C 41 %
486 19-11-2019 08:59:17 3.2 C 41 %
487 19-11-2019 09:09:17 3.3 C 40 %
488 19-11-2019 09:19:17 3.3 C 39 %
489 19-11-2019 09:29:17 3.4 C 38 %
490 19-11-2019 09:39:17 3.3 C 35 %
491 19-11-2019 09:49:17 3.2 C 35 %
492 19-11-2019 09:59:17 3.1 C 35 %
493 19-11-2019 10:09:17 3.1 C 36 %
494 19-11-2019 10:19:17 3.2 C 36 %
495 19-11-2019 10:29:17 3.3 C 37 %
496 19-11-2019 10:39:17 3.2 C 38 %
497 19-11-2019 10:49:17 3.3 C 38 %
498 19-11-2019 10:59:17 3.4 C 38 %
499 19-11-2019 11:09:17 3.5 C 38 %
500 19-11-2019 11:19:17 3.5 C 38 %
Sensor: Nr:Datum:Temp:Feuchte:
Aussen-T/F 501 19-11-2019 11:29:17 4.2 C 33 %
502 19-11-2019 11:39:17 5 C 30 %
503 19-11-2019 11:49:17 5.5 C 23 %
504 19-11-2019 11:59:17 5.5 C 23 %
505 19-11-2019 12:09:17 5.5 C 23 %
506 19-11-2019 12:19:17 6.2 C 20 %
507 19-11-2019 12:29:17 6.3 C 20 %
508 19-11-2019 12:39:17 5.5 C 20 %
509 19-11-2019 12:49:17 5.6 C 20 %
510 19-11-2019 12:59:17 5.7 C 20 %
511 19-11-2019 13:09:17 5.8 C 20 %
512 19-11-2019 13:19:17 5.7 C 20 %
513 19-11-2019 13:29:17 5.8 C 20 %
514 19-11-2019 13:39:17 5.7 C 20 %
515 19-11-2019 13:49:17 6 C 20 %
516 19-11-2019 13:59:17 6.3 C 20 %
517 19-11-2019 14:09:17 6.2 C 20 %
518 19-11-2019 14:19:17 6.2 C 20 %
519 19-11-2019 14:29:17 6 C 20 %
520 19-11-2019 14:39:17 5.9 C 20 %
521 19-11-2019 14:49:17 5.8 C 20 %
522 19-11-2019 14:59:17 5.9 C 25 %
523 19-11-2019 15:09:17 5.8 C 23 %
524 19-11-2019 15:19:18 5.6 C 28 %
525 19-11-2019 15:29:18 5.4 C 30 %
Sensor: Nr:Datum:Temp:Feuchte:
Aussen-T/F 526 19-11-2019 15:39:17 5.1 C 32 %
527 19-11-2019 15:49:17 4.9 C 30 %
528 19-11-2019 15:59:17 4.8 C 32 %
529 19-11-2019 16:09:17 4.7 C 35 %
530 19-11-2019 16:19:17 4.5 C 36 %
531 19-11-2019 16:29:17 4.4 C 35 %
532 19-11-2019 16:39:17 4.4 C 35 %
533 19-11-2019 16:49:17 3.8 C 38 %
534 19-11-2019 16:59:17 3.5 C 39 %
535 19-11-2019 17:09:17 3.3 C 40 %
536 19-11-2019 17:19:17 3.2 C 41 %
537 19-11-2019 17:29:17 2.9 C 41 %
538 19-11-2019 17:39:17 2.8 C 42 %
539 19-11-2019 17:49:17 2.7 C 42 %
540 19-11-2019 17:59:17 2.7 C 42 %
541 19-11-2019 18:09:17 2.4 C 42 %
542 19-11-2019 18:19:17 2.2 C 42 %
543 19-11-2019 18:29:17 2.3 C 42 %
544 19-11-2019 18:39:17 2.5 C 42 %
545 19-11-2019 18:49:17 2.6 C 42 %
546 19-11-2019 18:59:17 2 C 41 %
547 19-11-2019 19:09:17 1.4 C 41 %
548 19-11-2019 19:19:17 1.4 C 42 %
549 19-11-2019 19:29:17 1.5 C 42 %
550 19-11-2019 19:39:17 1.2 C 42 %
Sensor: Nr:Datum:Temp:Feuchte:
Aussen-T/F 551 19-11-2019 19:49:17 1 C 42 %
552 19-11-2019 19:59:17 0.6 C 43 %
553 19-11-2019 20:09:17 0.9 C 44 %
554 19-11-2019 20:19:17 1.5 C 43 %
555 19-11-2019 20:29:17 1.8 C 43 %
556 19-11-2019 20:39:17 1.9 C 43 %
557 19-11-2019 20:49:17 1.9 C 43 %
558 19-11-2019 20:59:17 1.9 C 43 %
559 19-11-2019 21:09:17 1.9 C 43 %
560 19-11-2019 21:19:17 1.9 C 43 %
561 19-11-2019 21:29:17 1.9 C 42 %
562 19-11-2019 21:39:17 2 C 41 %
563 19-11-2019 21:49:17 2 C 41 %
564 19-11-2019 21:59:17 1.9 C 42 %
565 19-11-2019 22:09:17 1.7 C 42 %
566 19-11-2019 22:19:17 1.5 C 41 %
567 19-11-2019 22:29:17 1.4 C 41 %
568 19-11-2019 22:39:17 1.1 C 41 %
569 19-11-2019 22:49:17 0.6 C 41 %
570 19-11-2019 22:59:17 0.6 C 42 %
571 19-11-2019 23:09:17 -0.1 C 42 %
572 19-11-2019 23:19:17 -0.2 C 42 %
573 19-11-2019 23:29:17 -0.4 C 42 %
574 19-11-2019 23:39:17 -0.5 C 42 %
575 19-11-2019 23:49:17 -0.5 C 42 %
Sensor: Nr:Datum:Temp:Feuchte:
Aussen-T/F 576 19-11-2019 23:59:17 -0.6 C 42 %
577 20-11-2019 00:09:17 -0.7 C 42 %
578 20-11-2019 00:19:17 -0.6 C 42 %
579 20-11-2019 00:29:17 -0.5 C 42 %
580 20-11-2019 00:39:17 -0.7 C 42 %
581 20-11-2019 00:49:17 -0.7 C 43 %
582 20-11-2019 00:59:17 -0.8 C 42 %
583 20-11-2019 01:09:17 -0.8 C 42 %
584 20-11-2019 01:19:17 -1.1 C 42 %
585 20-11-2019 01:29:17 -1.1 C 42 %
586 20-11-2019 01:39:17 -0.7 C 43 %
587 20-11-2019 01:49:17 -0.6 C 43 %
588 20-11-2019 01:59:17 -0.5 C 43 %
589 20-11-2019 02:09:17 -0.4 C 43 %
590 20-11-2019 02:19:17 -0.4 C 43 %
591 20-11-2019 02:29:17 -0.5 C 43 %
592 20-11-2019 02:39:17 -0.5 C 43 %
593 20-11-2019 02:49:17 -0.4 C 43 %
594 20-11-2019 02:59:17 -0.4 C 43 %
595 20-11-2019 03:09:17 -0.3 C 43 %
596 20-11-2019 03:19:17 -0.3 C 43 %
597 20-11-2019 03:29:17 -0.4 C 43 %
598 20-11-2019 03:39:17 -0.5 C 43 %
599 20-11-2019 03:49:17 -0.5 C 43 %
600 20-11-2019 03:59:17 -0.7 C 43 %
Sensor: Nr:Datum:Temp:Feuchte:
Aussen-T/F 601 20-11-2019 04:09:17 -0.6 C 43 %
602 20-11-2019 04:19:17 -0.5 C 43 %
603 20-11-2019 04:29:17 -0.6 C 42 %
604 20-11-2019 04:39:17 -0.5 C 42 %
605 20-11-2019 04:49:17 -0.5 C 42 %
606 20-11-2019 04:59:17 -0.4 C 42 %
607 20-11-2019 05:09:17 -0.3 C 42 %
608 20-11-2019 05:19:17 -0.3 C 42 %
609 20-11-2019 05:29:17 -0.3 C 42 %
610 20-11-2019 05:39:17 -0.3 C 42 %
611 20-11-2019 05:49:17 -0.3 C 42 %
612 20-11-2019 05:59:17 -0.2 C 42 %
613 20-11-2019 06:09:17 -0.1 C 42 %
614 20-11-2019 06:19:17 -0.1 C 42 %
615 20-11-2019 06:29:17 0 C 42 %
616 20-11-2019 06:39:17 0 C 42 %
617 20-11-2019 06:49:17 0 C 42 %
618 20-11-2019 06:59:17 0.2 C 42 %
619 20-11-2019 07:09:17 0.2 C 42 %
620 20-11-2019 07:19:17 0.2 C 42 %
621 20-11-2019 07:29:17 0.4 C 42 %
622 20-11-2019 07:39:18 0.3 C 42 %
623 20-11-2019 07:49:17 0.4 C 42 %
624 20-11-2019 07:59:17 0.4 C 42 %
625 20-11-2019 08:09:17 0.4 C 42 %
Sensor: Nr:Datum:Temp:Feuchte:
Aussen-T/F 626 20-11-2019 08:19:17 0.5 C 42 %
627 20-11-2019 08:29:17 0.6 C 42 %
628 20-11-2019 08:39:17 0.7 C 43 %
629 20-11-2019 08:49:17 0.8 C 43 %
630 20-11-2019 08:59:17 0.9 C 43 %
631 20-11-2019 09:09:17 1.1 C 42 %
632 20-11-2019 09:19:17 1 C 42 %
633 20-11-2019 09:29:17 1.2 C 42 %
634 20-11-2019 09:39:17 1.6 C 42 %
635 20-11-2019 09:49:17 1.7 C 42 %
636 20-11-2019 09:59:17 2 C 41 %
637 20-11-2019 10:09:17 2.1 C 41 %
638 20-11-2019 10:19:17 2.4 C 41 %
639 20-11-2019 10:29:17 2.9 C 41 %
640 20-11-2019 10:39:17 3 C 39 %
641 20-11-2019 10:49:17 2.6 C 39 %
642 20-11-2019 10:59:17 2.5 C 38 %
643 20-11-2019 11:09:17 2.6 C 38 %
644 20-11-2019 11:19:17 3.3 C 38 %
645 20-11-2019 11:29:17 3.3 C 37 %
646 20-11-2019 11:39:17 3 C 35 %
647 20-11-2019 11:49:17 3.7 C 35 %
648 20-11-2019 11:59:17 4.3 C 31 %
649 20-11-2019 12:09:17 3.9 C 30 %
650 20-11-2019 12:19:17 4.3 C 30 %
Sensor: Nr:Datum:Temp:Feuchte:
Aussen-T/F 651 20-11-2019 12:29:17 4.5 C 30 %
652 20-11-2019 12:39:17 4.5 C 27 %
653 20-11-2019 12:49:17 4.6 C 26 %
654 20-11-2019 12:59:17 4.5 C 26 %
655 20-11-2019 13:09:17 4.7 C 25 %
656 20-11-2019 13:19:17 4.5 C 23 %
657 20-11-2019 13:29:17 4.4 C 23 %
658 20-11-2019 13:39:17 4.7 C 20 %
659 20-11-2019 13:49:17 5.1 C 20 %
660 20-11-2019 13:59:17 4.8 C 20 %
661 20-11-2019 14:09:17 4.8 C 20 %
662 20-11-2019 14:19:17 4.8 C 20 %
663 20-11-2019 14:29:17 4.7 C 20 %
664 20-11-2019 14:39:17 4.7 C 20 %
665 20-11-2019 14:49:17 4.7 C 20 %
666 20-11-2019 14:59:17 4.7 C 20 %
667 20-11-2019 15:09:17 4.7 C 20 %
668 20-11-2019 15:19:17 4.7 C 20 %
669 20-11-2019 15:29:17 4.6 C 20 %
670 20-11-2019 15:39:17 4.5 C 20 %
671 20-11-2019 15:49:17 4.3 C 21 %
672 20-11-2019 15:59:17 3.4 C 26 %
673 20-11-2019 16:09:17 2.7 C 28 %
674 20-11-2019 16:19:17 2.2 C 29 %
675 20-11-2019 16:29:17 1.8 C 30 %
Sensor: Nr:Datum:Temp:Feuchte:
Aussen-T/F 676 20-11-2019 16:39:17 1.8 C 30 %
677 20-11-2019 16:49:17 1.5 C 32 %
678 20-11-2019 16:59:17 1.5 C 32 %
679 20-11-2019 17:09:17 1.7 C 32 %
680 20-11-2019 17:19:17 1.8 C 34 %
681 20-11-2019 17:29:17 1.7 C 35 %
682 20-11-2019 17:39:17 0.9 C 35 %
683 20-11-2019 17:49:17 0.5 C 38 %
684 20-11-2019 17:59:17 0.6 C 40 %
685 20-11-2019 18:09:17 0.3 C 40 %
686 20-11-2019 18:19:17 0.2 C 41 %
687 20-11-2019 18:29:17 0.1 C 40 %
688 20-11-2019 18:39:17 0 C 41 %
689 20-11-2019 18:49:17 -0.2 C 41 %
690 20-11-2019 18:59:17 -0.7 C 41 %
691 20-11-2019 19:09:17 -0.9 C 41 %
692 20-11-2019 19:19:17 -1.1 C 41 %
693 20-11-2019 19:29:17 -1.2 C 41 %
694 20-11-2019 19:39:18 -1.2 C 42 %
695 20-11-2019 19:49:18 -1.4 C 42 %
696 20-11-2019 19:59:18 -1.5 C 42 %
697 20-11-2019 20:09:18 -1.6 C 42 %
698 20-11-2019 20:19:17 -1.7 C 42 %
699 20-11-2019 20:29:17 -1.4 C 43 %
700 20-11-2019 20:39:17 -1.4 C 43 %
Sensor: Nr:Datum:Temp:Feuchte:
Aussen-T/F 701 20-11-2019 20:59:17 -1.7 C 43 %
702 20-11-2019 20:59:17 -1.8 C 43 %
703 20-11-2019 21:09:17 -1.8 C 42 %
704 20-11-2019 21:19:17 -2 C 42 %
705 20-11-2019 21:29:17 -2.1 C 42 %
706 20-11-2019 21:39:17 -2.1 C 42 %
707 20-11-2019 21:49:17 -2.3 C 42 %
708 20-11-2019 21:59:17 -2.1 C 42 %
709 20-11-2019 22:09:17 -2 C 43 %
710 20-11-2019 22:19:17 -2.1 C 42 %
711 20-11-2019 22:29:17 -2.2 C 42 %
712 20-11-2019 22:39:17 -2.1 C 42 %
713 20-11-2019 22:49:17 -1.8 C 43 %
714 20-11-2019 22:59:17 -1.7 C 43 %
715 20-11-2019 23:09:17 -1.6 C 43 %
716 20-11-2019 23:19:17 -1.4 C 43 %
717 20-11-2019 23:29:17 -1.6 C 43 %
718 20-11-2019 23:39:17 -1.3 C 43 %
719 20-11-2019 23:49:17 -1.1 C 43 %
720 20-11-2019 23:59:17 -1.1 C 43 %
721 21-11-2019 00:09:17 -1.3 C 43 %
722 21-11-2019 00:29:17 -1.8 C 42 %
723 21-11-2019 00:30:17 -1.9 C 42 %
724 21-11-2019 00:39:17 -2 C 41 %
725 21-11-2019 00:50:17 -2.1 C 41 %
Sensor: Nr:Datum:Temp:Feuchte:
Aussen-T/F 726 21-11-2019 01:00:17 -2.4 C 41 %
727 21-11-2019 01:10:17 -2.4 C 41 %
728 21-11-2019 01:20:17 -2.5 C 41 %
729 21-11-2019 01:30:17 -2.3 C 41 %
730 21-11-2019 01:40:17 -2.7 C 40 %
731 21-11-2019 01:50:17 -2.6 C 41 %
732 21-11-2019 02:00:17 -2.6 C 40 %
733 21-11-2019 02:10:17 -2.7 C 40 %
734 21-11-2019 02:20:17 -2.2 C 42 %
735 21-11-2019 02:30:17 -2.3 C 42 %
736 21-11-2019 02:40:17 -1.9 C 42 %
737 21-11-2019 02:50:17 -2.1 C 42 %
738 21-11-2019 03:00:17 -2.2 C 41 %
739 21-11-2019 03:10:17 -2.4 C 41 %
740 21-11-2019 03:20:17 -2.3 C 41 %
741 21-11-2019 03:30:17 -2.1 C 42 %
742 21-11-2019 03:40:17 -1.8 C 42 %
743 21-11-2019 03:50:17 -1.6 C 42 %
744 21-11-2019 04:00:17 -1.5 C 42 %
745 21-11-2019 04:10:17 -1.3 C 43 %
746 21-11-2019 04:20:17 -1.1 C 43 %
747 21-11-2019 04:30:17 -1 C 43 %
748 21-11-2019 04:40:17 -1 C 43 %
749 21-11-2019 04:50:17 -1 C 43 %
750 21-11-2019 05:00:17 -1 C 43 %
Sensor: Nr:Datum:Temp:Feuchte:
Aussen-T/F 751 21-11-2019 05:10:17 -0.7 C 43 %
752 21-11-2019 05:20:17 -0.6 C 43 %
753 21-11-2019 05:30:17 -0.6 C 43 %
754 21-11-2019 05:40:17 -0.5 C 43 %
755 21-11-2019 05:50:17 -0.4 C 43 %
756 21-11-2019 06:00:17 -0.3 C 43 %
757 21-11-2019 06:10:17 -0.3 C 43 %
758 21-11-2019 06:20:17 -0.3 C 43 %
759 21-11-2019 06:30:17 -0.3 C 43 %
760 21-11-2019 06:40:17 -0.3 C 43 %
761 21-11-2019 06:50:17 -0.2 C 43 %
762 21-11-2019 07:00:17 -0.2 C 43 %
763 21-11-2019 07:10:17 -0.2 C 43 %
764 21-11-2019 07:20:17 -0.1 C 43 %
765 21-11-2019 07:30:17 -0.2 C 43 %
766 21-11-2019 07:40:17 -0.2 C 43 %
767 21-11-2019 07:50:17 -0.1 C 43 %
768 21-11-2019 08:00:17 -0.1 C 43 %
769 21-11-2019 08:10:17 0 C 43 %
770 21-11-2019 08:20:17 0 C 43 %
771 21-11-2019 08:30:17 0.1 C 43 %
772 21-11-2019 08:40:17 0.2 C 43 %
773 21-11-2019 08:50:17 0.2 C 43 %
774 21-11-2019 09:00:17 0.2 C 43 %
775 21-11-2019 09:10:17 0.3 C 43 %
Sensor: Nr:Datum:Temp:Feuchte:
Aussen-T/F 776 21-11-2019 09:20:17 0.4 C 43 %
777 21-11-2019 09:30:17 0.6 C 43 %
778 21-11-2019 09:40:17 0.8 C 43 %
779 21-11-2019 09:50:17 1.1 C 42 %
780 21-11-2019 10:00:17 1.1 C 41 %
781 21-11-2019 10:10:17 1.2 C 40 %
782 21-11-2019 10:20:17 1.6 C 40 %
783 21-11-2019 10:30:17 1.5 C 39 %
784 21-11-2019 10:40:17 1.5 C 39 %
785 21-11-2019 10:50:17 1.7 C 38 %
786 21-11-2019 11:00:17 2.1 C 37 %
787 21-11-2019 11:10:17 2.2 C 37 %
788 21-11-2019 11:20:17 2.3 C 34 %
789 21-11-2019 11:30:17 2.5 C 33 %
790 21-11-2019 11:40:17 2.7 C 33 %
791 21-11-2019 11:50:17 3 C 32 %
792 21-11-2019 12:00:17 2.8 C 32 %
793 21-11-2019 12:10:17 2.5 C 33 %
794 21-11-2019 12:20:17 2.6 C 34 %
795 21-11-2019 12:30:18 2.8 C 35 %
796 21-11-2019 12:40:18 3.1 C 35 %
797 21-11-2019 12:50:18 3.3 C 34 %
798 21-11-2019 13:00:17 3.1 C 31 %
799 21-11-2019 13:10:17 3.7 C 34 %
800 21-11-2019 13:20:17 3.9 C 31 %
Sensor: Nr:Datum:Temp:Feuchte:
Aussen-T/F 801 21-11-2019 13:30:17 4.1 C 32 %
802 21-11-2019 13:40:17 4 C 31 %
803 21-11-2019 13:50:17 3.9 C 32 %
804 21-11-2019 14:00:17 3.9 C 31 %
805 21-11-2019 14:10:17 3.9 C 30 %
806 21-11-2019 14:20:17 4.2 C 31 %
807 21-11-2019 14:30:17 4.4 C 31 %
808 21-11-2019 14:40:17 4.4 C 30 %
809 21-11-2019 14:50:17 4.1 C 29 %
810 21-11-2019 15:00:17 4.1 C 30 %
811 21-11-2019 15:10:17 4.2 C 29 %
812 21-11-2019 15:20:17 4.4 C 30 %
813 21-11-2019 15:30:17 4.3 C 30 %
814 21-11-2019 15:40:17 4.2 C 29 %
815 21-11-2019 15:50:17 4.3 C 30 %
816 21-11-2019 16:00:17 4.3 C 30 %
817 21-11-2019 16:10:17 4.2 C 31 %
818 21-11-2019 16:20:17 4 C 33 %
819 21-11-2019 16:30:17 3.9 C 36 %
820 21-11-2019 16:40:17 3.7 C 37 %
821 21-11-2019 16:50:17 3.7 C 39 %
822 21-11-2019 17:00:17 3.6 C 39 %
823 21-11-2019 17:10:17 3.6 C 38 %
824 21-11-2019 17:20:17 3.5 C 39 %
825 21-11-2019 17:30:17 3.4 C 39 %
Sensor: Nr:Datum:Temp:Feuchte:
Aussen-T/F 826 21-11-2019 17:40:17 3.4 C 39 %
827 21-11-2019 17:50:17 3.3 C 39 %
828 21-11-2019 18:00:17 3.3 C 39 %
829 21-11-2019 18:10:17 3.3 C 39 %
830 21-11-2019 18:20:17 3.3 C 38 %
831 21-11-2019 18:30:17 3.3 C 39 %
832 21-11-2019 18:40:17 3.4 C 39 %
833 21-11-2019 18:50:17 3.3 C 40 %
834 21-11-2019 19:00:17 3.3 C 40 %
835 21-11-2019 19:10:17 3.2 C 40 %
836 21-11-2019 19:20:17 3 C 39 %
837 21-11-2019 19:30:17 3 C 40 %
838 21-11-2019 19:40:17 3.1 C 41 %
839 21-11-2019 19:50:17 2.9 C 41 %
840 21-11-2019 20:00:17 2.5 C 40 %
841 21-11-2019 20:10:17 2 C 40 %
842 21-11-2019 20:20:17 1.9 C 42 %
843 21-11-2019 20:30:17 2.1 C 42 %
844 21-11-2019 20:40:17 1.6 C 42 %
845 21-11-2019 20:50:17 1.5 C 42 %
846 21-11-2019 21:00:17 1.6 C 43 %
847 21-11-2019 21:10:17 1.6 C 43 %
848 21-11-2019 21:20:17 1.3 C 43 %
849 21-11-2019 21:30:17 1.3 C 43 %
850 21-11-2019 21:40:17 1.5 C 43 %
Sensor: Nr:Datum:Temp:Feuchte:
Aussen-T/F 851 21-11-2019 21:50:17 1.2 C 43 %
852 21-11-2019 22:00:17 1 C 42 %
853 21-11-2019 22:10:17 0.8 C 44 %
854 21-11-2019 22:20:17 1.2 C 43 %
855 21-11-2019 22:30:17 0.9 C 44 %
856 21-11-2019 22:40:17 0.8 C 44 %
857 21-11-2019 22:50:17 1 C 43 %
858 21-11-2019 23:00:17 1.1 C 43 %
859 21-11-2019 23:10:17 1.4 C 43 %
860 21-11-2019 23:20:17 1 C 43 %
861 21-11-2019 23:30:17 1 C 43 %
862 21-11-2019 23:40:17 1.5 C 43 %
863 21-11-2019 23:50:17 1.5 C 43 %
864 22-11-2019 00:00:17 1.3 C 43 %
865 22-11-2019 00:10:17 1.3 C 43 %
866 22-11-2019 00:20:17 1.3 C 43 %
867 22-11-2019 00:30:17 1.3 C 43 %
868 22-11-2019 00:40:17 1 C 42 %
869 22-11-2019 00:50:17 1.1 C 42 %
870 22-11-2019 01:00:17 1 C 42 %
871 22-11-2019 01:10:17 1.2 C 43 %
872 22-11-2019 01:20:17 0.9 C 43 %
873 22-11-2019 01:30:17 1 C 42 %
874 22-11-2019 01:40:17 1 C 42 %
875 22-11-2019 01:50:17 0.6 C 43 %
Sensor: Nr:Datum:Temp:Feuchte:
Aussen-T/F 876 22-11-2019 02:00:17 0.4 C 43 %
877 22-11-2019 02:10:17 0 C 42 %
878 22-11-2019 02:20:17 1 C 42 %
879 22-11-2019 02:30:17 0.8 C 44 %
880 22-11-2019 02:40:17 0.7 C 43 %
881 22-11-2019 02:50:17 0.5 C 43 %
882 22-11-2019 03:00:17 0.6 C 43 %
883 22-11-2019 03:10:17 0.8 C 44 %
884 22-11-2019 03:20:17 0.8 C 43 %
885 22-11-2019 03:30:17 0.6 C 43 %
886 22-11-2019 03:40:17 0.7 C 43 %
887 22-11-2019 03:50:17 1.1 C 42 %
888 22-11-2019 04:00:17 1.1 C 42 %
889 22-11-2019 04:10:17 1.1 C 42 %
890 22-11-2019 04:20:17 1.2 C 42 %
891 22-11-2019 04:30:17 1.3 C 42 %
892 22-11-2019 04:40:17 1.3 C 42 %
893 22-11-2019 04:50:17 1.2 C 42 %
894 22-11-2019 05:00:18 1.4 C 42 %
895 22-11-2019 05:10:18 1.6 C 42 %
896 22-11-2019 05:20:17 1.9 C 42 %
897 22-11-2019 05:30:17 2.1 C 41 %
898 22-11-2019 05:40:17 2.2 C 41 %
899 22-11-2019 05:50:17 2.6 C 41 %
900 22-11-2019 06:00:18 2.5 C 41 %
Sensor: Nr:Datum:Temp:Feuchte:
Aussen-T/F 901 22-11-2019 06:10:18 2.8 C 41 %
902 22-11-2019 06:20:18 2.6 C 41 %
903 22-11-2019 06:30:18 2.7 C 41 %
904 22-11-2019 06:40:18 2.9 C 41 %
905 22-11-2019 06:50:18 3 C 41 %
906 22-11-2019 07:00:17 3 C 41 %
907 22-11-2019 07:10:17 3 C 41 %
908 22-11-2019 07:20:17 3.1 C 41 %
909 22-11-2019 07:30:17 3.2 C 41 %
910 22-11-2019 07:40:17 3.4 C 41 %
911 22-11-2019 07:50:17 3.4 C 41 %
912 22-11-2019 08:00:17 3.4 C 41 %
913 22-11-2019 08:10:17 3.5 C 41 %
914 22-11-2019 08:20:17 3.7 C 41 %
915 22-11-2019 08:30:17 3.8 C 41 %
916 22-11-2019 08:40:17 3.7 C 41 %
917 22-11-2019 08:50:17 3.7 C 41 %
918 22-11-2019 09:00:17 3.9 C 41 %
919 22-11-2019 09:10:17 3.9 C 40 %
920 22-11-2019 09:20:17 4 C 39 %
921 22-11-2019 09:30:17 3.8 C 39 %
922 22-11-2019 09:40:17 3.7 C 39 %
923 22-11-2019 09:50:17 3.5 C 39 %
924 22-11-2019 10:00:17 3.3 C 39 %
925 22-11-2019 10:10:17 3.5 C 40 %
Sensor: Nr:Datum:Temp:Feuchte:
Aussen-T/F 926 22-11-2019 10:20:17 3.5 C 39 %
927 22-11-2019 10:30:17 3.6 C 40 %
928 22-11-2019 10:40:17 4.1 C 39 %
929 22-11-2019 10:50:17 4.3 C 39 %
930 22-11-2019 11:00:17 4.2 C 38 %
931 22-11-2019 11:10:17 4.4 C 38 %
932 22-11-2019 11:20:17 4.5 C 37 %
933 22-11-2019 11:30:17 5 C 35 %
934 22-11-2019 11:40:17 5.3 C 33 %
935 22-11-2019 11:50:17 5.3 C 32 %
936 22-11-2019 12:00:17 5.6 C 32 %
937 22-11-2019 12:10:17 5.5 C 32 %
938 22-11-2019 12:20:17 5.6 C 32 %
939 22-11-2019 12:30:17 5.6 C 32 %
940 22-11-2019 12:40:17 5.8 C 32 %
941 22-11-2019 12:50:17 5.8 C 31 %
942 22-11-2019 13:00:17 5.7 C 30 %
943 22-11-2019 13:10:17 5.9 C 31 %
944 22-11-2019 13:20:17 6 C 30 %
945 22-11-2019 13:30:17 5.7 C 29 %
946 22-11-2019 13:40:17 5.5 C 29 %
947 22-11-2019 13:50:17 5.5 C 29 %
948 22-11-2019 14:00:17 5.5 C 29 %
949 22-11-2019 14:10:17 5.7 C 29 %
950 22-11-2019 14:20:17 5.7 C 28 %
Sensor: Nr:Datum:Temp:Feuchte:
Aussen-T/F 951 22-11-2019 14:30:17 5.9 C 28 %
952 22-11-2019 14:40:17 5.8 C 27 %
953 22-11-2019 14:50:17 5.8 C 28 %
954 22-11-2019 15:00:17 5.6 C 28 %
955 22-11-2019 15:10:17 5.6 C 28 %
956 22-11-2019 15:20:17 5.6 C 29 %
957 22-11-2019 15:30:17 5.5 C 28 %
958 22-11-2019 15:40:17 5.4 C 29 %
959 22-11-2019 15:50:17 5.4 C 29 %
960 22-11-2019 16:00:17 5.3 C 29 %
961 22-11-2019 16:10:17 5.3 C 30 %
962 22-11-2019 16:20:17 5.2 C 30 %
963 22-11-2019 16:30:17 5.2 C 30 %
964 22-11-2019 16:40:17 5.1 C 31 %
965 22-11-2019 16:50:17 5 C 31 %
966 22-11-2019 17:00:17 4.9 C 32 %
967 22-11-2019 17:10:17 4.9 C 33 %
968 22-11-2019 17:20:17 4.8 C 34 %
969 22-11-2019 17:30:17 4.9 C 33 %
970 22-11-2019 17:40:17 4.9 C 32 %
971 22-11-2019 17:50:17 5 C 31 %
972 22-11-2019 18:00:17 5 C 30 %
973 22-11-2019 18:10:17 4.8 C 32 %
974 22-11-2019 18:20:17 4.7 C 34 %
975 22-11-2019 18:30:17 4.8 C 33 %
Sensor: Nr:Datum:Temp:Feuchte:
Aussen-T/F 976 22-11-2019 18:40:17 4.8 C 32 %
977 22-11-2019 18:50:17 4.8 C 32 %
978 22-11-2019 19:00:17 4.8 C 31 %
979 22-11-2019 19:10:17 4.7 C 32 %
980 22-11-2019 19:20:17 4.8 C 30 %
981 22-11-2019 19:30:17 4.8 C 30 %
982 22-11-2019 19:40:17 4.8 C 30 %
983 22-11-2019 19:50:17 4.7 C 31 %
984 22-11-2019 20:00:17 4.6 C 31 %
985 22-11-2019 20:10:17 4.6 C 30 %
986 22-11-2019 20:20:17 4.6 C 30 %
987 22-11-2019 20:30:17 4.5 C 30 %
988 22-11-2019 20:40:17 4.5 C 30 %
989 22-11-2019 20:50:17 4.3 C 30 %
990 22-11-2019 21:00:17 4.3 C 30 %
991 22-11-2019 21:10:17 4.4 C 31 %
992 22-11-2019 21:20:17 4.3 C 31 %
993 22-11-2019 21:30:17 4.3 C 31 %
994 22-11-2019 21:40:17 4.3 C 31 %
995 22-11-2019 21:50:17 4.3 C 30 %
996 22-11-2019 22:00:17 4.2 C 31 %
997 22-11-2019 22:10:17 4.2 C 31 %
998 22-11-2019 22:20:17 4.2 C 30 %
999 22-11-2019 22:30:17 4.2 C 30 %
1000 22-11-2019 22:40:17 4.2 C 29 %
Sensor: Nr:Datum:Temp:Feuchte:
Aussen-T/F 1001 22-11-2019 22:50:17 4.1 C 30 %
1002 22-11-2019 23:00:17 4 C 30 %
1003 22-11-2019 23:10:17 4.1 C 28 %
1004 22-11-2019 23:20:17 4 C 30 %
1005 22-11-2019 23:30:17 4 C 30 %
1006 22-11-2019 23:40:17 4 C 30 %
1007 22-11-2019 23:50:17 3.9 C 31 %
1008 23-11-2019 00:00:17 4 C 29 %
1009 23-11-2019 00:10:17 4 C 29 %
1010 23-11-2019 00:20:17 4 C 29 %
1011 23-11-2019 00:30:17 4 C 29 %
1012 23-11-2019 00:40:17 4 C 28 %
1013 23-11-2019 00:50:17 4 C 29 %
1014 23-11-2019 01:00:17 4.1 C 28 %
1015 23-11-2019 01:10:17 4.2 C 27 %
1016 23-11-2019 01:20:17 4.1 C 29 %
1017 23-11-2019 01:30:17 4 C 30 %
1018 23-11-2019 01:40:17 4.1 C 29 %
1019 23-11-2019 01:50:17 4 C 29 %
1020 23-11-2019 02:00:17 4.1 C 27 %
1021 23-11-2019 02:10:17 4.1 C 27 %
1022 23-11-2019 02:20:17 4 C 30 %
1023 23-11-2019 02:30:18 3.8 C 32 %
1024 23-11-2019 02:40:18 3.7 C 32 %
1025 23-11-2019 02:50:17 3.6 C 32 %
Sensor: Nr:Datum:Temp:Feuchte:
Aussen-T/F 1026 23-11-2019 03:00:17 3.6 C 33 %
1027 23-11-2019 03:10:17 3.7 C 32 %
1028 23-11-2019 03:20:17 3.8 C 31 %
1029 23-11-2019 03:30:17 3.7 C 32 %
1030 23-11-2019 03:40:17 3.5 C 33 %
1031 23-11-2019 03:50:17 3.2 C 34 %
1032 23-11-2019 04:00:17 3.2 C 35 %
1033 23-11-2019 04:10:17 3.1 C 38 %
1034 23-11-2019 04:20:17 3.3 C 36 %
1035 23-11-2019 04:30:17 3 C 36 %
1036 23-11-2019 04:40:17 3 C 37 %
1037 23-11-2019 04:50:17 3 C 37 %
1038 23-11-2019 05:00:17 3 C 38 %
1039 23-11-2019 05:10:17 3 C 39 %
1040 23-11-2019 05:20:17 2.7 C 39 %
1041 23-11-2019 05:30:17 2.9 C 40 %
1042 23-11-2019 05:40:17 2.8 C 40 %
1043 23-11-2019 05:50:17 2.9 C 40 %
1044 23-11-2019 06:00:17 3 C 39 %
1045 23-11-2019 06:10:17 3 C 39 %
1046 23-11-2019 06:20:17 3 C 39 %
1047 23-11-2019 06:30:17 3 C 40 %
1048 23-11-2019 06:40:17 3.1 C 40 %
1049 23-11-2019 06:50:17 3 C 40 %
1050 23-11-2019 07:00:17 3.2 C 40 %
Sensor: Nr:Datum:Temp:Feuchte:
Aussen-T/F 1051 23-11-2019 07:10:17 3.2 C 39 %
1052 23-11-2019 07:20:17 3.3 C 40 %
1053 23-11-2019 07:30:17 3.2 C 39 %
1054 23-11-2019 07:40:17 3.3 C 40 %
1055 23-11-2019 07:50:17 3.2 C 40 %
1056 23-11-2019 08:00:17 3.3 C 39 %
1057 23-11-2019 08:10:17 3.3 C 40 %
1058 23-11-2019 08:20:17 3.2 C 40 %
1059 23-11-2019 08:30:17 3.3 C 40 %
1060 23-11-2019 08:40:17 3.4 C 40 %
1061 23-11-2019 08:50:17 3.8 C 37 %
1062 23-11-2019 09:00:17 4.2 C 33 %
1063 23-11-2019 09:10:17 4.3 C 33 %
1064 23-11-2019 09:20:17 4.5 C 33 %
1065 23-11-2019 09:30:17 4.9 C 31 %
1066 23-11-2019 09:40:17 5.1 C 31 %
1067 23-11-2019 09:50:17 5.4 C 27 %
1068 23-11-2019 10:00:17 5.4 C 26 %
1069 23-11-2019 10:10:17 5.7 C 26 %
1070 23-11-2019 10:20:17 6 C 26 %
1071 23-11-2019 10:30:17 6 C 25 %
1072 23-11-2019 10:40:17 6.1 C 26 %
1073 23-11-2019 10:50:17 6.2 C 25 %
1074 23-11-2019 11:00:17 6.4 C 25 %
1075 23-11-2019 11:10:17 6.6 C 25 %
Sensor: Nr:Datum:Temp:Feuchte:
Aussen-T/F 1076 23-11-2019 11:20:17 6.7 C 25 %
1077 23-11-2019 11:30:17 7.1 C 21 %
1078 23-11-2019 11:40:17 7.1 C 23 %
1079 23-11-2019 11:50:17 7 C 25 %
1080 23-11-2019 12:00:17 6.4 C 28 %
1081 23-11-2019 12:10:17 6.4 C 28 %
1082 23-11-2019 12:20:17 6.5 C 27 %
1083 23-11-2019 12:30:17 6.5 C 28 %
1084 23-11-2019 12:40:17 6.5 C 29 %
1085 23-11-2019 12:50:17 7.3 C 25 %
1086 23-11-2019 13:00:17 7.3 C 25 %
1087 23-11-2019 13:10:17 6.7 C 28 %
1088 23-11-2019 13:20:17 6.8 C 29 %
1089 23-11-2019 13:30:17 6.6 C 29 %
1090 23-11-2019 13:40:17 6.6 C 30 %
1091 23-11-2019 13:50:17 6.6 C 30 %
1092 23-11-2019 14:00:17 6.6 C 30 %
1093 23-11-2019 14:10:17 6.8 C 30 %
1094 23-11-2019 14:20:17 7 C 29 %
1095 23-11-2019 14:30:17 7.2 C 27 %
1096 23-11-2019 14:40:17 7.1 C 28 %
1097 23-11-2019 14:50:17 7.2 C 28 %
1098 23-11-2019 15:00:17 7.7 C 26 %
1099 23-11-2019 15:10:17 8.1 C 26 %
1100 23-11-2019 15:20:17 8.4 C 23 %
Sensor: Nr:Datum:Temp:Feuchte:
Aussen-T/F 1101 23-11-2019 15:30:17 8.4 C 25 %
1102 23-11-2019 15:40:17 8.1 C 25 %
1103 23-11-2019 15:50:17 7.5 C 26 %
1104 23-11-2019 16:00:17 7.5 C 26 %
1105 23-11-2019 16:10:17 7.3 C 25 %
1106 23-11-2019 16:20:17 7.3 C 25 %
1107 23-11-2019 16:30:17 6.5 C 28 %
1108 23-11-2019 16:40:17 5.9 C 31 %
1109 23-11-2019 16:50:17 5.7 C 32 %
1110 23-11-2019 17:00:17 5.7 C 32 %
1111 23-11-2019 17:10:17 5.8 C 31 %
1112 23-11-2019 17:20:17 5.6 C 32 %
1113 23-11-2019 17:30:17 5.5 C 33 %
1114 23-11-2019 17:40:17 5.3 C 32 %
1115 23-11-2019 17:50:17 5.3 C 33 %
1116 23-11-2019 18:00:17 5.3 C 33 %
1117 23-11-2019 18:10:17 5 C 34 %
1118 23-11-2019 18:20:17 5.3 C 34 %
1119 23-11-2019 18:30:17 5.3 C 34 %
1120 23-11-2019 18:40:17 5.3 C 34 %
1121 23-11-2019 18:50:17 4.9 C 36 %
1122 23-11-2019 19:00:17 5.1 C 35 %
1123 23-11-2019 19:10:17 5 C 36 %
1124 23-11-2019 19:20:17 5 C 36 %
1125 23-11-2019 19:30:17 5 C 36 %
Sensor: Nr:Datum:Temp:Feuchte:
Aussen-T/F 1126 23-11-2019 19:40:17 4.7 C 36 %
1127 23-11-2019 19:50:17 4.7 C 38 %
1128 23-11-2019 20:00:17 4.5 C 40 %
1129 23-11-2019 20:10:17 4.2 C 39 %
1130 23-11-2019 20:20:17 4.1 C 40 %
1131 23-11-2019 20:30:17 3.6 C 40 %
1132 23-11-2019 20:40:18 3.6 C 40 %
1133 23-11-2019 20:50:17 3.6 C 42 %
1134 23-11-2019 21:00:17 3.6 C 42 %
1135 23-11-2019 21:10:17 3.5 C 42 %
1136 23-11-2019 21:20:17 3.3 C 41 %
1137 23-11-2019 21:30:17 3.2 C 41 %
1138 23-11-2019 21:40:17 3.2 C 42 %
1139 23-11-2019 21:50:17 3.2 C 42 %
1140 23-11-2019 22:00:17 3.1 C 42 %
1141 23-11-2019 22:10:17 2.8 C 42 %
1142 23-11-2019 22:20:17 2.6 C 42 %
1143 23-11-2019 22:30:17 2.7 C 42 %
1144 23-11-2019 22:40:17 2.6 C 42 %
1145 23-11-2019 22:50:17 2.6 C 42 %
1146 23-11-2019 23:00:17 2.5 C 42 %
1147 23-11-2019 23:10:17 2.2 C 42 %
1148 23-11-2019 23:20:17 2.2 C 42 %
1149 23-11-2019 23:30:17 2 C 42 %
1150 23-11-2019 23:40:17 2.1 C 42 %
Sensor: Nr:Datum:Temp:Feuchte:
Aussen-T/F 1151 23-11-2019 23:50:17 2.1 C 42 %
1152 24-11-2019 00:00:17 1.9 C 43 %
1153 24-11-2019 00:10:17 1.7 C 43 %
1154 24-11-2019 00:20:17 1.7 C 43 %
1155 24-11-2019 00:30:17 1.6 C 43 %
1156 24-11-2019 00:40:17 1.4 C 42 %
1157 24-11-2019 00:50:18 1.1 C 42 %
1158 24-11-2019 01:00:18 1.2 C 43 %
1159 24-11-2019 01:10:18 1.4 C 43 %
1160 24-11-2019 01:20:17 1.3 C 43 %
1161 24-11-2019 01:30:17 1.2 C 42 %
1162 24-11-2019 01:40:17 1.2 C 43 %
1163 24-11-2019 01:50:17 1.1 C 43 %
1164 24-11-2019 02:00:17 1.1 C 43 %
1165 24-11-2019 02:10:17 1.1 C 43 %
1166 24-11-2019 02:20:17 1.2 C 43 %
1167 24-11-2019 02:30:17 1 C 42 %
1168 24-11-2019 02:40:17 1.1 C 42 %
1169 24-11-2019 02:50:17 1.1 C 42 %
1170 24-11-2019 03:00:17 0.9 C 44 %
1171 24-11-2019 03:10:17 1.1 C 43 %
1172 24-11-2019 03:20:17 1.2 C 42 %
1173 24-11-2019 03:30:17 1 C 42 %
1174 24-11-2019 03:40:17 0.7 C 43 %
1175 24-11-2019 03:50:17 0.6 C 43 %
Sensor: Nr:Datum:Temp:Feuchte:
Aussen-T/F 1176 24-11-2019 04:00:17 0.5 C 43 %
1177 24-11-2019 04:10:17 0.5 C 43 %
1178 24-11-2019 04:20:17 0.6 C 43 %
1179 24-11-2019 04:30:17 0.5 C 43 %
1180 24-11-2019 04:40:17 0.5 C 43 %
1181 24-11-2019 04:50:17 0.6 C 44 %
1182 24-11-2019 05:00:17 0.6 C 44 %
1183 24-11-2019 05:10:17 0.8 C 44 %
1184 24-11-2019 05:20:17 1 C 42 %
1185 24-11-2019 05:30:17 1.1 C 42 %
1186 24-11-2019 05:40:17 1 C 42 %
1187 24-11-2019 05:50:17 0.6 C 43 %
1188 24-11-2019 06:00:18 0.4 C 43 %
1189 24-11-2019 06:10:18 0.5 C 43 %
1190 24-11-2019 06:20:17 0.5 C 43 %
1191 24-11-2019 06:30:17 0.5 C 43 %
1192 24-11-2019 06:40:17 0.5 C 43 %
1193 24-11-2019 06:50:17 0.3 C 43 %
1194 24-11-2019 07:00:18 0.4 C 43 %
1195 24-11-2019 07:10:18 0.1 C 43 %
1196 24-11-2019 07:20:18 0.1 C 43 %
1197 24-11-2019 07:30:17 0.1 C 43 %
1198 24-11-2019 07:40:17 -0.3 C 43 %
1199 24-11-2019 07:50:18 -0.3 C 43 %
1200 24-11-2019 08:00:18 -0.1 C 43 %
Sensor: Nr:Datum:Temp:Feuchte:
Aussen-T/F 1201 24-11-2019 08:10:18 0.1 C 43 %
1202 24-11-2019 08:20:17 -0.1 C 43 %
1203 24-11-2019 08:30:17 0.3 C 43 %
1204 24-11-2019 08:40:17 0.5 C 43 %
1205 24-11-2019 08:50:17 0.5 C 43 %
1206 24-11-2019 09:00:17 0.6 C 43 %
1207 24-11-2019 09:10:17 0.7 C 43 %
1208 24-11-2019 09:20:17 0.8 C 43 %
1209 24-11-2019 09:30:17 0.8 C 43 %
1210 24-11-2019 09:40:17 1 C 42 %
1211 24-11-2019 09:50:17 1.1 C 42 %
1212 24-11-2019 10:00:17 1.2 C 42 %
1213 24-11-2019 10:10:17 1.5 C 42 %
1214 24-11-2019 10:20:17 1.7 C 42 %
1215 24-11-2019 10:30:17 2 C 42 %
1216 24-11-2019 10:40:17 2.2 C 41 %
1217 24-11-2019 10:50:17 2.7 C 42 %
1218 24-11-2019 11:00:17 2.5 C 41 %
1219 24-11-2019 11:10:17 2.1 C 40 %
1220 24-11-2019 11:20:17 2.2 C 40 %
1221 24-11-2019 11:30:17 2.2 C 40 %
1222 24-11-2019 11:40:17 2.3 C 40 %
1223 24-11-2019 11:50:17 2.5 C 40 %
1224 24-11-2019 12:00:17 2.7 C 41 %
1225 24-11-2019 12:10:17 3 C 40 %
Sensor: Nr:Datum:Temp:Feuchte:
Aussen-T/F 1226 24-11-2019 12:20:17 3.4 C 40 %
1227 24-11-2019 12:30:17 3.8 C 40 %
1228 24-11-2019 12:40:17 4 C 38 %
1229 24-11-2019 12:50:17 4.2 C 38 %
1230 24-11-2019 13:00:17 4.6 C 38 %
1231 24-11-2019 13:10:17 5.1 C 35 %
1232 24-11-2019 13:20:17 5 C 35 %
1233 24-11-2019 13:30:17 5 C 35 %
1234 24-11-2019 13:40:17 4.7 C 35 %
1235 24-11-2019 13:50:17 4.8 C 35 %
1236 24-11-2019 14:00:17 5.1 C 35 %
1237 24-11-2019 14:10:17 5.1 C 35 %
1238 24-11-2019 14:20:17 5 C 35 %
1239 24-11-2019 14:30:17 4.8 C 37 %
1240 24-11-2019 14:40:17 4.6 C 37 %
1241 24-11-2019 14:50:17 4.6 C 39 %
1242 24-11-2019 15:00:17 4.5 C 38 %
1243 24-11-2019 15:10:17 4.7 C 40 %
1244 24-11-2019 15:20:17 4.9 C 39 %
1245 24-11-2019 15:30:17 4.8 C 38 %
1246 24-11-2019 15:40:17 4.7 C 38 %
1247 24-11-2019 15:50:17 4.6 C 38 %
1248 24-11-2019 16:00:17 4.5 C 40 %
1249 24-11-2019 16:10:17 4.2 C 39 %
1250 24-11-2019 16:20:17 3.9 C 40 %
Sensor: Nr:Datum:Temp:Feuchte:
Aussen-T/F 1251 24-11-2019 16:30:17 3.7 C 41 %
1252 24-11-2019 16:40:17 3.5 C 41 %
1253 24-11-2019 16:50:17 3.2 C 41 %
1254 24-11-2019 17:00:17 3 C 41 %
1255 24-11-2019 17:10:17 2.8 C 42 %
1256 24-11-2019 17:20:17 2.7 C 42 %
1257 24-11-2019 17:30:17 2.6 C 42 %
1258 24-11-2019 17:40:17 2.4 C 42 %
1259 24-11-2019 17:50:17 2.6 C 43 %
1260 24-11-2019 18:00:17 2.5 C 42 %
1261 24-11-2019 18:10:17 2.8 C 43 %
1262 24-11-2019 18:20:17 2.6 C 42 %
1263 24-11-2019 18:30:17 2.9 C 43 %
1264 24-11-2019 18:40:17 2.6 C 42 %
1265 24-11-2019 18:50:17 2.7 C 42 %
1266 24-11-2019 19:00:17 2.5 C 42 %
1267 24-11-2019 19:10:17 2.6 C 42 %
1268 24-11-2019 19:20:17 2.6 C 42 %
1269 24-11-2019 19:30:17 2.8 C 42 %
1270 24-11-2019 19:40:17 2.7 C 42 %
1271 24-11-2019 19:50:17 2.7 C 42 %
1272 24-11-2019 20:00:17 2.5 C 42 %
1273 24-11-2019 20:10:17 2.4 C 42 %
1274 24-11-2019 20:20:17 2.1 C 41 %
1275 24-11-2019 20:30:17 2 C 41 %
Sensor: Nr:Datum:Temp:Feuchte:
Aussen-T/F 1276 24-11-2019 20:40:17 2 C 41 %
1277 24-11-2019 20:50:17 2 C 42 %
1278 24-11-2019 21:00:17 1.8 C 42 %
1279 24-11-2019 21:10:17 2.2 C 42 %
1280 24-11-2019 21:20:17 2 C 42 %
1281 24-11-2019 21:30:17 2 C 42 %
1282 24-11-2019 21:40:17 1.8 C 43 %
1283 24-11-2019 21:50:17 1.8 C 43 %
1284 24-11-2019 22:00:17 1.7 C 42 %
1285 24-11-2019 22:10:17 1.3 C 42 %
1286 24-11-2019 22:20:17 1.2 C 42 %
1287 24-11-2019 22:30:17 1.2 C 42 %
1288 24-11-2019 22:40:17 1 C 42 %
1289 24-11-2019 22:50:17 1 C 42 %
1290 24-11-2019 23:00:17 1.2 C 42 %
1291 24-11-2019 23:10:17 1 C 42 %
1292 24-11-2019 23:20:17 1 C 42 %
1293 24-11-2019 23:30:17 0.8 C 43 %
1294 24-11-2019 23:40:17 0.8 C 43 %
1295 24-11-2019 23:50:17 0.9 C 43 %
1296 25-11-2019 00:00:18 0.8 C 43 %
1297 25-11-2019 00:10:18 0.9 C 43 %
1298 25-11-2019 00:20:17 1.2 C 42 %
1299 25-11-2019 00:30:17 1.4 C 42 %
1300 25-11-2019 00:40:17 1.5 C 42 %
Sensor: Nr:Datum:Temp:Feuchte:
Aussen-T/F 1301 25-11-2019 00:50:18 1.5 C 42 %
1302 25-11-2019 01:00:18 1.5 C 42 %
1303 25-11-2019 01:10:18 1.5 C 42 %
1304 25-11-2019 01:20:17 1.6 C 42 %
1305 25-11-2019 01:30:17 1.5 C 42 %
1306 25-11-2019 01:40:17 1.4 C 42 %
1307 25-11-2019 01:50:17 1.3 C 42 %
1308 25-11-2019 02:00:17 1.3 C 42 %
1309 25-11-2019 02:10:17 1.3 C 42 %
1310 25-11-2019 02:20:17 1.2 C 42 %
1311 25-11-2019 02:30:17 1.3 C 42 %
1312 25-11-2019 02:40:17 1.4 C 42 %
1313 25-11-2019 02:50:17 1.5 C 42 %
1314 25-11-2019 03:00:17 1.6 C 42 %
1315 25-11-2019 03:10:17 1.5 C 42 %
1316 25-11-2019 03:20:17 1.5 C 42 %
1317 25-11-2019 03:30:17 1.5 C 42 %
1318 25-11-2019 03:40:17 1.6 C 42 %
1319 25-11-2019 03:50:17 1.7 C 42 %
1320 25-11-2019 04:00:17 1.8 C 42 %
1321 25-11-2019 04:10:17 1.8 C 42 %
1322 25-11-2019 04:20:17 1.9 C 42 %
1323 25-11-2019 04:30:17 2 C 41 %
1324 25-11-2019 04:40:17 2.1 C 41 %
1325 25-11-2019 04:50:17 2.1 C 41 %
Sensor: Nr:Datum:Temp:Feuchte:
Aussen-T/F 1326 25-11-2019 05:00:17 2.2 C 41 %
1327 25-11-2019 05:10:17 2.1 C 41 %
1328 25-11-2019 05:20:17 2.2 C 41 %
1329 25-11-2019 05:30:17 2.4 C 41 %
1330 25-11-2019 05:40:17 2.4 C 41 %
1331 25-11-2019 05:50:17 2.5 C 41 %
1332 25-11-2019 06:00:17 2.5 C 41 %
1333 25-11-2019 06:10:17 2.5 C 41 %
1334 25-11-2019 06:20:17 2.5 C 41 %
1335 25-11-2019 06:30:17 2.6 C 41 %
1336 25-11-2019 06:40:17 2.6 C 41 %
1337 25-11-2019 06:50:17 2.8 C 41 %
1338 25-11-2019 07:00:17 2.8 C 41 %
1339 25-11-2019 07:10:17 2.8 C 41 %
1340 25-11-2019 07:20:17 2.8 C 41 %
1341 25-11-2019 07:30:17 2.8 C 41 %
1342 25-11-2019 07:40:17 2.8 C 41 %
1343 25-11-2019 07:50:17 2.8 C 41 %
1344 25-11-2019 08:00:17 2.9 C 41 %
1345 25-11-2019 08:10:17 3 C 41 %
1346 25-11-2019 08:20:17 3.1 C 41 %
1347 25-11-2019 08:30:18 3.2 C 41 %
1348 25-11-2019 08:40:18 3.3 C 42 %
1349 25-11-2019 08:50:17 3.4 C 42 %
1350 25-11-2019 09:00:17 3.6 C 43 %
Sensor: Nr:Datum:Temp:Feuchte:
Aussen-T/F 1351 25-11-2019 09:10:17 3.6 C 43 %
1352 25-11-2019 09:20:17 3.7 C 43 %
1353 25-11-2019 09:30:17 3.6 C 43 %
1354 25-11-2019 09:40:17 3.8 C 43 %
1355 25-11-2019 09:50:17 3.8 C 42 %
1356 25-11-2019 10:00:17 4.1 C 42 %
1357 25-11-2019 10:10:17 4.5 C 43 %
1358 25-11-2019 10:20:17 4.5 C 43 %
1359 25-11-2019 10:30:17 5.1 C 40 %
1360 25-11-2019 10:40:17 5.1 C 38 %
1361 25-11-2019 10:50:17 5.1 C 37 %
1362 25-11-2019 11:00:17 5.1 C 37 %
1363 25-11-2019 11:10:17 5.2 C 37 %
1364 25-11-2019 11:20:17 5.3 C 37 %
1365 25-11-2019 11:30:17 5.4 C 37 %
1366 25-11-2019 11:40:17 5.8 C 37 %
1367 25-11-2019 11:50:17 6.3 C 36 %
1368 25-11-2019 12:00:17 6.1 C 33 %
1369 25-11-2019 12:10:17 6.4 C 33 %
1370 25-11-2019 12:20:17 6.3 C 33 %
1371 25-11-2019 12:30:17 6.3 C 32 %
1372 25-11-2019 12:40:17 6.6 C 32 %
1373 25-11-2019 12:50:17 6.6 C 32 %
1374 25-11-2019 13:00:17 6.7 C 31 %
1375 25-11-2019 13:10:17 6.8 C 33 %
Sensor: Nr:Datum:Temp:Feuchte:
Aussen-T/F 1376 25-11-2019 13:20:17 7 C 32 %
1377 25-11-2019 13:30:17 7 C 32 %
1378 25-11-2019 13:40:17 7 C 33 %
1379 25-11-2019 13:50:17 6.9 C 32 %
1380 25-11-2019 14:00:17 6.9 C 33 %
1381 25-11-2019 14:10:17 6.8 C 31 %
1382 25-11-2019 14:20:17 6.8 C 35 %
1383 25-11-2019 14:30:17 6.8 C 36 %
1384 25-11-2019 14:40:17 6.9 C 36 %
1385 25-11-2019 14:50:17 6.8 C 35 %
1386 25-11-2019 15:00:17 6.7 C 35 %
1387 25-11-2019 15:10:17 6.7 C 35 %
1388 25-11-2019 15:20:17 6.7 C 34 %
1389 25-11-2019 15:30:17 6.7 C 35 %
1390 25-11-2019 15:40:17 6.6 C 33 %
1391 25-11-2019 15:50:17 6.5 C 34 %
1392 25-11-2019 16:00:17 6.5 C 35 %
1393 25-11-2019 16:10:17 6.4 C 36 %
1394 25-11-2019 16:20:17 6.3 C 36 %
1395 25-11-2019 16:30:17 6.2 C 37 %
1396 25-11-2019 16:40:17 6.1 C 38 %
1397 25-11-2019 16:50:17 6.1 C 38 %
1398 25-11-2019 17:00:17 6 C 38 %
1399 25-11-2019 17:10:17 6 C 38 %
1400 25-11-2019 17:20:17 5.9 C 38 %
Sensor: Nr:Datum:Temp:Feuchte:
Aussen-T/F 1401 25-11-2019 17:30:17 5.9 C 39 %
1402 25-11-2019 17:40:17 5.8 C 39 %
1403 25-11-2019 17:50:17 5.9 C 39 %
1404 25-11-2019 18:00:18 5.9 C 39 %
1405 25-11-2019 18:10:18 5.9 C 40 %
1406 25-11-2019 18:20:17 5.9 C 39 %
1407 25-11-2019 18:30:17 5.9 C 40 %
1408 25-11-2019 18:40:17 5.9 C 40 %
1409 25-11-2019 18:50:17 5.8 C 40 %
1410 25-11-2019 19:00:17 5.8 C 39 %
1411 25-11-2019 19:10:17 5.4 C 38 %
1412 25-11-2019 19:20:17 5 C 38 %
1413 25-11-2019 19:30:17 5.1 C 40 %
1414 25-11-2019 19:40:17 5 C 40 %
1415 25-11-2019 19:50:17 5.2 C 40 %
1416 25-11-2019 20:00:17 5.1 C 41 %
1417 25-11-2019 20:10:17 5.3 C 41 %
1418 25-11-2019 20:20:17 5.4 C 41 %
1419 25-11-2019 20:30:17 5.4 C 41 %
1420 25-11-2019 20:40:17 5.2 C 40 %
1421 25-11-2019 20:50:17 5.1 C 40 %
1422 25-11-2019 21:00:17 5.3 C 40 %
1423 25-11-2019 21:10:17 5.1 C 39 %
1424 25-11-2019 21:20:17 5.1 C 39 %
1425 25-11-2019 21:30:17 5.2 C 40 %
Sensor: Nr:Datum:Temp:Feuchte:
Aussen-T/F 1426 25-11-2019 21:40:17 5 C 40 %
1427 25-11-2019 21:50:17 4.7 C 40 %
1428 25-11-2019 22:00:17 4.7 C 40 %
1429 25-11-2019 22:10:17 4.3 C 40 %
1430 25-11-2019 22:20:17 4.1 C 40 %
1431 25-11-2019 22:30:17 3.9 C 41 %
1432 25-11-2019 22:40:17 4.1 C 41 %
1433 25-11-2019 22:50:17 3.8 C 42 %
1434 25-11-2019 23:00:17 3.5 C 42 %
1435 25-11-2019 23:10:17 3.3 C 42 %
1436 25-11-2019 23:20:17 3.1 C 42 %
1437 25-11-2019 23:30:17 2.7 C 42 %
1438 25-11-2019 23:40:17 3 C 42 %
1439 25-11-2019 23:50:17 2.8 C 43 %
1440 26-11-2019 00:00:17 2.3 C 42 %
1441 26-11-2019 00:10:17 2.3 C 42 %
1442 26-11-2019 00:20:17 2.5 C 42 %
1443 26-11-2019 00:30:17 2.4 C 42 %
1444 26-11-2019 00:40:17 2.5 C 43 %
1445 26-11-2019 00:50:17 3.1 C 42 %
1446 26-11-2019 01:00:17 3.3 C 42 %
1447 26-11-2019 01:10:17 3.4 C 42 %
1448 26-11-2019 01:20:17 3.4 C 42 %
1449 26-11-2019 01:30:17 3.4 C 42 %
1450 26-11-2019 01:40:17 3.5 C 42 %
Sensor: Nr:Datum:Temp:Feuchte:
Aussen-T/F 1451 26-11-2019 01:50:17 3.6 C 42 %
1452 26-11-2019 02:00:17 3.8 C 42 %
1453 26-11-2019 02:10:17 3.8 C 42 %
1454 26-11-2019 02:20:17 3.8 C 41 %
1455 26-11-2019 02:30:17 3.8 C 41 %
1456 26-11-2019 02:40:17 3.9 C 41 %
1457 26-11-2019 02:50:17 4.3 C 41 %
1458 26-11-2019 03:00:17 4.5 C 41 %
1459 26-11-2019 03:10:17 4.5 C 41 %
1460 26-11-2019 03:20:17 4.5 C 41 %
1461 26-11-2019 03:30:17 4.1 C 40 %
1462 26-11-2019 03:40:17 4.4 C 40 %
1463 26-11-2019 03:50:17 4.6 C 41 %
1464 26-11-2019 04:00:17 4.8 C 41 %
1465 26-11-2019 04:10:17 5.1 C 40 %
1466 26-11-2019 04:20:17 5.2 C 40 %
1467 26-11-2019 04:30:18 5.2 C 40 %
1468 26-11-2019 04:40:18 5.4 C 40 %
1469 26-11-2019 04:50:17 5.6 C 40 %
1470 26-11-2019 05:00:18 5.7 C 40 %
1471 26-11-2019 05:10:18 5.7 C 40 %
1472 26-11-2019 05:20:17 5.8 C 40 %
1473 26-11-2019 05:30:17 5.8 C 40 %
1474 26-11-2019 05:40:17 5.8 C 40 %
1475 26-11-2019 05:50:17 5.9 C 40 %
Sensor: Nr:Datum:Temp:Feuchte:
Aussen-T/F 1476 26-11-2019 06:00:17 5.9 C 40 %
1477 26-11-2019 06:10:17 5.9 C 40 %
1478 26-11-2019 06:20:17 6 C 39 %
1479 26-11-2019 06:30:17 6.2 C 40 %
1480 26-11-2019 06:40:17 6.2 C 39 %
1481 26-11-2019 06:50:17 6.2 C 39 %
1482 26-11-2019 07:00:17 6.5 C 40 %
1483 26-11-2019 07:10:17 6.5 C 40 %
1484 26-11-2019 07:20:17 6.6 C 39 %
1485 26-11-2019 07:30:17 6.6 C 39 %
1486 26-11-2019 07:40:17 6.6 C 39 %
1487 26-11-2019 07:50:17 6.7 C 39 %
1488 26-11-2019 08:00:17 6.8 C 39 %
1489 26-11-2019 08:10:17 6.9 C 39 %
1490 26-11-2019 08:20:17 6.8 C 38 %
1491 26-11-2019 08:30:17 6.8 C 38 %
1492 26-11-2019 08:40:17 6.7 C 38 %
1493 26-11-2019 08:50:17 6.8 C 38 %
1494 26-11-2019 09:00:17 7 C 37 %
1495 26-11-2019 09:10:17 7.4 C 38 %
1496 26-11-2019 09:20:17 7.6 C 37 %
1497 26-11-2019 09:30:17 7.9 C 36 %
1498 26-11-2019 09:40:17 8.3 C 33 %
1499 26-11-2019 09:50:17 8.5 C 31 %
1500 26-11-2019 10:00:17 8.8 C 32 %
Sensor: Nr:Datum:Temp:Feuchte:
Aussen-T/F 1501 26-11-2019 10:10:17 9.1 C 32 %
1502 26-11-2019 10:20:17 9.4 C 32 %
1503 26-11-2019 10:30:17 9.6 C 32 %
1504 26-11-2019 10:40:17 9.7 C 31 %
1505 26-11-2019 10:50:17 9.9 C 31 %
1506 26-11-2019 11:00:17 10.3 C 29 %
1507 26-11-2019 11:10:17 10.5 C 29 %
1508 26-11-2019 11:20:17 10.6 C 26 %
1509 26-11-2019 11:30:17 10.7 C 26 %
1510 26-11-2019 11:40:17 10.6 C 26 %
1511 26-11-2019 11:50:17 10.5 C 26 %
1512 26-11-2019 12:00:17 10.6 C 27 %
1513 26-11-2019 12:10:17 10.6 C 28 %
1514 26-11-2019 12:20:17 10.4 C 26 %
1515 26-11-2019 12:30:17 10.4 C 27 %
1516 26-11-2019 12:40:17 10.8 C 27 %
1517 26-11-2019 12:50:17 10.7 C 26 %
1518 26-11-2019 13:00:17 10.8 C 27 %
1519 26-11-2019 13:10:17 10.8 C 27 %
1520 26-11-2019 13:20:17 11 C 26 %
1521 26-11-2019 13:30:17 10.8 C 26 %
1522 26-11-2019 13:40:17 10.6 C 26 %
1523 26-11-2019 13:50:17 10.5 C 27 %
1524 26-11-2019 14:00:17 10.2 C 30 %
1525 26-11-2019 14:10:17 10.2 C 30 %
Sensor: Nr:Datum:Temp:Feuchte:
Aussen-T/F 1526 26-11-2019 14:20:17 10.5 C 30 %
1527 26-11-2019 14:30:17 10.2 C 28 %
1528 26-11-2019 14:40:17 10.6 C 28 %
1529 26-11-2019 14:50:17 10.6 C 28 %
1530 26-11-2019 15:00:17 10.7 C 27 %
1531 26-11-2019 15:10:17 10.9 C 26 %
1532 26-11-2019 15:20:17 11.1 C 26 %
1533 26-11-2019 15:30:17 11.1 C 26 %
1534 26-11-2019 15:40:17 10.6 C 27 %
1535 26-11-2019 15:50:17 10.5 C 28 %
1536 26-11-2019 16:00:17 10.1 C 30 %
1537 26-11-2019 16:10:17 10 C 30 %
1538 26-11-2019 16:20:17 9.9 C 31 %
1539 26-11-2019 16:30:17 10 C 30 %
1540 26-11-2019 16:40:17 10 C 29 %
1541 26-11-2019 16:50:17 9.7 C 30 %
1542 26-11-2019 17:00:17 9.6 C 30 %
1543 26-11-2019 17:10:17 9.4 C 31 %
1544 26-11-2019 17:20:17 9.3 C 31 %
1545 26-11-2019 17:30:17 9.2 C 31 %
1546 26-11-2019 17:40:17 9.1 C 31 %
1547 26-11-2019 17:50:17 8.9 C 32 %
1548 26-11-2019 18:00:17 8.8 C 34 %
1549 26-11-2019 18:10:17 8.9 C 36 %
1550 26-11-2019 18:20:17 8.9 C 37 %
Sensor: Nr:Datum:Temp:Feuchte:
Aussen-T/F 1551 26-11-2019 18:30:17 9 C 35 %
1552 26-11-2019 18:40:17 8.9 C 35 %
1553 26-11-2019 18:50:17 9.1 C 34 %
1554 26-11-2019 19:00:17 9.7 C 31 %
1555 26-11-2019 19:10:17 9.5 C 31 %
1556 26-11-2019 19:20:17 9.6 C 30 %
1557 26-11-2019 19:30:17 9.6 C 30 %
1558 26-11-2019 19:40:17 9.7 C 30 %
1559 26-11-2019 19:50:17 9.5 C 30 %
1560 26-11-2019 20:00:17 9.5 C 30 %
1561 26-11-2019 20:10:17 9.2 C 31 %
1562 26-11-2019 20:20:17 8.9 C 32 %
1563 26-11-2019 20:30:17 8.4 C 35 %
1564 26-11-2019 20:40:17 8.2 C 35 %
1565 26-11-2019 20:50:17 8 C 37 %
1566 26-11-2019 21:00:17 7.9 C 38 %
1567 26-11-2019 21:10:17 8.3 C 39 %
1568 26-11-2019 21:20:17 8.5 C 37 %
1569 26-11-2019 21:30:17 8.7 C 36 %
1570 26-11-2019 21:40:17 8.8 C 35 %
1571 26-11-2019 21:50:17 8.8 C 35 %
1572 26-11-2019 22:00:17 8.9 C 35 %
1573 26-11-2019 22:10:17 8.8 C 34 %
1574 26-11-2019 22:20:17 8.6 C 34 %
1575 26-11-2019 22:30:17 8.4 C 35 %
Sensor: Nr:Datum:Temp:Feuchte:
Aussen-T/F 1576 26-11-2019 22:40:17 8.1 C 35 %
1577 26-11-2019 22:50:17 7.8 C 36 %
1578 26-11-2019 23:00:17 7.9 C 39 %
1579 26-11-2019 23:10:17 7.9 C 39 %
1580 26-11-2019 23:20:17 8 C 38 %
1581 26-11-2019 23:30:17 7.8 C 38 %
1582 26-11-2019 23:40:17 7.7 C 38 %
1583 26-11-2019 23:50:17 7.8 C 39 %
1584 27-11-2019 00:00:17 7.6 C 39 %
1585 27-11-2019 00:10:17 7.5 C 39 %
1586 27-11-2019 00:20:17 7.6 C 40 %
1587 27-11-2019 00:30:17 7.6 C 39 %
1588 27-11-2019 00:40:17 7.9 C 40 %
1589 27-11-2019 00:50:17 7.7 C 39 %
1590 27-11-2019 01:00:17 7.4 C 39 %
1591 27-11-2019 01:10:17 7.6 C 40 %
1592 27-11-2019 01:20:17 7.6 C 40 %
1593 27-11-2019 01:30:17 7.8 C 40 %
1594 27-11-2019 01:40:17 7.8 C 40 %
1595 27-11-2019 01:50:17 8 C 39 %
1596 27-11-2019 02:00:17 8.1 C 39 %
1597 27-11-2019 02:10:17 8.1 C 38 %
1598 27-11-2019 02:20:17 8.1 C 38 %
1599 27-11-2019 02:30:17 8 C 39 %
1600 27-11-2019 02:40:17 7.8 C 40 %
Sensor: Nr:Datum:Temp:Feuchte:
Aussen-T/F 1601 27-11-2019 02:50:17 7.7 C 40 %
1602 27-11-2019 03:00:17 7.8 C 40 %
1603 27-11-2019 03:10:17 7.6 C 41 %
1604 27-11-2019 03:20:17 7.5 C 40 %
1605 27-11-2019 03:30:17 7.2 C 40 %
1606 27-11-2019 03:40:17 7.1 C 40 %
1607 27-11-2019 03:50:17 7 C 40 %
1608 27-11-2019 04:00:17 7.1 C 40 %
1609 27-11-2019 04:10:17 7.3 C 40 %
1610 27-11-2019 04:20:17 7.5 C 40 %
1611 27-11-2019 04:30:17 7.6 C 40 %
1612 27-11-2019 04:40:17 7.6 C 40 %
1613 27-11-2019 04:50:17 7.4 C 39 %
1614 27-11-2019 05:00:17 7.1 C 38 %
1615 27-11-2019 05:10:17 7.4 C 39 %
1616 27-11-2019 05:20:17 7.8 C 37 %
1617 27-11-2019 05:30:17 7.7 C 37 %
1618 27-11-2019 05:40:17 8 C 35 %
1619 27-11-2019 05:50:17 8 C 35 %
1620 27-11-2019 06:00:18 8 C 34 %
1621 27-11-2019 06:10:18 7.8 C 35 %
1622 27-11-2019 06:20:17 7.8 C 36 %
1623 27-11-2019 06:30:17 7.6 C 37 %
1624 27-11-2019 06:40:17 7.7 C 39 %
1625 27-11-2019 06:50:17 7.6 C 39 %
Sensor: Nr:Datum:Temp:Feuchte:
Aussen-T/F 1626 27-11-2019 07:00:17 7.8 C 37 %
1627 27-11-2019 07:10:17 7.8 C 35 %
1628 27-11-2019 07:20:17 7.9 C 35 %
1629 27-11-2019 07:30:17 8.1 C 34 %
1630 27-11-2019 07:40:17 8 C 32 %
1631 27-11-2019 07:50:17 8 C 34 %
1632 27-11-2019 08:00:17 8.2 C 33 %
1633 27-11-2019 08:10:17 8.2 C 33 %
1634 27-11-2019 08:20:17 8.3 C 34 %
1635 27-11-2019 08:30:17 8.4 C 33 %
1636 27-11-2019 08:40:17 8.4 C 33 %
1637 27-11-2019 08:50:17 8.4 C 35 %
1638 27-11-2019 09:00:17 8.6 C 35 %
1639 27-11-2019 09:10:17 8.6 C 36 %
1640 27-11-2019 09:20:17 8.8 C 36 %
1641 27-11-2019 09:30:17 9.1 C 33 %
1642 27-11-2019 09:40:17 9 C 34 %
1643 27-11-2019 09:50:17 9 C 34 %
1644 27-11-2019 10:00:17 9.1 C 35 %
1645 27-11-2019 10:10:17 9.2 C 35 %
1646 27-11-2019 10:20:17 9.3 C 35 %
1647 27-11-2019 10:30:17 9.7 C 31 %
1648 27-11-2019 10:40:17 10 C 29 %
1649 27-11-2019 10:50:17 10.4 C 27 %
1650 27-11-2019 11:00:17 11 C 25 %
Sensor: Nr:Datum:Temp:Feuchte:
Aussen-T/F 1651 27-11-2019 11:10:17 11.3 C 24 %
1652 27-11-2019 11:20:17 11.6 C 22 %
1653 27-11-2019 11:30:17 11.7 C 22 %
1654 27-11-2019 11:40:17 12.1 C 20 %
1655 27-11-2019 11:50:17 12.4 C 20 %
1656 27-11-2019 12:00:17 12.7 C 20 %
1657 27-11-2019 12:10:17 12.7 C 20 %
1658 27-11-2019 12:20:18 12.7 C 20 %
1659 27-11-2019 12:30:17 12.7 C 20 %
1660 27-11-2019 12:40:17 12.8 C 20 %
1661 27-11-2019 12:50:17 12.8 C 20 %
1662 27-11-2019 13:00:17 12.7 C 20 %
1663 27-11-2019 13:10:17 12.8 C 20 %
1664 27-11-2019 13:20:17 12.8 C 20 %
1665 27-11-2019 13:30:17 12.6 C 20 %
1666 27-11-2019 13:40:17 12.7 C 20 %
1667 27-11-2019 13:50:17 12.9 C 20 %
1668 27-11-2019 14:00:17 13.1 C 20 %
1669 27-11-2019 14:10:17 13 C 20 %
1670 27-11-2019 14:20:17 12.9 C 20 %
1671 27-11-2019 14:30:17 12.9 C 20 %
1672 27-11-2019 14:40:17 12.9 C 20 %
1673 27-11-2019 14:50:17 12.9 C 20 %
1674 27-11-2019 15:00:17 12.7 C 20 %
1675 27-11-2019 15:10:17 12.8 C 20 %
Sensor: Nr:Datum:Temp:Feuchte:
Aussen-T/F 1676 27-11-2019 15:20:17 12.8 C 20 %
1677 27-11-2019 15:30:17 12.8 C 20 %
1678 27-11-2019 15:40:17 12.5 C 20 %
1679 27-11-2019 15:50:17 12.2 C 20 %
1680 27-11-2019 16:00:17 11.5 C 20 %
1681 27-11-2019 16:10:17 11.1 C 20 %
1682 27-11-2019 16:20:17 10.8 C 25 %
1683 27-11-2019 16:30:17 10.3 C 26 %
1684 27-11-2019 16:40:17 9.9 C 29 %
1685 27-11-2019 16:50:18 9.7 C 30 %
1686 27-11-2019 17:00:17 9.5 C 31 %
1687 27-11-2019 17:10:17 9.8 C 31 %
1688 27-11-2019 17:20:17 9.8 C 31 %
1689 27-11-2019 17:30:17 9.8 C 31 %
1690 27-11-2019 17:40:17 9.7 C 33 %
1691 27-11-2019 17:50:17 9.6 C 33 %
1692 27-11-2019 18:00:17 9.7 C 32 %
1693 27-11-2019 18:10:17 9.7 C 32 %
1694 27-11-2019 18:20:17 9.9 C 31 %
1695 27-11-2019 18:30:17 9.9 C 31 %
1696 27-11-2019 18:40:17 9.8 C 32 %
1697 27-11-2019 18:50:17 9.7 C 34 %
1698 27-11-2019 19:00:17 9.7 C 36 %
1699 27-11-2019 19:10:17 9.8 C 34 %
1700 27-11-2019 19:20:17 9.7 C 33 %
Sensor: Nr:Datum:Temp:Feuchte:
Aussen-T/F 1701 27-11-2019 19:30:17 10 C 31 %
1702 27-11-2019 19:40:17 10 C 31 %
1703 27-11-2019 19:50:17 10.4 C 28 %
1704 27-11-2019 20:00:17 10.8 C 26 %
1705 27-11-2019 20:10:17 10.9 C 26 %
1706 27-11-2019 20:20:17 11 C 25 %
1707 27-11-2019 20:30:17 10.6 C 26 %
1708 27-11-2019 20:40:17 9.9 C 30 %
1709 27-11-2019 20:50:17 9.7 C 31 %
1710 27-11-2019 21:00:17 9.8 C 33 %
1711 27-11-2019 21:10:17 9.8 C 32 %
1712 27-11-2019 21:20:17 9.6 C 33 %
1713 27-11-2019 21:30:17 9.8 C 32 %
1714 27-11-2019 21:40:17 10.1 C 31 %
1715 27-11-2019 21:50:17 10.2 C 29 %
1716 27-11-2019 22:00:17 10.3 C 28 %
1717 27-11-2019 22:10:17 10.6 C 27 %
1718 27-11-2019 22:20:17 10.9 C 26 %
1719 27-11-2019 22:30:17 10.9 C 26 %
1720 27-11-2019 22:40:17 10.8 C 25 %
1721 27-11-2019 22:50:17 10.7 C 25 %
1722 27-11-2019 23:00:17 11.1 C 24 %
1723 27-11-2019 23:10:17 11.3 C 23 %
1724 27-11-2019 23:20:17 11.1 C 23 %
1725 27-11-2019 23:30:17 11.5 C 21 %
Sensor: Nr:Datum:Temp:Feuchte:
Aussen-T/F 1726 27-11-2019 23:40:18 11.5 C 21 %
1727 27-11-2019 23:50:17 11.2 C 21 %
1728 28-11-2019 00:00:18 11.2 C 21 %
1729 28-11-2019 00:10:18 11.3 C 20 %
1730 28-11-2019 00:20:17 11.2 C 20 %
1731 28-11-2019 00:30:17 11.2 C 20 %
1732 28-11-2019 00:40:17 11.5 C 20 %
1733 28-11-2019 00:50:17 11.3 C 20 %
1734 28-11-2019 01:00:17 11.4 C 20 %
1735 28-11-2019 01:10:17 11.4 C 20 %
1736 28-11-2019 01:20:17 11.4 C 20 %
1737 28-11-2019 01:30:17 11.4 C 20 %
1738 28-11-2019 01:40:17 11.1 C 20 %
1739 28-11-2019 01:50:17 11.1 C 20 %
1740 28-11-2019 02:00:18 10.8 C 20 %
1741 28-11-2019 02:10:18 10.5 C 20 %
1742 28-11-2019 02:20:17 10.7 C 20 %
1743 28-11-2019 02:30:17 11 C 20 %
1744 28-11-2019 02:40:17 10.5 C 21 %
1745 28-11-2019 02:50:17 10.8 C 20 %
1746 28-11-2019 03:00:17 10.9 C 20 %
1747 28-11-2019 03:10:17 10.3 C 20 %
1748 28-11-2019 03:20:18 10.8 C 20 %
1749 28-11-2019 03:30:18 10.6 C 20 %
1750 28-11-2019 03:40:18 10.9 C 20 %
Sensor: Nr:Datum:Temp:Feuchte:
Aussen-T/F 1751 28-11-2019 03:50:18 10.9 C 20 %
1752 28-11-2019 04:00:18 10.7 C 20 %
1753 28-11-2019 04:10:18 10.6 C 20 %
1754 28-11-2019 04:20:17 10.6 C 20 %
1755 28-11-2019 04:30:17 10.6 C 20 %
1756 28-11-2019 04:40:17 10.5 C 20 %
1757 28-11-2019 04:50:17 10.3 C 20 %
1758 28-11-2019 05:00:17 10.5 C 20 %
1759 28-11-2019 05:10:17 10.2 C 20 %
1760 28-11-2019 05:20:17 10.1 C 20 %
1761 28-11-2019 05:30:17 10.4 C 20 %
1762 28-11-2019 05:40:17 10.1 C 20 %
1763 28-11-2019 05:50:17 10.2 C 20 %
1764 28-11-2019 06:00:17 9.9 C 20 %
1765 28-11-2019 06:10:17 10.1 C 20 %
1766 28-11-2019 06:20:17 10.2 C 20 %
1767 28-11-2019 06:30:17 10.5 C 20 %
1768 28-11-2019 06:40:17 10.6 C 20 %
1769 28-11-2019 06:50:17 10.5 C 20 %
1770 28-11-2019 07:00:17 10.4 C 20 %
1771 28-11-2019 07:10:17 10 C 20 %
1772 28-11-2019 07:20:17 10 C 20 %
1773 28-11-2019 07:30:17 10 C 20 %
1774 28-11-2019 07:40:17 10.2 C 20 %
1775 28-11-2019 07:50:17 10.3 C 20 %
Sensor: Nr:Datum:Temp:Feuchte:
Aussen-T/F 1776 28-11-2019 08:00:17 10.4 C 20 %
1777 28-11-2019 08:10:17 10.2 C 20 %
1778 28-11-2019 08:20:17 10.2 C 20 %
1779 28-11-2019 08:30:17 10.1 C 20 %
1780 28-11-2019 08:40:17 10.1 C 20 %
1781 28-11-2019 08:50:17 10.1 C 20 %
1782 28-11-2019 09:00:17 10.3 C 20 %
1783 28-11-2019 09:10:17 10.7 C 20 %
1784 28-11-2019 09:20:17 11 C 20 %
1785 28-11-2019 09:30:17 11 C 20 %
1786 28-11-2019 09:40:17 11.1 C 20 %
1787 28-11-2019 09:50:17 11.1 C 20 %
1788 28-11-2019 10:00:17 11.3 C 20 %
1789 28-11-2019 10:10:17 11.3 C 20 %
1790 28-11-2019 10:20:17 11.5 C 20 %
1791 28-11-2019 10:30:17 11.6 C 20 %
1792 28-11-2019 10:40:17 11.7 C 20 %
1793 28-11-2019 10:50:17 11.7 C 20 %
1794 28-11-2019 11:00:17 11.7 C 20 %
1795 28-11-2019 11:10:17 11.8 C 20 %
1796 28-11-2019 11:20:17 11.9 C 20 %
1797 28-11-2019 11:30:17 11.9 C 20 %
1798 28-11-2019 11:40:17 12.2 C 20 %
1799 28-11-2019 11:50:17 11.9 C 20 %
1800 28-11-2019 12:00:17 11.6 C 20 %
Sensor: Nr:Datum:Temp:Feuchte:
Aussen-T/F 1801 28-11-2019 12:10:17 11.5 C 20 %
1802 28-11-2019 12:20:17 11.1 C 20 %
1803 28-11-2019 12:30:17 11.1 C 20 %
1804 28-11-2019 12:40:17 10.9 C 20 %
1805 28-11-2019 12:50:17 11.2 C 20 %
1806 28-11-2019 13:00:17 11.2 C 20 %
1807 28-11-2019 13:10:17 11.7 C 20 %
1808 28-11-2019 13:20:17 11.8 C 20 %
1809 28-11-2019 13:30:17 12.1 C 20 %
1810 28-11-2019 13:40:17 11.4 C 20 %
1811 28-11-2019 13:50:17 11.4 C 20 %
1812 28-11-2019 14:00:17 11.3 C 20 %
1813 28-11-2019 14:10:17 11.4 C 20 %
1814 28-11-2019 14:20:17 11.2 C 20 %
1815 28-11-2019 14:30:17 11.1 C 20 %
1816 28-11-2019 14:40:17 11.2 C 20 %
1817 28-11-2019 14:50:17 11.2 C 20 %
1818 28-11-2019 15:00:17 11.2 C 20 %
1819 28-11-2019 15:10:17 11.1 C 20 %
1820 28-11-2019 15:20:17 11 C 20 %
1821 28-11-2019 15:30:17 10.2 C 23 %
1822 28-11-2019 15:40:17 10.2 C 21 %
1823 28-11-2019 15:50:17 10.3 C 21 %
1824 28-11-2019 16:00:17 10.5 C 21 %
1825 28-11-2019 16:10:17 10.3 C 22 %
Sensor: Nr:Datum:Temp:Feuchte:
Aussen-T/F 1826 28-11-2019 16:20:17 10.5 C 21 %
1827 28-11-2019 16:30:17 10.6 C 21 %
1828 28-11-2019 16:40:17 10.4 C 21 %
1829 28-11-2019 16:50:17 10.4 C 21 %
1830 28-11-2019 17:00:17 10.3 C 22 %
1831 28-11-2019 17:10:17 9.7 C 27 %
1832 28-11-2019 17:20:17 9.5 C 29 %
1833 28-11-2019 17:30:17 9.4 C 30 %
1834 28-11-2019 17:40:17 9.3 C 30 %
1835 28-11-2019 17:50:17 9.6 C 28 %
1836 28-11-2019 18:00:17 9.8 C 27 %
1837 28-11-2019 18:10:17 10.2 C 25 %
1838 28-11-2019 18:20:17 10.3 C 25 %
1839 28-11-2019 18:30:17 10.2 C 25 %
1840 28-11-2019 18:40:17 10.2 C 25 %
1841 28-11-2019 18:50:17 10.2 C 25 %
1842 28-11-2019 19:00:17 10.1 C 25 %
1843 28-11-2019 19:10:17 9.8 C 26 %
1844 28-11-2019 19:20:17 9.8 C 26 %
1845 28-11-2019 19:30:17 9.8 C 26 %
1846 28-11-2019 19:40:17 9.9 C 26 %
1847 28-11-2019 19:50:17 10.1 C 25 %
1848 28-11-2019 20:00:17 10.1 C 26 %
1849 28-11-2019 20:10:17 9.8 C 26 %
1850 28-11-2019 20:20:17 9.8 C 26 %
Sensor: Nr:Datum:Temp:Feuchte:
Aussen-T/F 1851 28-11-2019 20:30:17 9.8 C 27 %
1852 28-11-2019 20:40:17 10.1 C 26 %
1853 28-11-2019 20:50:17 10 C 25 %
1854 28-11-2019 21:00:17 10.1 C 25 %
1855 28-11-2019 21:10:17 9.7 C 27 %
1856 28-11-2019 21:20:17 9.9 C 27 %
1857 28-11-2019 21:30:17 10.1 C 26 %
1858 28-11-2019 21:40:17 10 C 26 %
1859 28-11-2019 21:50:17 10 C 25 %
1860 28-11-2019 22:00:17 9.6 C 27 %
1861 28-11-2019 22:10:17 9.6 C 28 %
1862 28-11-2019 22:20:17 9.6 C 28 %
1863 28-11-2019 22:30:17 9.5 C 28 %
1864 28-11-2019 22:40:17 9.6 C 28 %
1865 28-11-2019 22:50:17 9.5 C 28 %
1866 28-11-2019 23:00:17 9.5 C 28 %
1867 28-11-2019 23:10:17 9.5 C 29 %
1868 28-11-2019 23:20:17 9.6 C 28 %
1869 28-11-2019 23:30:17 9.2 C 30 %
1870 28-11-2019 23:40:17 9.1 C 32 %
1871 28-11-2019 23:50:17 8.9 C 35 %
1872 29-11-2019 00:00:17 8.9 C 34 %
1873 29-11-2019 00:10:17 8.7 C 36 %
1874 29-11-2019 00:20:17 8.8 C 35 %
1875 29-11-2019 00:30:17 8.7 C 36 %
Sensor: Nr:Datum:Temp:Feuchte:
Aussen-T/F 1876 29-11-2019 00:40:17 8.7 C 35 %
1877 29-11-2019 00:50:17 8.6 C 35 %
1878 29-11-2019 01:00:17 8.6 C 36 %
1879 29-11-2019 01:10:17 8.5 C 37 %
1880 29-11-2019 01:20:17 8.3 C 37 %
1881 29-11-2019 01:30:17 8.3 C 36 %
1882 29-11-2019 01:40:17 8.3 C 36 %
1883 29-11-2019 01:50:17 8.1 C 39 %
1884 29-11-2019 02:00:17 8.1 C 40 %
1885 29-11-2019 02:10:17 8.1 C 40 %
1886 29-11-2019 02:20:17 8.1 C 40 %
1887 29-11-2019 02:30:17 8.1 C 40 %
1888 29-11-2019 02:40:17 8.1 C 40 %
1889 29-11-2019 02:50:17 8 C 40 %
1890 29-11-2019 03:00:17 8 C 40 %
1891 29-11-2019 03:10:17 8 C 40 %
1892 29-11-2019 03:20:17 7.9 C 40 %
1893 29-11-2019 03:30:17 7.8 C 40 %
1894 29-11-2019 03:40:17 7.7 C 40 %
1895 29-11-2019 03:50:17 7.6 C 40 %
1896 29-11-2019 04:00:17 7.6 C 40 %
1897 29-11-2019 04:10:17 7.6 C 40 %
1898 29-11-2019 04:20:17 7.6 C 40 %
1899 29-11-2019 04:30:17 7.5 C 40 %
1900 29-11-2019 04:40:17 7.5 C 40 %
Sensor: Nr:Datum:Temp:Feuchte:
Aussen-T/F 1901 29-11-2019 04:50:17 7.2 C 38 %
1902 29-11-2019 05:00:17 6.8 C 34 %
1903 29-11-2019 05:10:17 6.4 C 33 %
1904 29-11-2019 05:20:17 6.2 C 34 %
1905 29-11-2019 05:30:17 6.2 C 35 %
1906 29-11-2019 05:40:18 6.1 C 36 %
1907 29-11-2019 05:50:17 6 C 36 %
1908 29-11-2019 06:00:17 6 C 38 %
1909 29-11-2019 06:10:17 5.9 C 38 %
1910 29-11-2019 06:20:17 5.9 C 38 %
1911 29-11-2019 06:30:17 5.9 C 40 %
1912 29-11-2019 06:40:17 5.9 C 40 %
1913 29-11-2019 06:50:17 5.8 C 36 %
1914 29-11-2019 07:00:17 5.7 C 35 %
1915 29-11-2019 07:10:17 5.6 C 37 %
1916 29-11-2019 07:20:17 5.4 C 37 %
1917 29-11-2019 07:30:17 5.4 C 40 %
1918 29-11-2019 07:40:17 5.4 C 37 %
1919 29-11-2019 07:50:17 5.4 C 39 %
1920 29-11-2019 08:00:17 5.3 C 40 %
1921 29-11-2019 08:10:17 5.2 C 40 %
1922 29-11-2019 08:20:17 5.1 C 40 %
1923 29-11-2019 08:30:17 5 C 40 %
1924 29-11-2019 08:40:17 5 C 40 %
1925 29-11-2019 08:50:17 5 C 39 %
Sensor: Nr:Datum:Temp:Feuchte:
Aussen-T/F 1926 29-11-2019 09:00:17 5 C 39 %
1927 29-11-2019 09:10:17 5 C 39 %
1928 29-11-2019 09:20:17 4.8 C 37 %
1929 29-11-2019 09:30:17 4.6 C 37 %
1930 29-11-2019 09:40:17 4.6 C 37 %
1931 29-11-2019 09:50:17 4.7 C 36 %
1932 29-11-2019 10:00:17 4.8 C 32 %
1933 29-11-2019 10:10:17 5.1 C 31 %
1934 29-11-2019 10:20:17 5.8 C 27 %
1935 29-11-2019 10:30:17 5.9 C 29 %
1936 29-11-2019 10:40:17 5.7 C 27 %
1937 29-11-2019 10:50:17 5.4 C 28 %
1938 29-11-2019 11:00:17 5.6 C 30 %
1939 29-11-2019 11:10:17 5.9 C 26 %
1940 29-11-2019 11:20:17 6 C 27 %
1941 29-11-2019 11:30:17 6.4 C 26 %
1942 29-11-2019 11:40:17 7 C 23 %
1943 29-11-2019 11:50:17 7.3 C 21 %
1944 29-11-2019 12:00:17 7.2 C 20 %
1945 29-11-2019 12:10:17 7.2 C 20 %
1946 29-11-2019 12:20:17 7.1 C 20 %
1947 29-11-2019 12:30:17 7.6 C 20 %
1948 29-11-2019 12:40:17 7.2 C 20 %
1949 29-11-2019 12:50:17 6.9 C 21 %
1950 29-11-2019 13:00:17 6.6 C 21 %
Sensor: Nr:Datum:Temp:Feuchte:
Aussen-T/F 1951 29-11-2019 13:10:17 6.2 C 23 %
1952 29-11-2019 13:20:17 5.9 C 25 %
1953 29-11-2019 13:30:17 6.1 C 25 %
1954 29-11-2019 13:40:17 6.1 C 25 %
1955 29-11-2019 13:50:17 6.5 C 20 %
1956 29-11-2019 14:00:17 6.5 C 20 %
1957 29-11-2019 14:10:17 7 C 20 %
1958 29-11-2019 14:20:17 7.3 C 20 %
1959 29-11-2019 14:30:17 7.3 C 20 %
1960 29-11-2019 14:40:17 6.9 C 20 %
1961 29-11-2019 14:50:17 6.5 C 20 %
1962 29-11-2019 15:00:17 7.3 C 20 %
1963 29-11-2019 15:10:17 7.3 C 20 %
1964 29-11-2019 15:20:17 7.2 C 20 %
1965 29-11-2019 15:30:17 7.2 C 20 %
1966 29-11-2019 15:40:17 7.2 C 20 %
1967 29-11-2019 15:50:17 6.7 C 20 %
1968 29-11-2019 16:00:17 6.4 C 20 %
1969 29-11-2019 16:10:17 5.6 C 20 %
1970 29-11-2019 16:20:17 6.2 C 20 %
1971 29-11-2019 16:30:17 6 C 20 %
1972 29-11-2019 16:40:18 5.3 C 20 %
1973 29-11-2019 16:50:17 5.3 C 20 %
1974 29-11-2019 17:00:18 4.5 C 23 %
1975 29-11-2019 17:10:18 4 C 26 %
Sensor: Nr:Datum:Temp:Feuchte:
Aussen-T/F 1976 29-11-2019 17:20:17 4 C 26 %
1977 29-11-2019 17:30:18 3.9 C 27 %
1978 29-11-2019 17:40:18 4 C 26 %
1979 29-11-2019 17:50:17 3.8 C 27 %
1980 29-11-2019 18:00:17 4.2 C 26 %
1981 29-11-2019 18:10:18 4.6 C 25 %
1982 29-11-2019 18:20:17 5 C 21 %
1983 29-11-2019 18:30:17 5 C 21 %
1984 29-11-2019 18:40:17 4.8 C 23 %
1985 29-11-2019 18:50:17 4.7 C 26 %
1986 29-11-2019 19:00:17 4.8 C 21 %
1987 29-11-2019 19:10:17 4.8 C 21 %
1988 29-11-2019 19:20:17 4.8 C 21 %
1989 29-11-2019 19:30:17 4.4 C 25 %
1990 29-11-2019 19:40:17 4.6 C 21 %
1991 29-11-2019 19:50:17 4.4 C 25 %
1992 29-11-2019 20:00:17 4 C 26 %
1993 29-11-2019 20:10:17 4 C 26 %
1994 29-11-2019 20:20:17 4.3 C 25 %
1995 29-11-2019 20:30:17 4.7 C 23 %
1996 29-11-2019 20:40:17 4 C 25 %
1997 29-11-2019 20:50:17 3.9 C 26 %
1998 29-11-2019 21:00:17 3.8 C 28 %
1999 29-11-2019 21:10:17 3.9 C 27 %
2000 29-11-2019 21:20:17 3.8 C 27 %
Sensor: Nr:Datum:Temp:Feuchte:
Aussen-T/F 2001 29-11-2019 21:30:17 3.8 C 28 %
2002 29-11-2019 21:40:17 3.9 C 28 %
2003 29-11-2019 21:50:17 3.2 C 30 %
2004 29-11-2019 22:00:17 3.3 C 29 %
2005 29-11-2019 22:10:17 2.6 C 32 %
2006 29-11-2019 22:20:17 2.1 C 35 %
2007 29-11-2019 22:30:17 1.9 C 37 %
2008 29-11-2019 22:40:17 1.7 C 40 %
2009 29-11-2019 22:50:17 1.8 C 41 %
2010 29-11-2019 23:00:17 1.5 C 38 %
2011 29-11-2019 23:10:17 1.1 C 39 %
2012 29-11-2019 23:20:17 1.3 C 41 %
2013 29-11-2019 23:30:17 1.5 C 42 %
2014 29-11-2019 23:40:17 1.6 C 41 %
2015 29-11-2019 23:50:17 1.7 C 41 %
2016 30-11-2019 00:00:17 1.9 C 40 %
2017 30-11-2019 00:10:17 1.8 C 40 %
2018 30-11-2019 00:20:17 1.8 C 40 %
2019 30-11-2019 00:30:17 2 C 37 %
2020 30-11-2019 00:40:17 1.7 C 37 %
2021 30-11-2019 00:50:17 1.6 C 40 %
2022 30-11-2019 01:00:17 1.3 C 40 %
2023 30-11-2019 01:10:17 1 C 40 %
2024 30-11-2019 01:20:17 0.7 C 41 %
2025 30-11-2019 01:30:17 0.5 C 42 %
Sensor: Nr:Datum:Temp:Feuchte:
Aussen-T/F 2026 30-11-2019 01:40:17 0.7 C 44 %
2027 30-11-2019 01:50:17 0.5 C 43 %
2028 30-11-2019 02:00:17 0.4 C 44 %
2029 30-11-2019 02:10:17 0.9 C 45 %
2030 30-11-2019 02:20:17 1.1 C 44 %
2031 30-11-2019 02:30:17 1.2 C 44 %
2032 30-11-2019 02:40:17 0.8 C 43 %
2033 30-11-2019 02:50:17 0.8 C 43 %
2034 30-11-2019 03:00:17 0.9 C 43 %
2035 30-11-2019 03:10:17 0.7 C 43 %
2036 30-11-2019 03:20:17 0.3 C 41 %
2037 30-11-2019 03:30:17 0.5 C 44 %
2038 30-11-2019 03:40:17 0.2 C 43 %
2039 30-11-2019 03:50:17 0.6 C 44 %
2040 30-11-2019 04:00:17 1 C 44 %
2041 30-11-2019 04:10:17 1.3 C 43 %
2042 30-11-2019 04:20:17 1.3 C 41 %
2043 30-11-2019 04:30:17 1.4 C 40 %
2044 30-11-2019 04:40:17 1.3 C 40 %
2045 30-11-2019 04:50:17 1 C 38 %
2046 30-11-2019 05:00:17 0.6 C 40 %
2047 30-11-2019 05:10:17 1.1 C 41 %
2048 30-11-2019 05:20:17 0.8 C 40 %
2049 30-11-2019 05:30:17 0.3 C 40 %
2050 30-11-2019 05:40:17 -0.5 C 40 %
Sensor: Nr:Datum:Temp:Feuchte:
Aussen-T/F 2051 30-11-2019 05:50:17 -0.7 C 41 %
2052 30-11-2019 06:00:17 -0.7 C 43 %
2053 30-11-2019 06:10:17 -0.9 C 43 %
2054 30-11-2019 06:20:17 -1 C 43 %
2055 30-11-2019 06:30:17 -1.2 C 43 %
2056 30-11-2019 06:40:17 -1.3 C 43 %
2057 30-11-2019 06:50:17 -1.2 C 44 %
2058 30-11-2019 07:00:17 -1.4 C 44 %
2059 30-11-2019 07:10:17 -1.4 C 43 %
2060 30-11-2019 07:20:17 -1.4 C 43 %
2061 30-11-2019 07:30:17 -1.5 C 43 %
2062 30-11-2019 07:40:17 -1.2 C 44 %
2063 30-11-2019 07:50:17 -1.1 C 44 %
2064 30-11-2019 08:00:17 -1 C 44 %
2065 30-11-2019 08:10:17 -0.7 C 44 %
2066 30-11-2019 08:20:17 -0.6 C 44 %
2067 30-11-2019 08:30:17 -0.7 C 44 %
2068 30-11-2019 08:40:17 -0.6 C 44 %
2069 30-11-2019 08:50:17 -0.7 C 44 %
2070 30-11-2019 09:00:17 -0.7 C 44 %
2071 30-11-2019 09:10:17 -0.6 C 44 %
2072 30-11-2019 09:20:17 -0.7 C 44 %
2073 30-11-2019 09:30:17 -0.7 C 44 %
2074 30-11-2019 09:40:17 -0.6 C 44 %
2075 30-11-2019 09:50:17 -0.3 C 44 %
Sensor: Nr:Datum:Temp:Feuchte:
Aussen-T/F 2076 30-11-2019 10:00:17 -0.3 C 44 %
2077 30-11-2019 10:10:17 0 C 44 %
2078 30-11-2019 10:20:17 0.1 C 43 %
2079 30-11-2019 10:30:17 0.4 C 43 %
2080 30-11-2019 10:40:17 0.5 C 43 %
2081 30-11-2019 10:50:17 0.4 C 43 %
2082 30-11-2019 11:00:18 0.5 C 42 %
2083 30-11-2019 11:10:18 0.6 C 42 %
2084 30-11-2019 11:20:17 0.6 C 42 %
2085 30-11-2019 11:30:17 0.4 C 41 %
2086 30-11-2019 11:40:17 0.6 C 41 %
2087 30-11-2019 11:50:17 0.9 C 41 %
2088 30-11-2019 12:00:17 1.1 C 40 %
2089 30-11-2019 12:10:17 0.9 C 38 %
2090 30-11-2019 12:20:17 1.3 C 39 %
2091 30-11-2019 12:30:17 1.4 C 37 %
2092 30-11-2019 12:40:17 1.4 C 36 %
2093 30-11-2019 12:50:17 2.3 C 36 %
2094 30-11-2019 13:00:17 2.4 C 36 %
2095 30-11-2019 13:10:17 1.8 C 36 %
2096 30-11-2019 13:20:17 2.2 C 36 %
2097 30-11-2019 13:30:17 2.1 C 36 %
2098 30-11-2019 13:40:17 2.3 C 36 %
2099 30-11-2019 13:50:17 2.3 C 36 %
2100 30-11-2019 14:00:17 2 C 36 %
Sensor: Nr:Datum:Temp:Feuchte:
Aussen-T/F 2101 30-11-2019 14:10:17 2.1 C 38 %
2102 30-11-2019 14:20:17 2.2 C 38 %
2103 30-11-2019 14:30:17 2.2 C 38 %
2104 30-11-2019 14:40:17 2.4 C 38 %
2105 30-11-2019 14:50:17 2.2 C 37 %
2106 30-11-2019 15:00:17 1.9 C 39 %
2107 30-11-2019 15:10:17 1.8 C 40 %
2108 30-11-2019 15:20:18 1.9 C 41 %
2109 30-11-2019 15:30:17 1.8 C 41 %
2110 30-11-2019 15:40:17 1.6 C 41 %
2111 30-11-2019 15:50:17 1.7 C 42 %
2112 30-11-2019 16:00:17 1.5 C 42 %
2113 30-11-2019 16:10:17 1.5 C 42 %
2114 30-11-2019 16:20:17 1.4 C 43 %
2115 30-11-2019 16:30:17 1.3 C 43 %
2116 30-11-2019 16:40:17 1.3 C 43 %
2117 30-11-2019 16:50:17 1.1 C 43 %
2118 30-11-2019 17:00:17 0.9 C 44 %
2119 30-11-2019 17:10:17 0.9 C 44 %
2120 30-11-2019 17:20:17 0.6 C 44 %
2121 30-11-2019 17:30:17 0.6 C 44 %
2122 30-11-2019 17:40:17 0.6 C 44 %
2123 30-11-2019 17:50:17 0.5 C 44 %
2124 30-11-2019 18:00:17 0.4 C 44 %
2125 30-11-2019 18:10:17 0.3 C 44 %
Sensor: Nr:Datum:Temp:Feuchte:
Aussen-T/F 2126 30-11-2019 18:20:17 0.3 C 44 %
2127 30-11-2019 18:30:17 0.4 C 44 %
2128 30-11-2019 18:40:17 0.4 C 44 %
2129 30-11-2019 18:50:17 0.4 C 44 %
2130 30-11-2019 19:00:17 0.2 C 44 %
2131 30-11-2019 19:10:17 0 C 44 %
2132 30-11-2019 19:20:17 0 C 44 %
2133 30-11-2019 19:30:17 0 C 44 %
2134 30-11-2019 19:40:17 -0.1 C 44 %
2135 30-11-2019 19:50:17 -0.1 C 44 %
2136 30-11-2019 20:00:17 -0.2 C 44 %
2137 30-11-2019 20:10:18 -0.2 C 44 %
2138 30-11-2019 20:20:18 -0.2 C 44 %
2139 30-11-2019 20:30:17 -0.2 C 44 %
2140 30-11-2019 20:40:17 -0.4 C 44 %
2141 30-11-2019 20:50:17 -0.3 C 44 %
2142 30-11-2019 21:00:17 -0.2 C 44 %
2143 30-11-2019 21:10:17 -0.3 C 44 %
2144 30-11-2019 21:20:17 -0.3 C 44 %
2145 30-11-2019 21:30:17 -0.4 C 44 %
2146 30-11-2019 21:40:17 -0.2 C 44 %
2147 30-11-2019 21:50:17 -0.3 C 44 %
2148 30-11-2019 22:00:17 -0.3 C 44 %
2149 30-11-2019 22:10:17 -0.3 C 44 %
2150 30-11-2019 22:20:17 -0.3 C 44 %
Sensor: Nr:Datum:Temp:Feuchte:
Aussen-T/F 2151 30-11-2019 22:30:17 -0.1 C 44 %
2152 30-11-2019 22:40:17 0 C 44 %
2153 30-11-2019 22:50:17 0 C 44 %
2154 30-11-2019 23:00:17 0 C 44 %
2155 30-11-2019 23:10:17 0 C 44 %
2156 30-11-2019 23:20:17 -0.1 C 44 %
2157 30-11-2019 23:30:17 -0.4 C 43 %
2158 30-11-2019 23:40:17 -0.5 C 43 %
2159 30-11-2019 23:50:17 -0.4 C 43 %
2160 01-12-2019 00:00:17 -0.2 C 43 %
2161 01-12-2019 00:10:17 -0.3 C 43 %
2162 01-12-2019 00:20:17 -0.3 C 43 %
2163 01-12-2019 00:30:17 -0.3 C 43 %
2164 01-12-2019 00:40:17 -0.3 C 43 %
2165 01-12-2019 00:50:18 -0.2 C 43 %
2166 01-12-2019 01:00:17 0 C 44 %
2167 01-12-2019 01:10:17 -0.1 C 43 %
2168 01-12-2019 01:20:17 -0.1 C 43 %
2169 01-12-2019 01:30:17 -0.1 C 43 %
2170 01-12-2019 01:40:17 -0.1 C 43 %
2171 01-12-2019 01:50:17 -0.2 C 43 %
2172 01-12-2019 02:00:17 -0.1 C 43 %
2173 01-12-2019 02:10:17 -0.2 C 43 %
2174 01-12-2019 02:20:17 -0.2 C 43 %
2175 01-12-2019 02:30:17 -0.2 C 43 %
Sensor: Nr:Datum:Temp:Feuchte:
Aussen-T/F 2176 01-12-2019 02:40:17 -0.3 C 43 %
2177 01-12-2019 02:50:17 -0.2 C 43 %
2178 01-12-2019 03:00:17 -0.3 C 43 %
2179 01-12-2019 03:10:17 -0.3 C 43 %
2180 01-12-2019 03:20:17 -0.4 C 43 %
2181 01-12-2019 03:30:17 -0.4 C 43 %
2182 01-12-2019 03:40:17 -0.4 C 43 %
2183 01-12-2019 03:50:17 -0.4 C 43 %
2184 01-12-2019 04:00:17 -0.4 C 43 %
2185 01-12-2019 04:10:17 -0.8 C 42 %
2186 01-12-2019 04:20:17 -1.1 C 42 %
2187 01-12-2019 04:30:17 -1.3 C 42 %
2188 01-12-2019 04:40:17 -0.9 C 43 %
2189 01-12-2019 04:50:17 -0.9 C 43 %
2190 01-12-2019 05:00:17 -0.7 C 43 %
2191 01-12-2019 05:10:17 -0.8 C 43 %
2192 01-12-2019 05:20:17 -0.9 C 43 %
2193 01-12-2019 05:30:17 -1.1 C 43 %
2194 01-12-2019 05:40:17 -1 C 43 %
2195 01-12-2019 05:50:17 -0.9 C 43 %
2196 01-12-2019 06:00:17 -1 C 43 %
2197 01-12-2019 06:10:17 -1.1 C 43 %
2198 01-12-2019 06:20:17 -1.3 C 43 %
2199 01-12-2019 06:30:17 -1 C 43 %
2200 01-12-2019 06:40:17 -0.9 C 43 %
Sensor: Nr:Datum:Temp:Feuchte:
Aussen-T/F 2201 01-12-2019 06:50:17 -0.9 C 43 %
2202 01-12-2019 07:00:17 -0.8 C 43 %
2203 01-12-2019 07:10:17 -0.7 C 43 %
2204 01-12-2019 07:20:17 -0.5 C 43 %
2205 01-12-2019 07:30:17 -0.5 C 43 %
2206 01-12-2019 07:40:17 -0.3 C 43 %
2207 01-12-2019 07:50:17 -0.2 C 43 %
2208 01-12-2019 08:00:17 -0.1 C 43 %
2209 01-12-2019 08:10:17 -0.1 C 43 %
2210 01-12-2019 08:20:17 -0.2 C 43 %
2211 01-12-2019 08:30:17 -0.2 C 43 %
2212 01-12-2019 08:40:17 -0.2 C 43 %
2213 01-12-2019 08:50:17 0 C 43 %
2214 01-12-2019 09:00:17 0 C 42 %
2215 01-12-2019 09:10:17 0.2 C 42 %
2216 01-12-2019 09:20:17 0.1 C 42 %
2217 01-12-2019 09:30:17 0.1 C 42 %
2218 01-12-2019 09:40:17 0.2 C 41 %
2219 01-12-2019 09:50:17 0.3 C 41 %
2220 01-12-2019 10:00:17 0.5 C 41 %
2221 01-12-2019 10:10:17 0.6 C 41 %
2222 01-12-2019 10:20:17 0.7 C 40 %
2223 01-12-2019 10:30:17 0.8 C 39 %
2224 01-12-2019 10:40:17 1 C 38 %
2225 01-12-2019 10:50:17 1.1 C 37 %
Sensor: Nr:Datum:Temp:Feuchte:
Aussen-T/F 2226 01-12-2019 11:00:17 1.4 C 36 %
2227 01-12-2019 11:10:17 1.9 C 34 %
2228 01-12-2019 11:20:17 2.1 C 32 %
2229 01-12-2019 11:30:17 2.7 C 30 %
2230 01-12-2019 11:40:17 3 C 27 %
2231 01-12-2019 11:50:17 2.9 C 20 %
2232 01-12-2019 12:00:17 3 C 21 %
2233 01-12-2019 12:10:17 3.1 C 20 %
2234 01-12-2019 12:20:17 3.3 C 20 %
2235 01-12-2019 12:30:18 3.3 C 20 %
2236 01-12-2019 12:40:18 3.3 C 20 %
2237 01-12-2019 12:50:18 3.4 C 20 %
2238 01-12-2019 13:00:17 3.3 C 20 %
2239 01-12-2019 13:10:17 3.4 C 20 %
2240 01-12-2019 13:20:18 3.5 C 20 %
2241 01-12-2019 13:30:18 3.5 C 20 %
2242 01-12-2019 13:40:18 3.6 C 20 %
2243 01-12-2019 13:50:17 3.8 C 20 %
2244 01-12-2019 14:00:17 3.9 C 20 %
2245 01-12-2019 14:10:18 3.9 C 20 %
2246 01-12-2019 14:20:18 3.7 C 20 %
2247 01-12-2019 14:30:17 3.7 C 20 %
2248 01-12-2019 14:40:17 3.6 C 20 %
2249 01-12-2019 14:50:17 3.6 C 20 %
2250 01-12-2019 15:00:17 3.5 C 20 %
Sensor: Nr:Datum:Temp:Feuchte:
Aussen-T/F 2251 01-12-2019 15:10:17 3.3 C 20 %
2252 01-12-2019 15:20:17 3.2 C 21 %
2253 01-12-2019 15:30:17 3 C 20 %
2254 01-12-2019 15:40:17 3 C 21 %
2255 01-12-2019 15:50:17 2.7 C 25 %
2256 01-12-2019 16:00:17 2.6 C 25 %
2257 01-12-2019 16:10:17 2.5 C 25 %
2258 01-12-2019 16:20:17 2.4 C 25 %
2259 01-12-2019 16:30:18 2.4 C 25 %
2260 01-12-2019 16:40:18 2.2 C 25 %
2261 01-12-2019 16:50:18 2.2 C 25 %
2262 01-12-2019 17:00:18 2.2 C 25 %
2263 01-12-2019 17:10:18 2.2 C 25 %
2264 01-12-2019 17:20:17 2.3 C 25 %
2265 01-12-2019 17:30:17 2.3 C 25 %
2266 01-12-2019 17:40:17 2.3 C 25 %
2267 01-12-2019 17:50:17 2.3 C 25 %
2268 01-12-2019 18:00:17 2.3 C 25 %
2269 01-12-2019 18:10:17 2.3 C 25 %
2270 01-12-2019 18:20:17 2.3 C 25 %
2271 01-12-2019 18:30:17 2.3 C 25 %
2272 01-12-2019 18:40:17 2.3 C 25 %
2273 01-12-2019 18:50:17 2.3 C 23 %
2274 01-12-2019 19:00:17 2.3 C 23 %
2275 01-12-2019 19:10:18 2.4 C 25 %
Sensor: Nr:Datum:Temp:Feuchte:
Aussen-T/F 2276 01-12-2019 19:20:17 2.3 C 25 %
2277 01-12-2019 19:30:17 2.3 C 25 %
2278 01-12-2019 19:40:17 2.3 C 25 %
2279 01-12-2019 19:50:17 2.2 C 26 %
2280 01-12-2019 20:00:17 2.5 C 25 %
2281 01-12-2019 20:10:17 2.2 C 25 %
2282 01-12-2019 20:20:17 2.1 C 25 %
2283 01-12-2019 20:30:18 2.1 C 25 %
2284 01-12-2019 20:40:18 2.1 C 25 %
2285 01-12-2019 20:50:17 2 C 27 %
2286 01-12-2019 21:00:17 1.9 C 27 %
2287 01-12-2019 21:10:17 1.8 C 28 %
2288 01-12-2019 21:20:17 1.6 C 30 %
2289 01-12-2019 21:30:18 1.5 C 29 %
2290 01-12-2019 21:40:18 1.6 C 28 %
2291 01-12-2019 21:50:17 1.6 C 28 %
2292 01-12-2019 22:00:17 1.5 C 29 %
2293 01-12-2019 22:10:17 1.4 C 29 %
2294 01-12-2019 22:20:17 1.4 C 30 %
2295 01-12-2019 22:30:18 1.3 C 28 %
2296 01-12-2019 22:40:18 1.2 C 29 %
2297 01-12-2019 22:50:17 1.1 C 29 %
2298 01-12-2019 23:00:17 0.8 C 30 %
2299 01-12-2019 23:10:17 0.8 C 30 %
2300 01-12-2019 23:20:18 0.7 C 30 %
Sensor: Nr:Datum:Temp:Feuchte:
Aussen-T/F 2301 01-12-2019 23:30:17 0.5 C 32 %
2302 01-12-2019 23:40:17 0.3 C 33 %
2303 01-12-2019 23:50:17 0.2 C 33 %
2304 02-12-2019 00:00:17 0.1 C 33 %
2305 02-12-2019 00:10:17 0.2 C 33 %
2306 02-12-2019 00:20:17 0.3 C 32 %
2307 02-12-2019 00:30:17 0.3 C 32 %
2308 02-12-2019 00:40:17 0.2 C 32 %
2309 02-12-2019 00:50:18 0.2 C 35 %
2310 02-12-2019 01:00:17 0.1 C 36 %
2311 02-12-2019 01:10:17 0 C 38 %
2312 02-12-2019 01:20:17 -0.2 C 36 %
2313 02-12-2019 01:30:17 0.2 C 34 %
2314 02-12-2019 01:40:17 -0.2 C 35 %
2315 02-12-2019 01:50:17 -0.9 C 35 %
2316 02-12-2019 02:00:18 -0.9 C 37 %
2317 02-12-2019 02:10:18 -0.9 C 37 %
2318 02-12-2019 02:20:17 -0.5 C 37 %
2319 02-12-2019 02:30:17 -1 C 36 %
2320 02-12-2019 02:40:17 -1.1 C 37 %
2321 02-12-2019 02:50:17 -1.1 C 36 %
2322 02-12-2019 03:00:17 -1 C 37 %
2323 02-12-2019 03:10:17 -1.2 C 38 %
2324 02-12-2019 03:20:17 -1.3 C 37 %
2325 02-12-2019 03:30:18 -1.3 C 38 %
Sensor: Nr:Datum:Temp:Feuchte:
Aussen-T/F 2326 02-12-2019 03:40:18 -1.4 C 37 %
2327 02-12-2019 03:50:17 -1.4 C 37 %
2328 02-12-2019 04:00:18 -1.7 C 39 %
2329 02-12-2019 04:10:18 -1.4 C 40 %
2330 02-12-2019 04:20:17 -1.1 C 40 %
2331 02-12-2019 04:30:17 -1 C 40 %
2332 02-12-2019 04:40:17 -0.8 C 36 %
2333 02-12-2019 04:50:17 -1.1 C 37 %
2334 02-12-2019 05:00:17 -1.4 C 40 %
2335 02-12-2019 05:10:17 -1.1 C 40 %
2336 02-12-2019 05:20:17 -1.2 C 39 %
2337 02-12-2019 05:30:17 -1.6 C 40 %
2338 02-12-2019 05:40:17 -1.4 C 41 %
2339 02-12-2019 05:50:17 -1.3 C 42 %
2340 02-12-2019 06:00:17 -1.2 C 41 %
2341 02-12-2019 06:10:17 -1.3 C 39 %
2342 02-12-2019 06:20:17 -1.2 C 39 %
2343 02-12-2019 06:30:17 -1.4 C 38 %
2344 02-12-2019 06:40:17 -1.4 C 40 %
2345 02-12-2019 06:50:17 -1.8 C 37 %
2346 02-12-2019 07:00:17 -2.4 C 38 %
2347 02-12-2019 07:10:17 -2.6 C 40 %
2348 02-12-2019 07:20:17 -2.9 C 40 %
2349 02-12-2019 07:30:17 -2.7 C 42 %
2350 02-12-2019 07:40:17 -2.6 C 42 %
Sensor: Nr:Datum:Temp:Feuchte:
Aussen-T/F 2351 02-12-2019 07:50:17 -2.4 C 43 %
2352 02-12-2019 08:00:17 -1.9 C 45 %
2353 02-12-2019 08:10:18 -1.6 C 44 %
2354 02-12-2019 08:20:17 -1.3 C 44 %
2355 02-12-2019 08:30:17 -1 C 43 %
2356 02-12-2019 08:40:17 -0.7 C 43 %
2357 02-12-2019 08:50:17 -0.5 C 42 %
2358 02-12-2019 09:00:17 -0.5 C 40 %
2359 02-12-2019 09:10:17 -0.4 C 38 %
2360 02-12-2019 09:20:17 -0.4 C 36 %
2361 02-12-2019 09:30:17 -0.4 C 36 %
2362 02-12-2019 09:40:17 0 C 36 %
2363 02-12-2019 09:50:17 0 C 35 %
2364 02-12-2019 10:00:17 0.1 C 35 %
2365 02-12-2019 10:10:17 0.1 C 34 %
2366 02-12-2019 10:20:17 0.2 C 35 %
2367 02-12-2019 10:30:17 0.5 C 36 %
2368 02-12-2019 10:40:17 1 C 31 %
2369 02-12-2019 10:50:17 0.8 C 31 %
2370 02-12-2019 11:00:17 1.2 C 30 %
2371 02-12-2019 11:10:17 1.1 C 30 %
2372 02-12-2019 11:20:17 1.2 C 30 %
2373 02-12-2019 11:30:17 0.9 C 31 %
2374 02-12-2019 11:40:18 1 C 31 %
2375 02-12-2019 11:50:17 0.8 C 32 %
Sensor: Nr:Datum:Temp:Feuchte:
Aussen-T/F 2376 02-12-2019 12:00:18 1.6 C 31 %
2377 02-12-2019 12:10:18 2.3 C 27 %
2378 02-12-2019 12:20:17 2.8 C 25 %
2379 02-12-2019 12:30:17 3.1 C 26 %
2380 02-12-2019 12:40:17 3 C 25 %
2381 02-12-2019 12:50:18 3.2 C 26 %
2382 02-12-2019 13:00:17 3.2 C 26 %
2383 02-12-2019 13:10:17 3.5 C 25 %
2384 02-12-2019 13:20:17 3.9 C 25 %
2385 02-12-2019 13:30:17 3.9 C 25 %
2386 02-12-2019 13:40:17 3.8 C 25 %
2387 02-12-2019 13:50:17 3.6 C 25 %
2388 02-12-2019 14:00:17 4 C 26 %
2389 02-12-2019 14:10:17 3.7 C 28 %
2390 02-12-2019 14:20:17 3.7 C 30 %
2391 02-12-2019 14:30:17 4.1 C 27 %
2392 02-12-2019 14:40:17 4.3 C 27 %
2393 02-12-2019 14:50:17 4.5 C 27 %
2394 02-12-2019 15:00:18 4.3 C 28 %
2395 02-12-2019 15:10:18 4.3 C 29 %
2396 02-12-2019 15:20:17 4.7 C 27 %
2397 02-12-2019 15:30:17 4.4 C 27 %
2398 02-12-2019 15:40:17 4.1 C 31 %
2399 02-12-2019 15:50:17 3.9 C 36 %
2400 02-12-2019 16:00:18 3.7 C 37 %
Sensor: Nr:Datum:Temp:Feuchte:
Aussen-T/F 2401 02-12-2019 16:10:18 3.6 C 37 %
2402 02-12-2019 16:20:17 3.5 C 40 %
2403 02-12-2019 16:30:17 3.5 C 38 %
2404 02-12-2019 16:40:17 3.5 C 35 %
2405 02-12-2019 16:50:17 3.5 C 35 %
2406 02-12-2019 17:00:17 3.3 C 36 %
2407 02-12-2019 17:10:17 3.2 C 39 %
2408 02-12-2019 17:20:17 3.2 C 36 %
2409 02-12-2019 17:30:18 3.3 C 36 %
2410 02-12-2019 17:40:18 3.4 C 35 %
2411 02-12-2019 17:50:17 3.3 C 35 %
2412 02-12-2019 18:01:17 3.1 C 36 %
2413 02-12-2019 18:11:17 3.2 C 37 %
2414 02-12-2019 18:21:17 3.2 C 36 %
2415 02-12-2019 18:30:17 3 C 36 %
2416 02-12-2019 18:40:17 2.5 C 40 %
2417 02-12-2019 18:50:17 2.2 C 40 %
2418 02-12-2019 19:00:17 2.1 C 42 %
2419 02-12-2019 19:10:17 2.7 C 43 %
2420 02-12-2019 19:21:17 2.7 C 42 %
2421 02-12-2019 19:30:17 2.7 C 41 %
2422 02-12-2019 19:40:17 2.9 C 42 %
2423 02-12-2019 19:51:17 2.9 C 42 %
2424 02-12-2019 20:01:17 2.9 C 39 %
2425 02-12-2019 20:11:17 2.8 C 38 %
Sensor: Nr:Datum:Temp:Feuchte:
Aussen-T/F 2426 02-12-2019 20:21:17 2.9 C 37 %
2427 02-12-2019 20:31:17 2.9 C 38 %
2428 02-12-2019 20:40:17 2.8 C 40 %
2429 02-12-2019 20:51:17 2.7 C 42 %
2430 02-12-2019 21:00:17 2.7 C 42 %
2431 02-12-2019 21:10:17 2.7 C 42 %
2432 02-12-2019 21:21:17 2.7 C 42 %
2433 02-12-2019 21:30:18 2.7 C 42 %
2434 02-12-2019 21:40:18 2.6 C 41 %
2435 02-12-2019 21:51:17 2.6 C 42 %
2436 02-12-2019 22:01:17 2.6 C 41 %
2437 02-12-2019 22:11:17 2.6 C 41 %
2438 02-12-2019 22:21:17 2.6 C 41 %
2439 02-12-2019 22:30:18 2.5 C 40 %
2440 02-12-2019 22:40:18 2.5 C 41 %
2441 02-12-2019 22:51:17 2.4 C 41 %
2442 02-12-2019 23:01:17 2.5 C 41 %
2443 02-12-2019 23:11:17 2.4 C 42 %
2444 02-12-2019 23:21:17 2.5 C 42 %
2445 02-12-2019 23:31:17 2.5 C 42 %
2446 02-12-2019 23:41:17 2.5 C 42 %
2447 02-12-2019 23:50:18 2.5 C 42 %
2448 03-12-2019 00:01:17 2.5 C 42 %
2449 03-12-2019 00:11:17 2.5 C 42 %
2450 03-12-2019 00:21:17 2.5 C 41 %
Sensor: Nr:Datum:Temp:Feuchte:
Aussen-T/F 2451 03-12-2019 00:30:18 2.5 C 41 %
2452 03-12-2019 00:40:18 2.6 C 41 %
2453 03-12-2019 00:51:17 2.6 C 41 %
2454 03-12-2019 01:01:18 2.6 C 41 %
2455 03-12-2019 01:11:18 2.6 C 41 %
2456 03-12-2019 01:21:17 2.7 C 41 %
2457 03-12-2019 01:31:17 2.7 C 41 %
2458 03-12-2019 01:41:17 2.7 C 42 %
2459 03-12-2019 01:51:17 2.7 C 42 %
2460 03-12-2019 02:01:17 2.7 C 42 %
2461 03-12-2019 02:11:17 2.8 C 42 %
2462 03-12-2019 02:21:17 2.8 C 42 %
2463 03-12-2019 02:31:17 2.8 C 42 %
2464 03-12-2019 02:41:17 2.9 C 42 %
2465 03-12-2019 02:51:17 2.8 C 42 %
2466 03-12-2019 03:01:17 2.8 C 42 %
2467 03-12-2019 03:11:17 2.8 C 42 %
2468 03-12-2019 03:21:17 2.8 C 42 %
2469 03-12-2019 03:31:17 2.9 C 42 %
2470 03-12-2019 03:41:17 3 C 42 %
2471 03-12-2019 03:51:17 3 C 42 %
2472 03-12-2019 04:01:17 3 C 42 %
2473 03-12-2019 04:11:17 3 C 42 %
2474 03-12-2019 04:21:17 3 C 42 %
2475 03-12-2019 04:31:17 3.1 C 42 %
Sensor: Nr:Datum:Temp:Feuchte:
Aussen-T/F 2476 03-12-2019 04:41:17 3.1 C 42 %
2477 03-12-2019 04:51:17 3.1 C 42 %
2478 03-12-2019 05:01:17 3.1 C 42 %
2479 03-12-2019 05:11:17 3.1 C 42 %
2480 03-12-2019 05:21:17 3.1 C 42 %
2481 03-12-2019 05:31:17 3.2 C 42 %
2482 03-12-2019 05:41:17 3.2 C 41 %
2483 03-12-2019 05:51:17 3.2 C 41 %
2484 03-12-2019 06:01:18 3.2 C 41 %
2485 03-12-2019 06:11:18 3.2 C 41 %
2486 03-12-2019 06:21:17 3.2 C 41 %
2487 03-12-2019 06:31:17 3.3 C 41 %
2488 03-12-2019 06:41:17 3.3 C 41 %
2489 03-12-2019 06:51:18 3.3 C 41 %
2490 03-12-2019 07:01:17 3.3 C 41 %
2491 03-12-2019 07:11:17 3.3 C 41 %
2492 03-12-2019 07:21:17 3.3 C 41 %
2493 03-12-2019 07:31:17 3.2 C 41 %
2494 03-12-2019 07:41:17 3.3 C 41 %
2495 03-12-2019 07:51:17 3.3 C 42 %
2496 03-12-2019 08:01:17 3.3 C 42 %
2497 03-12-2019 08:11:17 3.4 C 42 %
2498 03-12-2019 08:21:17 3.3 C 42 %
2499 03-12-2019 08:31:17 3.4 C 42 %
2500 03-12-2019 08:41:17 3.4 C 41 %
Sensor: Nr:Datum:Temp:Feuchte:
Aussen-T/F 2501 03-12-2019 08:51:17 3.4 C 41 %
2502 03-12-2019 09:01:17 3.5 C 42 %
2503 03-12-2019 09:11:17 3.5 C 42 %
2504 03-12-2019 09:21:17 3.5 C 41 %
2505 03-12-2019 09:31:17 3.6 C 41 %
2506 03-12-2019 09:41:17 3.6 C 41 %
2507 03-12-2019 09:51:17 3.7 C 41 %
2508 03-12-2019 10:01:17 3.7 C 41 %
2509 03-12-2019 10:11:17 3.8 C 41 %
2510 03-12-2019 10:21:17 3.8 C 41 %
2511 03-12-2019 10:31:17 3.8 C 41 %
2512 03-12-2019 10:41:17 4.1 C 40 %
2513 03-12-2019 10:51:17 4.1 C 40 %
2514 03-12-2019 11:01:18 4.3 C 39 %
2515 03-12-2019 11:11:18 4.3 C 37 %
2516 03-12-2019 11:21:17 4.4 C 37 %
2517 03-12-2019 11:31:17 4.6 C 37 %
2518 03-12-2019 11:41:17 4.6 C 37 %
2519 03-12-2019 11:51:17 4.7 C 37 %
2520 03-12-2019 12:01:17 4.7 C 37 %
2521 03-12-2019 12:11:17 4.9 C 35 %
2522 03-12-2019 12:21:17 5 C 34 %
2523 03-12-2019 12:31:17 5 C 35 %
2524 03-12-2019 12:41:17 5.2 C 35 %
2525 03-12-2019 12:51:18 5.3 C 34 %
Sensor: Nr:Datum:Temp:Feuchte:
Aussen-T/F 2526 03-12-2019 13:01:17 5.6 C 34 %
2527 03-12-2019 13:11:17 5.8 C 33 %
2528 03-12-2019 13:21:17 5.8 C 32 %
2529 03-12-2019 13:31:17 5.7 C 32 %
2530 03-12-2019 13:41:17 5.9 C 32 %
2531 03-12-2019 13:51:18 6.1 C 31 %
2532 03-12-2019 14:01:17 6.1 C 31 %
2533 03-12-2019 14:11:17 6.2 C 31 %
2534 03-12-2019 14:21:17 6.1 C 31 %
2535 03-12-2019 14:31:17 6.3 C 31 %
2536 03-12-2019 14:41:17 6.2 C 30 %
2537 03-12-2019 14:51:18 6.4 C 31 %
2538 03-12-2019 15:01:17 6.2 C 30 %
2539 03-12-2019 15:11:17 6.3 C 31 %
2540 03-12-2019 15:21:17 6.3 C 31 %
2541 03-12-2019 15:31:17 6.2 C 31 %
2542 03-12-2019 15:41:17 6.1 C 32 %
2543 03-12-2019 15:51:17 6 C 33 %
2544 03-12-2019 16:01:17 5.7 C 36 %
2545 03-12-2019 16:11:17 5.6 C 39 %
2546 03-12-2019 16:21:17 5.4 C 40 %
2547 03-12-2019 16:31:18 5.3 C 41 %
2548 03-12-2019 16:41:18 5.2 C 41 %
2549 03-12-2019 16:51:17 5.2 C 41 %
2550 03-12-2019 17:01:18 5.1 C 41 %
Sensor: Nr:Datum:Temp:Feuchte:
Aussen-T/F 2551 03-12-2019 17:11:18 5.1 C 41 %
2552 03-12-2019 17:21:17 5.1 C 41 %
2553 03-12-2019 17:31:17 5 C 41 %
2554 03-12-2019 17:41:17 5 C 41 %
2555 03-12-2019 17:51:17 5 C 41 %
2556 03-12-2019 18:01:18 4.8 C 41 %
2557 03-12-2019 18:11:18 4.7 C 40 %
2558 03-12-2019 18:21:17 4.7 C 40 %
2559 03-12-2019 18:31:18 4.7 C 40 %
2560 03-12-2019 18:41:18 4.7 C 40 %
2561 03-12-2019 18:51:17 4.7 C 40 %
2562 03-12-2019 19:01:17 4.7 C 40 %
2563 03-12-2019 19:11:17 4.6 C 39 %
2564 03-12-2019 19:21:17 4.6 C 38 %
2565 03-12-2019 19:31:17 4.6 C 38 %
2566 03-12-2019 19:41:17 4.4 C 37 %
2567 03-12-2019 19:51:17 4.3 C 38 %
2568 03-12-2019 20:01:17 4.3 C 39 %
2569 03-12-2019 20:11:17 4.3 C 38 %
2570 03-12-2019 20:21:18 4.2 C 37 %
2571 03-12-2019 20:31:17 4.2 C 38 %
2572 03-12-2019 20:41:18 4.1 C 39 %
2573 03-12-2019 20:51:17 3.9 C 40 %
2574 03-12-2019 21:01:17 3.9 C 41 %
2575 03-12-2019 21:11:17 4 C 40 %
Sensor: Nr:Datum:Temp:Feuchte:
Aussen-T/F 2576 03-12-2019 21:21:17 4 C 40 %
2577 03-12-2019 21:31:17 3.8 C 40 %
2578 03-12-2019 21:41:17 3.5 C 40 %
2579 03-12-2019 21:51:17 3.3 C 40 %
2580 03-12-2019 22:01:17 2.9 C 41 %
2581 03-12-2019 22:11:17 2.8 C 42 %
2582 03-12-2019 22:21:18 2.8 C 42 %
2583 03-12-2019 22:31:18 3.3 C 42 %
2584 03-12-2019 22:41:18 3.5 C 40 %
2585 03-12-2019 22:51:17 3.2 C 38 %
2586 03-12-2019 23:01:18 2.6 C 39 %
2587 03-12-2019 23:11:18 2.5 C 41 %
2588 03-12-2019 23:21:17 2.5 C 41 %
2589 03-12-2019 23:31:17 2.2 C 40 %
2590 03-12-2019 23:41:17 2.8 C 40 %
2591 03-12-2019 23:51:17 2.6 C 38 %
2592 04-12-2019 00:01:18 2.3 C 39 %
2593 04-12-2019 00:11:18 1.7 C 41 %
2594 04-12-2019 00:21:17 1.3 C 42 %
2595 04-12-2019 00:31:17 0.9 C 43 %
2596 04-12-2019 00:41:17 0.4 C 43 %
2597 04-12-2019 00:51:17 0.6 C 45 %
2598 04-12-2019 01:01:18 0.2 C 44 %
2599 04-12-2019 01:11:18 0.2 C 45 %
2600 04-12-2019 01:21:17 0 C 44 %
Sensor: Nr:Datum:Temp:Feuchte:
Aussen-T/F 2601 04-12-2019 01:31:17 -0.1 C 45 %
2602 04-12-2019 01:41:17 0.1 C 45 %
2603 04-12-2019 01:51:18 -0.3 C 45 %
2604 04-12-2019 02:01:17 -0.3 C 45 %
2605 04-12-2019 02:11:17 -0.2 C 45 %
2606 04-12-2019 02:21:17 -0.5 C 45 %
2607 04-12-2019 02:31:18 -0.4 C 45 %
2608 04-12-2019 02:41:18 0.1 C 45 %
2609 04-12-2019 02:51:17 0.3 C 45 %
2610 04-12-2019 03:01:18 0.6 C 45 %
2611 04-12-2019 03:11:18 0.9 C 45 %
2612 04-12-2019 03:21:17 0.9 C 45 %
2613 04-12-2019 03:31:17 1 C 44 %
2614 04-12-2019 03:41:17 1 C 44 %
2615 04-12-2019 03:51:17 1 C 44 %
2616 04-12-2019 04:01:18 0.8 C 45 %
2617 04-12-2019 04:11:18 0.9 C 45 %
2618 04-12-2019 04:21:17 0.8 C 45 %
2619 04-12-2019 04:31:17 0.8 C 45 %
2620 04-12-2019 04:41:17 0.8 C 45 %
2621 04-12-2019 04:51:17 0.8 C 45 %
2622 04-12-2019 05:01:17 0.8 C 45 %
2623 04-12-2019 05:11:17 0.8 C 44 %
2624 04-12-2019 05:21:17 0.8 C 44 %
2625 04-12-2019 05:31:17 1 C 43 %
Sensor: Nr:Datum:Temp:Feuchte:
Aussen-T/F 2626 04-12-2019 05:41:17 1 C 43 %
2627 04-12-2019 05:51:18 1 C 43 %
2628 04-12-2019 06:01:17 1 C 43 %
2629 04-12-2019 06:11:17 1.1 C 43 %
2630 04-12-2019 06:21:17 1.2 C 43 %
2631 04-12-2019 06:31:17 1.2 C 43 %
2632 04-12-2019 06:41:18 1.2 C 43 %
2633 04-12-2019 06:51:17 1.2 C 43 %
2634 04-12-2019 07:01:17 1.1 C 43 %
2635 04-12-2019 07:11:17 1.1 C 43 %
2636 04-12-2019 07:21:18 1.1 C 43 %
2637 04-12-2019 07:31:17 1 C 43 %
2638 04-12-2019 07:41:17 0.9 C 44 %
2639 04-12-2019 07:51:17 1 C 43 %
2640 04-12-2019 08:01:17 0.9 C 44 %
2641 04-12-2019 08:11:17 0.9 C 44 %
2642 04-12-2019 08:21:17 0.9 C 44 %
2643 04-12-2019 08:31:17 0.9 C 44 %
2644 04-12-2019 08:41:17 1 C 42 %
2645 04-12-2019 08:51:17 1 C 42 %
2646 04-12-2019 09:01:18 1 C 42 %
2647 04-12-2019 09:11:18 1.2 C 42 %
2648 04-12-2019 09:21:18 1.2 C 42 %
2649 04-12-2019 09:31:17 1.2 C 41 %
2650 04-12-2019 09:41:17 1.2 C 41 %
Sensor: Nr:Datum:Temp:Feuchte:
Aussen-T/F 2651 04-12-2019 09:51:17 1.4 C 41 %
2652 04-12-2019 10:01:17 1.5 C 41 %
2653 04-12-2019 10:11:18 1.4 C 39 %
2654 04-12-2019 10:21:17 1.3 C 38 %
2655 04-12-2019 10:31:17 1.1 C 37 %
2656 04-12-2019 10:41:17 1.1 C 37 %
2657 04-12-2019 10:51:18 1 C 38 %
2658 04-12-2019 11:01:17 1 C 38 %
2659 04-12-2019 11:11:17 1.1 C 39 %
2660 04-12-2019 11:21:17 1.1 C 39 %
2661 04-12-2019 11:31:18 1.1 C 40 %
2662 04-12-2019 11:41:18 1 C 40 %
2663 04-12-2019 11:51:17 1.1 C 41 %
2664 04-12-2019 12:01:17 1.2 C 41 %
2665 04-12-2019 12:11:17 1.3 C 41 %
2666 04-12-2019 12:21:18 1.3 C 41 %
2667 04-12-2019 12:31:17 1.5 C 41 %
2668 04-12-2019 12:41:17 1.5 C 41 %
2669 04-12-2019 12:51:17 1.6 C 41 %
2670 04-12-2019 13:01:17 1.6 C 41 %
2671 04-12-2019 13:11:17 1.7 C 41 %
2672 04-12-2019 13:21:17 1.8 C 40 %
2673 04-12-2019 13:31:18 1.8 C 40 %
2674 04-12-2019 13:41:18 2.1 C 38 %
2675 04-12-2019 13:51:17 2.1 C 37 %
Sensor: Nr:Datum:Temp:Feuchte:
Aussen-T/F 2676 04-12-2019 14:01:17 2.1 C 37 %
2677 04-12-2019 14:11:17 2.1 C 36 %
2678 04-12-2019 14:21:17 2.1 C 36 %
2679 04-12-2019 14:31:18 2 C 36 %
2680 04-12-2019 14:41:18 2.2 C 35 %
2681 04-12-2019 14:51:17 2.1 C 36 %
2682 04-12-2019 15:01:18 2 C 37 %
2683 04-12-2019 15:11:18 1.7 C 38 %
2684 04-12-2019 15:21:17 1.7 C 40 %
2685 04-12-2019 15:31:17 1.7 C 40 %
2686 04-12-2019 15:41:17 1.8 C 39 %
2687 04-12-2019 15:51:18 1.8 C 39 %
2688 04-12-2019 16:01:17 1.6 C 37 %
2689 04-12-2019 16:11:17 1.5 C 37 %
2690 04-12-2019 16:21:17 1.4 C 37 %
2691 04-12-2019 16:31:17 1.4 C 37 %
2692 04-12-2019 16:41:17 1.2 C 37 %
2693 04-12-2019 16:51:17 1.1 C 36 %
2694 04-12-2019 17:01:17 1 C 37 %
2695 04-12-2019 17:11:17 1 C 37 %
2696 04-12-2019 17:21:18 1 C 36 %
2697 04-12-2019 17:31:17 0.9 C 38 %
2698 04-12-2019 17:41:17 0.6 C 38 %
2699 04-12-2019 17:51:18 0.7 C 39 %
2700 04-12-2019 18:01:17 0.8 C 38 %
Sensor: Nr:Datum:Temp:Feuchte:
Aussen-T/F 2701 04-12-2019 18:11:17 0.3 C 39 %
2702 04-12-2019 18:21:17 0.4 C 40 %
2703 04-12-2019 18:31:17 0.6 C 40 %
2704 04-12-2019 18:41:17 -0.2 C 40 %
2705 04-12-2019 18:51:17 -0.5 C 41 %
2706 04-12-2019 19:01:17 -0.3 C 44 %
2707 04-12-2019 19:11:17 -0.7 C 42 %
2708 04-12-2019 19:21:17 -1.1 C 42 %
2709 04-12-2019 19:31:17 -1 C 44 %
2710 04-12-2019 19:41:17 -1.2 C 44 %
2711 04-12-2019 19:51:17 -1.4 C 43 %
2712 04-12-2019 20:01:17 -1.3 C 44 %
2713 04-12-2019 20:11:17 -1.1 C 45 %
2714 04-12-2019 20:21:17 -1.5 C 44 %
2715 04-12-2019 20:31:17 -1.5 C 44 %
2716 04-12-2019 20:41:17 -1.8 C 43 %
2717 04-12-2019 20:51:18 -1.9 C 44 %
2718 04-12-2019 21:01:18 -1.9 C 44 %
2719 04-12-2019 21:11:18 -1.7 C 44 %
2720 04-12-2019 21:21:17 -2 C 43 %
2721 04-12-2019 21:31:17 -2 C 43 %
2722 04-12-2019 21:41:17 -2.4 C 43 %
2723 04-12-2019 21:51:17 -2.4 C 43 %
2724 04-12-2019 22:01:17 -2.5 C 43 %
2725 04-12-2019 22:11:17 -2.6 C 43 %
Sensor: Nr:Datum:Temp:Feuchte:
Aussen-T/F 2726 04-12-2019 22:21:17 -2.7 C 44 %
2727 04-12-2019 22:31:18 -2.8 C 43 %
2728 04-12-2019 22:41:18 -2.7 C 43 %
2729 04-12-2019 22:51:17 -2.5 C 43 %
2730 04-12-2019 23:01:17 -2.6 C 42 %
2731 04-12-2019 23:11:17 -2.9 C 42 %
2732 04-12-2019 23:21:17 -2.7 C 42 %
2733 04-12-2019 23:31:17 -2.7 C 42 %
2734 04-12-2019 23:41:17 -2.9 C 41 %
2735 04-12-2019 23:51:18 -2.9 C 42 %
2736 05-12-2019 00:01:17 -3 C 41 %
2737 05-12-2019 00:11:17 -3 C 41 %
2738 05-12-2019 00:21:17 -3.1 C 41 %
2739 05-12-2019 00:31:18 -2.8 C 41 %
2740 05-12-2019 00:41:18 -2.8 C 41 %
2741 05-12-2019 00:51:17 -2.9 C 41 %
2742 05-12-2019 01:01:17 -2.9 C 41 %
2743 05-12-2019 01:11:17 -3.2 C 41 %
2744 05-12-2019 01:21:17 -2.5 C 43 %
2745 05-12-2019 01:31:18 -2.6 C 43 %
2746 05-12-2019 01:41:18 -2.7 C 43 %
2747 05-12-2019 01:51:17 -2.6 C 43 %
2748 05-12-2019 02:01:17 -2.6 C 42 %
2749 05-12-2019 02:11:18 -2.8 C 41 %
2750 05-12-2019 02:21:17 -3 C 41 %
Sensor: Nr:Datum:Temp:Feuchte:
Aussen-T/F 2751 05-12-2019 02:31:17 -3.2 C 41 %
2752 05-12-2019 02:41:17 -3.2 C 41 %
2753 05-12-2019 02:51:17 -3.2 C 41 %
2754 05-12-2019 03:01:17 -3.4 C 40 %
2755 05-12-2019 03:11:17 -3.5 C 40 %
2756 05-12-2019 03:21:17 -3.3 C 41 %
2757 05-12-2019 03:31:17 -3.2 C 41 %
2758 05-12-2019 03:41:17 -3.6 C 40 %
2759 05-12-2019 03:51:17 -3 C 43 %
2760 05-12-2019 04:01:17 -2.7 C 43 %
2761 05-12-2019 04:11:17 -2.7 C 43 %
2762 05-12-2019 04:21:17 -2.7 C 43 %
2763 05-12-2019 04:31:18 -2.9 C 42 %
2764 05-12-2019 04:41:18 -3.3 C 40 %
2765 05-12-2019 04:51:17 -2.9 C 42 %
2766 05-12-2019 05:01:17 -2.8 C 43 %
2767 05-12-2019 05:11:17 -2.8 C 42 %
2768 05-12-2019 05:21:17 -2.7 C 43 %
2769 05-12-2019 05:31:17 -2.7 C 43 %
2770 05-12-2019 05:41:18 -2.5 C 43 %
2771 05-12-2019 05:51:17 -2.5 C 43 %
2772 05-12-2019 06:01:17 -2.6 C 43 %
2773 05-12-2019 06:11:17 -2.7 C 43 %
2774 05-12-2019 06:21:17 -2.9 C 43 %
2775 05-12-2019 06:31:17 -2.9 C 43 %
Sensor: Nr:Datum:Temp:Feuchte:
Aussen-T/F 2776 05-12-2019 06:41:17 -3 C 42 %
2777 05-12-2019 06:51:17 -2.9 C 43 %
2778 05-12-2019 07:01:17 -2.9 C 42 %
2779 05-12-2019 07:11:17 -2.9 C 42 %
2780 05-12-2019 07:21:17 -3.2 C 42 %
2781 05-12-2019 07:31:17 -3.1 C 42 %
2782 05-12-2019 07:41:18 -2.9 C 42 %
2783 05-12-2019 07:51:17 -2.9 C 42 %
2784 05-12-2019 08:01:17 -3 C 42 %
2785 05-12-2019 08:11:17 -2.8 C 43 %
2786 05-12-2019 08:21:18 -2.9 C 42 %
2787 05-12-2019 08:31:17 -2.8 C 42 %
2788 05-12-2019 08:41:17 -3 C 42 %
2789 05-12-2019 08:51:17 -3 C 42 %
2790 05-12-2019 09:01:18 -2.7 C 43 %
2791 05-12-2019 09:11:18 -2.6 C 43 %
2792 05-12-2019 09:21:17 -2.6 C 42 %
2793 05-12-2019 09:31:17 -2.6 C 42 %
2794 05-12-2019 09:41:17 -2.5 C 43 %
2795 05-12-2019 09:51:17 -2.4 C 42 %
2796 05-12-2019 10:01:18 -2.3 C 42 %
2797 05-12-2019 10:11:18 -2.4 C 42 %
2798 05-12-2019 10:21:17 -2.1 C 43 %
2799 05-12-2019 10:31:17 -1.7 C 43 %
2800 05-12-2019 10:41:17 -2 C 42 %
Sensor: Nr:Datum:Temp:Feuchte:
Aussen-T/F 2801 05-12-2019 10:51:18 -1.7 C 42 %
2802 05-12-2019 11:01:17 -1.7 C 43 %
2803 05-12-2019 11:11:17 -1.4 C 42 %
2804 05-12-2019 11:21:17 -1.2 C 41 %
2805 05-12-2019 11:31:18 -1.2 C 41 %
2806 05-12-2019 11:41:18 -0.7 C 42 %
2807 05-12-2019 11:51:17 -0.9 C 42 %
2808 05-12-2019 12:01:18 -1 C 41 %
2809 05-12-2019 12:11:18 -0.8 C 41 %
2810 05-12-2019 12:21:17 -0.6 C 41 %
2811 05-12-2019 12:31:17 -0.8 C 40 %
2812 05-12-2019 12:41:17 -0.9 C 40 %
2813 05-12-2019 12:51:18 -0.6 C 41 %
2814 05-12-2019 13:01:17 -0.5 C 40 %
2815 05-12-2019 13:11:17 -0.6 C 40 %
2816 05-12-2019 13:21:17 -0.4 C 41 %
2817 05-12-2019 13:31:17 -0.4 C 41 %
2818 05-12-2019 13:41:17 -0.2 C 41 %
2819 05-12-2019 13:51:17 0.1 C 40 %
2820 05-12-2019 14:01:18 0.1 C 40 %
2821 05-12-2019 14:11:18 0.2 C 40 %
2822 05-12-2019 14:21:17 0.2 C 40 %
2823 05-12-2019 14:31:17 0.2 C 40 %
2824 05-12-2019 14:41:17 0.2 C 40 %
2825 05-12-2019 14:51:17 0.2 C 41 %
Sensor: Nr:Datum:Temp:Feuchte:
Aussen-T/F 2826 05-12-2019 15:01:17 0.1 C 41 %
2827 05-12-2019 15:11:17 0 C 41 %
2828 05-12-2019 15:21:17 -0.1 C 42 %
2829 05-12-2019 15:31:17 -0.1 C 43 %
2830 05-12-2019 15:41:17 -0.1 C 44 %
2831 05-12-2019 15:51:18 -0.1 C 44 %
2832 05-12-2019 16:01:17 -0.4 C 44 %
2833 05-12-2019 16:11:17 -0.5 C 44 %
2834 05-12-2019 16:21:17 -0.7 C 45 %
2835 05-12-2019 16:31:18 -0.8 C 44 %
2836 05-12-2019 16:41:18 -1 C 44 %
2837 05-12-2019 16:51:17 -1 C 44 %
2838 05-12-2019 17:01:17 -1.2 C 44 %
2839 05-12-2019 17:11:17 -1.1 C 45 %
2840 05-12-2019 17:21:18 -1.2 C 45 %
2841 05-12-2019 17:31:17 -1.3 C 44 %
2842 05-12-2019 17:41:17 -1.7 C 44 %
2843 05-12-2019 17:51:17 -1.6 C 44 %
2844 05-12-2019 18:01:18 -1.8 C 43 %
2845 05-12-2019 18:11:18 -2 C 43 %
2846 05-12-2019 18:21:17 -2 C 43 %
2847 05-12-2019 18:31:17 -2 C 43 %
2848 05-12-2019 18:41:17 -2.2 C 43 %
2849 05-12-2019 18:51:18 -2.5 C 42 %
2850 05-12-2019 19:01:17 -2.1 C 43 %
Sensor: Nr:Datum:Temp:Feuchte:
Aussen-T/F 2851 05-12-2019 19:11:17 -2.1 C 44 %
2852 05-12-2019 19:21:17 -2.6 C 42 %
2853 05-12-2019 19:31:17 -2.9 C 41 %
2854 05-12-2019 19:41:17 -2.6 C 42 %
2855 05-12-2019 19:51:18 -1.9 C 43 %
2856 05-12-2019 20:01:17 -1.5 C 44 %
2857 05-12-2019 20:11:17 -1.6 C 43 %
2858 05-12-2019 20:21:17 -1.5 C 43 %
2859 05-12-2019 20:31:17 -1.9 C 42 %
2860 05-12-2019 20:41:17 -2 C 42 %
2861 05-12-2019 20:51:18 -2.1 C 42 %
2862 05-12-2019 21:01:17 -2.3 C 42 %
2863 05-12-2019 21:11:17 -2.6 C 42 %
2864 05-12-2019 21:21:17 -2.1 C 43 %
2865 05-12-2019 21:31:17 -2 C 43 %
2866 05-12-2019 21:41:17 -2 C 43 %
2867 05-12-2019 21:51:17 -2 C 43 %
2868 05-12-2019 22:01:17 -2.3 C 42 %
2869 05-12-2019 22:11:17 -2.3 C 42 %
2870 05-12-2019 22:21:18 -2.2 C 42 %
2871 05-12-2019 22:31:17 -2.4 C 42 %
2872 05-12-2019 22:41:17 -2.4 C 42 %
2873 05-12-2019 22:51:17 -2.3 C 42 %
2874 05-12-2019 23:01:17 -2.6 C 41 %
2875 05-12-2019 23:11:17 -2.7 C 41 %
Sensor: Nr:Datum:Temp:Feuchte:
Aussen-T/F 2876 05-12-2019 23:21:18 -2.7 C 42 %
2877 05-12-2019 23:31:17 -3.1 C 41 %
2878 05-12-2019 23:41:17 -3.3 C 41 %
2879 05-12-2019 23:51:17 -3.2 C 42 %
2880 06-12-2019 00:01:18 -2.9 C 42 %
2881 06-12-2019 00:11:18 -3.4 C 40 %
2882 06-12-2019 00:21:17 -3.8 C 40 %
2883 06-12-2019 00:31:17 -3.4 C 42 %
2884 06-12-2019 00:41:17 -3.2 C 42 %
2885 06-12-2019 00:51:17 -2.7 C 43 %
2886 06-12-2019 01:01:17 -2.4 C 43 %
2887 06-12-2019 01:11:17 -2.1 C 43 %
2888 06-12-2019 01:21:17 -2 C 41 %
2889 06-12-2019 01:31:18 -1.8 C 42 %
2890 06-12-2019 01:41:18 -1.6 C 43 %
2891 06-12-2019 01:51:17 -1.6 C 43 %
2892 06-12-2019 02:01:17 -1.4 C 42 %
2893 06-12-2019 02:11:17 -1.4 C 40 %
2894 06-12-2019 02:21:17 -1.6 C 40 %
2895 06-12-2019 02:31:17 -1.5 C 40 %
2896 06-12-2019 02:41:17 -1.7 C 39 %
2897 06-12-2019 02:51:17 -1.6 C 40 %
2898 06-12-2019 03:01:18 -1.4 C 39 %
2899 06-12-2019 03:11:18 -1.2 C 39 %
2900 06-12-2019 03:21:17 -1 C 38 %
Sensor: Nr:Datum:Temp:Feuchte:
Aussen-T/F 2901 06-12-2019 03:31:17 -1 C 37 %
2902 06-12-2019 03:41:17 -1 C 38 %
2903 06-12-2019 03:51:17 -1.1 C 37 %
2904 06-12-2019 04:01:17 -1.2 C 38 %
2905 06-12-2019 04:11:17 -1.3 C 37 %
2906 06-12-2019 04:21:17 -1.3 C 38 %
2907 06-12-2019 04:31:17 -1.1 C 38 %
2908 06-12-2019 04:41:17 -1.1 C 38 %
2909 06-12-2019 04:51:17 -0.8 C 38 %
2910 06-12-2019 05:01:17 -1 C 38 %
2911 06-12-2019 05:11:17 -0.8 C 37 %
2912 06-12-2019 05:21:17 -0.9 C 36 %
2913 06-12-2019 05:31:18 -1 C 37 %
2914 06-12-2019 05:41:18 -0.8 C 38 %
2915 06-12-2019 05:51:17 -0.6 C 36 %
2916 06-12-2019 06:01:17 -0.6 C 35 %
2917 06-12-2019 06:11:17 -0.6 C 36 %
2918 06-12-2019 06:21:17 -0.5 C 36 %
2919 06-12-2019 06:31:17 -0.5 C 35 %
2920 06-12-2019 06:41:17 -0.4 C 36 %
2921 06-12-2019 06:51:18 -0.4 C 37 %
2922 06-12-2019 07:01:17 -0.4 C 38 %
2923 06-12-2019 07:11:17 -0.4 C 38 %
2924 06-12-2019 07:21:17 -0.1 C 37 %
2925 06-12-2019 07:31:17 0 C 36 %
Sensor: Nr:Datum:Temp:Feuchte:
Aussen-T/F 2926 06-12-2019 07:41:17 0.2 C 34 %
2927 06-12-2019 07:51:18 0.4 C 32 %
2928 06-12-2019 08:01:17 0.4 C 32 %
2929 06-12-2019 08:11:17 0.4 C 32 %
2930 06-12-2019 08:21:17 0.4 C 35 %
2931 06-12-2019 08:31:17 0.6 C 32 %
2932 06-12-2019 08:41:17 0.5 C 35 %
2933 06-12-2019 08:51:18 0.5 C 35 %
2934 06-12-2019 09:01:17 0.6 C 36 %
2935 06-12-2019 09:11:17 0.8 C 36 %
2936 06-12-2019 09:21:17 1.2 C 33 %
2937 06-12-2019 09:31:17 1.4 C 33 %
2938 06-12-2019 09:41:17 1.5 C 33 %
2939 06-12-2019 09:51:17 1.7 C 34 %
2940 06-12-2019 10:01:17 1.8 C 33 %
2941 06-12-2019 10:11:17 1.8 C 35 %
2942 06-12-2019 10:21:18 1.9 C 36 %
2943 06-12-2019 10:31:17 1.9 C 36 %
2944 06-12-2019 10:41:17 2.4 C 35 %
2945 06-12-2019 10:51:17 2.5 C 35 %
2946 06-12-2019 11:01:18 2.7 C 35 %
2947 06-12-2019 11:11:18 3.2 C 32 %
2948 06-12-2019 11:21:17 3.3 C 32 %
2949 06-12-2019 11:31:17 3.5 C 32 %
2950 06-12-2019 11:41:17 3.5 C 32 %
Sensor: Nr:Datum:Temp:Feuchte:
Aussen-T/F 2951 06-12-2019 11:51:17 3.5 C 33 %
2952 06-12-2019 12:01:17 3.6 C 33 %
2953 06-12-2019 12:11:17 3.6 C 33 %
2954 06-12-2019 12:21:17 3.6 C 35 %
2955 06-12-2019 12:31:18 3.7 C 37 %
2956 06-12-2019 12:41:18 3.7 C 39 %
2957 06-12-2019 12:51:17 3.7 C 40 %
2958 06-12-2019 13:01:17 3.8 C 39 %
2959 06-12-2019 13:11:17 3.9 C 38 %
2960 06-12-2019 13:21:17 4 C 36 %
2961 06-12-2019 13:31:18 4.2 C 35 %
2962 06-12-2019 13:41:18 4.2 C 35 %
2963 06-12-2019 13:51:17 4.1 C 36 %
2964 06-12-2019 14:01:17 4.1 C 39 %
2965 06-12-2019 14:11:17 4.2 C 40 %
2966 06-12-2019 14:21:17 4.2 C 38 %
2967 06-12-2019 14:31:18 4.2 C 38 %
2968 06-12-2019 14:41:18 4.4 C 38 %
2969 06-12-2019 14:51:17 4.4 C 39 %
2970 06-12-2019 15:01:17 4.3 C 38 %
2971 06-12-2019 15:11:17 4.4 C 38 %
2972 06-12-2019 15:21:17 4.7 C 36 %
2973 06-12-2019 15:31:17 4.5 C 37 %
2974 06-12-2019 15:41:17 4.5 C 37 %
2975 06-12-2019 15:51:18 4.6 C 37 %
Sensor: Nr:Datum:Temp:Feuchte:
Aussen-T/F 2976 06-12-2019 16:01:18 4.8 C 38 %
2977 06-12-2019 16:11:18 5 C 34 %
2978 06-12-2019 16:21:17 5.2 C 32 %
2979 06-12-2019 16:31:17 5.1 C 32 %
2980 06-12-2019 16:41:17 5.3 C 32 %
2981 06-12-2019 16:51:17 5.2 C 31 %
2982 06-12-2019 17:01:17 5.2 C 31 %
2983 06-12-2019 17:11:17 5.3 C 31 %
2984 06-12-2019 17:21:17 5.3 C 30 %
2985 06-12-2019 17:31:18 5.5 C 30 %
2986 06-12-2019 17:41:18 5.6 C 29 %
2987 06-12-2019 17:51:17 5.5 C 30 %
2988 06-12-2019 18:01:17 5.9 C 29 %
2989 06-12-2019 18:11:17 6 C 28 %
2990 06-12-2019 18:21:18 6.2 C 29 %
2991 06-12-2019 18:31:17 6.1 C 28 %
2992 06-12-2019 18:41:17 6.1 C 29 %
2993 06-12-2019 18:51:17 5.9 C 30 %
2994 06-12-2019 19:01:17 5.6 C 31 %
2995 06-12-2019 19:11:17 5.8 C 32 %
2996 06-12-2019 19:21:17 5.9 C 31 %
2997 06-12-2019 19:31:17 6.2 C 30 %
2998 06-12-2019 19:41:17 6.5 C 28 %
2999 06-12-2019 19:51:17 6.5 C 28 %
3000 06-12-2019 20:01:17 6.8 C 28 %
Sensor: Nr:Datum:Temp:Feuchte:
Aussen-T/F 3001 06-12-2019 20:11:17 6.7 C 28 %
3002 06-12-2019 20:21:17 6.8 C 28 %
3003 06-12-2019 20:31:17 6.7 C 28 %
3004 06-12-2019 20:41:17 6.7 C 28 %
3005 06-12-2019 20:51:18 6.7 C 28 %
3006 06-12-2019 21:01:17 6.8 C 27 %
3007 06-12-2019 21:11:17 6.7 C 28 %
3008 06-12-2019 21:21:17 6.7 C 28 %
3009 06-12-2019 21:31:17 6.6 C 28 %
3010 06-12-2019 21:41:17 6.5 C 28 %
3011 06-12-2019 21:51:17 6.5 C 29 %
3012 06-12-2019 22:01:17 6.6 C 29 %
3013 06-12-2019 22:11:17 6.7 C 28 %
3014 06-12-2019 22:21:17 6.7 C 28 %
3015 06-12-2019 22:31:17 6.7 C 28 %
3016 06-12-2019 22:41:17 6.9 C 28 %
3017 06-12-2019 22:51:17 6.9 C 27 %
3018 06-12-2019 23:01:18 7 C 27 %
3019 06-12-2019 23:11:18 6.9 C 28 %
3020 06-12-2019 23:21:17 6.8 C 29 %
3021 06-12-2019 23:31:17 6.8 C 29 %
3022 06-12-2019 23:41:17 6.9 C 29 %
3023 06-12-2019 23:51:18 6.8 C 30 %
3024 07-12-2019 00:01:17 6.9 C 30 %
3025 07-12-2019 00:11:17 7 C 28 %
Sensor: Nr:Datum:Temp:Feuchte:
Aussen-T/F 3026 07-12-2019 00:21:17 7.2 C 28 %
3027 07-12-2019 00:31:17 7.2 C 28 %
3028 07-12-2019 00:41:17 7.2 C 28 %
3029 07-12-2019 00:51:17 7.4 C 28 %
3030 07-12-2019 01:01:17 7.4 C 28 %
3031 07-12-2019 01:11:17 7.6 C 28 %
3032 07-12-2019 01:21:17 7.7 C 28 %
3033 07-12-2019 01:31:18 7.8 C 28 %
3034 07-12-2019 01:41:18 7.6 C 29 %
3035 07-12-2019 01:51:17 7.6 C 29 %
3036 07-12-2019 02:01:17 7.5 C 30 %
3037 07-12-2019 02:11:17 7.7 C 31 %
3038 07-12-2019 02:21:17 7.5 C 31 %
3039 07-12-2019 02:31:17 7.1 C 35 %
3040 07-12-2019 02:41:17 7.2 C 38 %
3041 07-12-2019 02:51:17 7.3 C 35 %
3042 07-12-2019 03:01:17 7.4 C 35 %
3043 07-12-2019 03:11:17 7.6 C 33 %
3044 07-12-2019 03:21:17 8.4 C 30 %
3045 07-12-2019 03:31:17 8.5 C 29 %
3046 07-12-2019 03:41:17 8.7 C 28 %
3047 07-12-2019 03:51:17 9 C 27 %
3048 07-12-2019 04:01:18 8.4 C 29 %
3049 07-12-2019 04:11:18 8.5 C 29 %
3050 07-12-2019 04:21:17 8 C 30 %
Sensor: Nr:Datum:Temp:Feuchte:
Aussen-T/F 3051 07-12-2019 04:31:17 7.9 C 30 %
3052 07-12-2019 04:41:17 8 C 30 %
3053 07-12-2019 04:51:17 8 C 30 %
3054 07-12-2019 05:01:17 7.7 C 30 %
3055 07-12-2019 05:11:17 8 C 30 %
3056 07-12-2019 05:21:17 8 C 30 %
3057 07-12-2019 05:31:17 7.8 C 31 %
3058 07-12-2019 05:41:17 8.2 C 30 %
3059 07-12-2019 05:51:18 7.2 C 31 %
3060 07-12-2019 06:01:18 7.6 C 30 %
3061 07-12-2019 06:11:18 8.7 C 26 %
3062 07-12-2019 06:21:17 8.6 C 26 %
3063 07-12-2019 06:31:18 8.2 C 26 %
3064 07-12-2019 06:41:18 8.1 C 26 %
3065 07-12-2019 06:51:17 7.5 C 27 %
3066 07-12-2019 07:01:17 6.8 C 30 %
3067 07-12-2019 07:11:17 7.1 C 28 %
3068 07-12-2019 07:21:17 7.3 C 27 %
3069 07-12-2019 07:31:17 6.8 C 30 %
3070 07-12-2019 07:41:17 6.3 C 31 %
3071 07-12-2019 07:51:18 7.8 C 28 %
3072 07-12-2019 08:01:18 8 C 27 %
3073 07-12-2019 08:11:18 7.9 C 28 %
3074 07-12-2019 08:21:17 8.1 C 28 %
3075 07-12-2019 08:31:17 8.1 C 27 %
Sensor: Nr:Datum:Temp:Feuchte:
Aussen-T/F 3076 07-12-2019 08:41:17 8.3 C 28 %
3077 07-12-2019 08:51:17 8.4 C 27 %
3078 07-12-2019 09:01:17 8.4 C 27 %
3079 07-12-2019 09:11:17 8.3 C 28 %
3080 07-12-2019 09:21:17 8.2 C 28 %
3081 07-12-2019 09:31:17 8.1 C 29 %
3082 07-12-2019 09:41:17 8.3 C 28 %
3083 07-12-2019 09:51:18 8.6 C 27 %
3084 07-12-2019 10:01:17 8.6 C 27 %
3085 07-12-2019 10:11:17 8.8 C 27 %
3086 07-12-2019 10:21:17 9 C 26 %
3087 07-12-2019 10:31:17 9.1 C 25 %
3088 07-12-2019 10:41:17 9.1 C 26 %
3089 07-12-2019 10:51:18 9.2 C 25 %
3090 07-12-2019 11:01:18 9 C 26 %
3091 07-12-2019 11:11:18 8.4 C 29 %
3092 07-12-2019 11:21:17 8.3 C 30 %
3093 07-12-2019 11:31:17 8.4 C 30 %
3094 07-12-2019 11:41:17 8.5 C 30 %
3095 07-12-2019 11:51:17 8.6 C 28 %
3096 07-12-2019 12:01:17 8.8 C 27 %
3097 07-12-2019 12:11:17 8.9 C 27 %
3098 07-12-2019 12:21:17 9.2 C 25 %
3099 07-12-2019 12:31:18 9.4 C 25 %
3100 07-12-2019 12:41:18 9.5 C 25 %
Sensor: Nr:Datum:Temp:Feuchte:
Aussen-T/F 3101 07-12-2019 12:51:17 9.5 C 25 %
3102 07-12-2019 13:01:17 9.7 C 23 %
3103 07-12-2019 13:11:17 10 C 20 %
3104 07-12-2019 13:21:17 9.8 C 20 %
3105 07-12-2019 13:31:17 9.8 C 20 %
3106 07-12-2019 13:41:17 9.9 C 20 %
3107 07-12-2019 13:51:17 9.9 C 20 %
3108 07-12-2019 14:01:17 9.8 C 20 %
3109 07-12-2019 14:11:17 9.7 C 20 %
3110 07-12-2019 14:21:17 9.9 C 20 %
3111 07-12-2019 14:31:18 9.9 C 20 %
3112 07-12-2019 14:41:18 9.9 C 20 %
3113 07-12-2019 14:51:17 9.9 C 20 %
3114 07-12-2019 15:01:17 9.9 C 20 %
3115 07-12-2019 15:11:17 9.7 C 21 %
3116 07-12-2019 15:21:17 9.6 C 21 %
3117 07-12-2019 15:31:17 9.7 C 21 %
3118 07-12-2019 15:41:17 9.6 C 20 %
3119 07-12-2019 15:51:17 9.4 C 23 %
3120 07-12-2019 16:01:17 9 C 25 %
3121 07-12-2019 16:11:17 8.9 C 25 %
3122 07-12-2019 16:21:18 8.8 C 25 %
3123 07-12-2019 16:31:17 8.6 C 26 %
3124 07-12-2019 16:41:18 8.5 C 26 %
3125 07-12-2019 16:51:17 8.2 C 27 %
Sensor: Nr:Datum:Temp:Feuchte:
Aussen-T/F 3126 07-12-2019 17:01:17 8.1 C 29 %
3127 07-12-2019 17:11:17 8.2 C 28 %
3128 07-12-2019 17:21:17 8.1 C 28 %
3129 07-12-2019 17:31:18 8.2 C 28 %
3130 07-12-2019 17:41:18 8.3 C 27 %
3131 07-12-2019 17:51:17 8.1 C 27 %
3132 07-12-2019 18:01:18 8 C 28 %
3133 07-12-2019 18:11:18 8 C 27 %
3134 07-12-2019 18:21:17 7.8 C 28 %
3135 07-12-2019 18:31:17 7.7 C 29 %
3136 07-12-2019 18:41:17 7.6 C 30 %
3137 07-12-2019 18:51:17 7.6 C 30 %
3138 07-12-2019 19:01:17 7.5 C 31 %
3139 07-12-2019 19:11:17 7.5 C 31 %
3140 07-12-2019 19:21:17 7.5 C 32 %
3141 07-12-2019 19:31:17 7.7 C 31 %
3142 07-12-2019 19:41:17 7.6 C 30 %
3143 07-12-2019 19:51:17 7.7 C 30 %
3144 07-12-2019 20:01:18 7.4 C 30 %
3145 07-12-2019 20:11:18 7.3 C 31 %
3146 07-12-2019 20:21:17 7.3 C 31 %
3147 07-12-2019 20:31:17 7.4 C 30 %
3148 07-12-2019 20:41:17 7.6 C 30 %
3149 07-12-2019 20:51:17 7.6 C 30 %
3150 07-12-2019 21:01:17 7.5 C 30 %
Sensor: Nr:Datum:Temp:Feuchte:
Aussen-T/F 3151 07-12-2019 21:11:17 7.6 C 30 %
3152 07-12-2019 21:21:17 8 C 28 %
3153 07-12-2019 21:31:17 8.1 C 28 %
3154 07-12-2019 21:41:17 8.2 C 28 %
3155 07-12-2019 21:51:17 7.9 C 28 %
3156 07-12-2019 22:01:17 8.2 C 28 %
3157 07-12-2019 22:11:17 8.1 C 27 %
3158 07-12-2019 22:21:17 7.8 C 28 %
3159 07-12-2019 22:31:18 7.7 C 30 %
3160 07-12-2019 22:41:18 7.6 C 30 %
3161 07-12-2019 22:51:17 7.5 C 31 %
3162 07-12-2019 23:01:17 7.4 C 32 %
3163 07-12-2019 23:11:17 7.6 C 31 %
3164 07-12-2019 23:21:17 7.6 C 32 %
3165 07-12-2019 23:31:17 7.5 C 32 %
3166 07-12-2019 23:41:17 7.7 C 31 %
3167 07-12-2019 23:51:18 7.9 C 28 %
3168 08-12-2019 00:01:17 8.1 C 27 %
3169 08-12-2019 00:11:17 8.9 C 23 %
3170 08-12-2019 00:21:17 8.9 C 21 %
3171 08-12-2019 00:31:18 9 C 21 %
3172 08-12-2019 00:41:18 8.9 C 23 %
3173 08-12-2019 00:51:17 8.5 C 25 %
3174 08-12-2019 01:01:18 8.3 C 25 %
3175 08-12-2019 01:11:18 8.5 C 25 %
Sensor: Nr:Datum:Temp:Feuchte:
Aussen-T/F 3176 08-12-2019 01:21:17 8.4 C 26 %
3177 08-12-2019 01:31:17 8.9 C 25 %
3178 08-12-2019 01:41:17 8.8 C 25 %
3179 08-12-2019 01:51:18 9.2 C 20 %
3180 08-12-2019 02:01:17 9.2 C 20 %
3181 08-12-2019 02:11:17 8.9 C 20 %
3182 08-12-2019 02:21:17 9 C 20 %
3183 08-12-2019 02:31:17 9.1 C 20 %
3184 08-12-2019 02:41:18 9 C 20 %
3185 08-12-2019 02:51:17 9.1 C 20 %
3186 08-12-2019 03:01:17 9 C 20 %
3187 08-12-2019 03:11:17 9.1 C 20 %
3188 08-12-2019 03:21:17 9.1 C 20 %
3189 08-12-2019 03:31:17 9.3 C 20 %
3190 08-12-2019 03:41:17 9.3 C 20 %
3191 08-12-2019 03:51:17 9.4 C 20 %
3192 08-12-2019 04:01:17 9.7 C 20 %
3193 08-12-2019 04:11:18 9.6 C 20 %
3194 08-12-2019 04:21:17 9.5 C 20 %
3195 08-12-2019 04:31:17 9.6 C 20 %
3196 08-12-2019 04:41:17 9.6 C 20 %
3197 08-12-2019 04:51:17 9.5 C 20 %
3198 08-12-2019 05:01:17 9.6 C 20 %
3199 08-12-2019 05:11:17 9.5 C 21 %
3200 08-12-2019 05:21:17 9.5 C 21 %
Sensor: Nr:Datum:Temp:Feuchte:
Aussen-T/F 3201 08-12-2019 05:31:17 9.4 C 23 %
3202 08-12-2019 05:41:17 9.5 C 23 %
3203 08-12-2019 05:51:17 9.2 C 25 %
3204 08-12-2019 06:01:17 9.3 C 25 %
3205 08-12-2019 06:11:18 9.5 C 25 %
3206 08-12-2019 06:21:17 9.9 C 21 %
3207 08-12-2019 06:31:17 9.8 C 23 %
3208 08-12-2019 06:41:17 9.7 C 25 %
3209 08-12-2019 06:51:17 9.9 C 23 %
3210 08-12-2019 07:01:18 10 C 21 %
3211 08-12-2019 07:11:18 10.1 C 20 %
3212 08-12-2019 07:21:17 9.9 C 21 %
3213 08-12-2019 07:31:17 10 C 21 %
3214 08-12-2019 07:41:17 10.1 C 20 %
3215 08-12-2019 07:51:17 10 C 20 %
3216 08-12-2019 08:01:17 10 C 20 %
3217 08-12-2019 08:11:17 10.2 C 20 %
3218 08-12-2019 08:21:17 10.1 C 20 %
3219 08-12-2019 08:31:17 10.3 C 21 %
3220 08-12-2019 08:41:17 10.1 C 21 %
3221 08-12-2019 08:51:17 10.3 C 21 %
3222 08-12-2019 09:01:17 10.3 C 21 %
3223 08-12-2019 09:11:17 10.1 C 21 %
3224 08-12-2019 09:21:17 10.2 C 21 %
3225 08-12-2019 09:31:17 10.3 C 21 %
Sensor: Nr:Datum:Temp:Feuchte:
Aussen-T/F 3226 08-12-2019 09:41:17 10.4 C 21 %
3227 08-12-2019 09:51:17 10.4 C 21 %
3228 08-12-2019 10:01:17 10.4 C 21 %
3229 08-12-2019 10:11:17 10.5 C 21 %
3230 08-12-2019 10:21:17 10.5 C 22 %
3231 08-12-2019 10:31:17 10.5 C 22 %
3232 08-12-2019 10:41:17 10.1 C 25 %
3233 08-12-2019 10:51:17 10.2 C 25 %
3234 08-12-2019 11:01:17 10.5 C 25 %
3235 08-12-2019 11:11:17 10.6 C 23 %
3236 08-12-2019 11:21:17 10.8 C 23 %
3237 08-12-2019 11:31:17 10.8 C 23 %
3238 08-12-2019 11:41:17 10.8 C 22 %
3239 08-12-2019 11:51:17 11 C 22 %
3240 08-12-2019 12:01:18 11.1 C 22 %
3241 08-12-2019 12:11:18 11.3 C 22 %
3242 08-12-2019 12:21:17 11.4 C 22 %
3243 08-12-2019 12:31:17 11.4 C 22 %
3244 08-12-2019 12:41:17 11.4 C 23 %
3245 08-12-2019 12:51:17 11.3 C 24 %
3246 08-12-2019 13:01:18 11.5 C 24 %
3247 08-12-2019 13:11:18 11.5 C 22 %
3248 08-12-2019 13:21:17 11.3 C 25 %
3249 08-12-2019 13:31:17 11.1 C 25 %
3250 08-12-2019 13:41:17 11.4 C 25 %
Sensor: Nr:Datum:Temp:Feuchte:
Aussen-T/F 3251 08-12-2019 13:51:17 11.4 C 25 %
3252 08-12-2019 14:01:17 11.5 C 25 %
3253 08-12-2019 14:11:17 11.5 C 25 %
3254 08-12-2019 14:21:17 11.5 C 25 %
3255 08-12-2019 14:31:18 11.7 C 25 %
3256 08-12-2019 14:41:18 11.7 C 25 %
3257 08-12-2019 14:51:17 11.7 C 25 %
3258 08-12-2019 15:01:18 11.8 C 25 %
3259 08-12-2019 15:11:18 11.8 C 25 %
3260 08-12-2019 15:21:18 11.7 C 25 %
3261 08-12-2019 15:31:18 11.7 C 25 %
3262 08-12-2019 15:41:18 11.8 C 25 %
3263 08-12-2019 15:51:17 11.8 C 25 %
3264 08-12-2019 16:01:17 11.7 C 25 %
3265 08-12-2019 16:11:17 11.8 C 25 %
3266 08-12-2019 16:21:18 11.7 C 25 %
3267 08-12-2019 16:31:18 11.6 C 26 %
3268 08-12-2019 16:41:18 11.4 C 27 %
3269 08-12-2019 16:51:17 9.4 C 31 %
3270 08-12-2019 17:01:17 8.9 C 33 %
3271 08-12-2019 17:11:17 8.8 C 33 %
3272 08-12-2019 17:21:17 8.7 C 34 %
3273 08-12-2019 17:31:17 9.2 C 27 %
3274 08-12-2019 17:41:17 8.5 C 33 %
3275 08-12-2019 17:51:17 8.5 C 33 %
Sensor: Nr:Datum:Temp:Feuchte:
Aussen-T/F 3276 08-12-2019 18:01:17 8.5 C 32 %
3277 08-12-2019 18:11:17 8.6 C 31 %
3278 08-12-2019 18:21:17 8.2 C 33 %
3279 08-12-2019 18:31:18 8.5 C 29 %
3280 08-12-2019 18:41:18 8.5 C 29 %
3281 08-12-2019 18:51:17 8.6 C 28 %
3282 08-12-2019 19:01:17 8.9 C 27 %
3283 08-12-2019 19:11:17 8.5 C 28 %
3284 08-12-2019 19:21:17 8.5 C 28 %
3285 08-12-2019 19:31:17 8.6 C 27 %
3286 08-12-2019 19:41:17 8 C 31 %
3287 08-12-2019 19:51:18 7.8 C 33 %
3288 08-12-2019 20:01:17 7.5 C 36 %
3289 08-12-2019 20:11:17 8.1 C 33 %
3290 08-12-2019 20:21:17 8.2 C 30 %
3291 08-12-2019 20:31:17 8.3 C 29 %
3292 08-12-2019 20:41:17 8.5 C 28 %
3293 08-12-2019 20:51:17 8.6 C 26 %
3294 08-12-2019 21:01:18 8.8 C 26 %
3295 08-12-2019 21:11:18 8.9 C 25 %
3296 08-12-2019 21:21:17 8.4 C 26 %
3297 08-12-2019 21:31:17 8.7 C 26 %
3298 08-12-2019 21:41:17 8.4 C 26 %
3299 08-12-2019 21:51:18 8.4 C 26 %
3300 08-12-2019 22:01:17 8.5 C 26 %
Sensor: Nr:Datum:Temp:Feuchte:
Aussen-T/F 3301 08-12-2019 22:11:17 7.9 C 27 %
3302 08-12-2019 22:21:17 8.1 C 26 %
3303 08-12-2019 22:31:17 8.6 C 26 %
3304 08-12-2019 22:41:17 8.8 C 26 %
3305 08-12-2019 22:51:17 8.7 C 25 %
3306 08-12-2019 23:01:17 8.8 C 25 %
3307 08-12-2019 23:11:17 8.7 C 26 %
3308 08-12-2019 23:21:17 8.8 C 25 %
3309 08-12-2019 23:31:18 8.7 C 25 %
3310 08-12-2019 23:41:18 8.5 C 25 %
3311 08-12-2019 23:51:17 8.4 C 21 %
3312 09-12-2019 00:01:18 8.7 C 20 %
3313 09-12-2019 00:11:18 8.1 C 21 %
3314 09-12-2019 00:21:17 8.4 C 21 %
3315 09-12-2019 00:31:17 8.4 C 21 %
3316 09-12-2019 00:41:17 8.5 C 20 %
3317 09-12-2019 00:51:17 8.4 C 20 %
3318 09-12-2019 01:01:17 8.4 C 20 %
3319 09-12-2019 01:11:17 8.5 C 20 %
3320 09-12-2019 01:21:18 8.1 C 20 %
3321 09-12-2019 01:31:17 8 C 20 %
3322 09-12-2019 01:41:17 8.3 C 20 %
3323 09-12-2019 01:51:17 8.2 C 20 %
3324 09-12-2019 02:01:17 7.8 C 20 %
3325 09-12-2019 02:11:17 7.6 C 20 %
Sensor: Nr:Datum:Temp:Feuchte:
Aussen-T/F 3326 09-12-2019 02:21:17 7.4 C 21 %
3327 09-12-2019 02:31:18 7.4 C 21 %
3328 09-12-2019 02:41:18 7.1 C 23 %
3329 09-12-2019 02:51:18 7.5 C 20 %
3330 09-12-2019 03:01:17 7.5 C 20 %
3331 09-12-2019 03:11:17 7.5 C 20 %
3332 09-12-2019 03:21:17 7.5 C 20 %
3333 09-12-2019 03:31:17 7.3 C 20 %
3334 09-12-2019 03:41:17 6.8 C 23 %
3335 09-12-2019 03:51:17 7.3 C 21 %
3336 09-12-2019 04:01:17 7.3 C 20 %
3337 09-12-2019 04:11:17 7.9 C 20 %
3338 09-12-2019 04:21:18 8 C 20 %
3339 09-12-2019 04:31:18 7.6 C 20 %
3340 09-12-2019 04:41:18 7.4 C 21 %
3341 09-12-2019 04:51:17 6.9 C 25 %
3342 09-12-2019 05:01:17 6.9 C 25 %
3343 09-12-2019 05:11:17 7.4 C 20 %
3344 09-12-2019 05:21:17 7.5 C 20 %
3345 09-12-2019 05:31:17 7.4 C 20 %
3346 09-12-2019 05:41:18 7.1 C 20 %
3347 09-12-2019 05:51:17 7.2 C 20 %
3348 09-12-2019 06:01:17 7.4 C 20 %
3349 09-12-2019 06:11:17 7.4 C 20 %
3350 09-12-2019 06:21:17 7.4 C 20 %
Sensor: Nr:Datum:Temp:Feuchte:
Aussen-T/F 3351 09-12-2019 06:31:17 7.6 C 20 %
3352 09-12-2019 06:41:17 7.8 C 20 %
3353 09-12-2019 06:51:18 7.7 C 20 %
3354 09-12-2019 07:01:17 7.6 C 20 %
3355 09-12-2019 07:11:18 7.5 C 20 %
3356 09-12-2019 07:21:17 7.2 C 20 %
3357 09-12-2019 07:31:17 7.2 C 20 %
3358 09-12-2019 07:41:17 7.6 C 20 %
3359 09-12-2019 07:51:18 7.5 C 20 %
3360 09-12-2019 08:01:17 7.9 C 20 %
3361 09-12-2019 08:11:17 7.8 C 20 %
3362 09-12-2019 08:21:17 7.9 C 20 %
3363 09-12-2019 08:31:17 8 C 20 %
3364 09-12-2019 08:41:17 7.9 C 20 %
3365 09-12-2019 08:51:17 7.9 C 20 %
3366 09-12-2019 09:01:17 7.8 C 20 %
3367 09-12-2019 09:11:17 7.9 C 20 %
3368 09-12-2019 09:21:17 7.5 C 20 %
3369 09-12-2019 09:31:17 7.4 C 23 %
3370 09-12-2019 09:41:17 7.5 C 21 %
3371 09-12-2019 09:51:17 7.7 C 21 %
3372 09-12-2019 10:01:17 7.9 C 21 %
3373 09-12-2019 10:11:17 7.9 C 21 %
3374 09-12-2019 10:21:17 7.9 C 20 %
3375 09-12-2019 10:31:18 7.9 C 21 %
Sensor: Nr:Datum:Temp:Feuchte:
Aussen-T/F 3376 09-12-2019 10:41:18 7.9 C 21 %
3377 09-12-2019 10:51:17 8.1 C 20 %
3378 09-12-2019 11:01:17 8 C 20 %
3379 09-12-2019 11:11:17 8.2 C 20 %
3380 09-12-2019 11:21:17 8.4 C 20 %
3381 09-12-2019 11:31:18 8.4 C 20 %
3382 09-12-2019 11:41:18 8.3 C 20 %
3383 09-12-2019 11:51:17 8.1 C 20 %
3384 09-12-2019 12:01:17 8.2 C 20 %
3385 09-12-2019 12:11:17 8 C 20 %
3386 09-12-2019 12:21:18 8.1 C 20 %
3387 09-12-2019 12:31:17 8.3 C 20 %
3388 09-12-2019 12:41:17 8.2 C 20 %
3389 09-12-2019 12:51:17 8.3 C 20 %
3390 09-12-2019 13:01:18 8.3 C 20 %
3391 09-12-2019 13:11:18 8.3 C 20 %
3392 09-12-2019 13:21:17 8.2 C 20 %
3393 09-12-2019 13:31:17 8.1 C 20 %
3394 09-12-2019 13:41:17 8.5 C 20 %
3395 09-12-2019 13:51:17 8.8 C 20 %
3396 09-12-2019 14:01:17 8.6 C 20 %
3397 09-12-2019 14:11:17 8.5 C 20 %
3398 09-12-2019 14:21:17 8.6 C 20 %
3399 09-12-2019 14:31:17 8.4 C 20 %
3400 09-12-2019 14:41:17 7.9 C 20 %
Sensor: Nr:Datum:Temp:Feuchte:
Aussen-T/F 3401 09-12-2019 14:51:18 8.4 C 20 %
3402 09-12-2019 15:01:17 7.9 C 20 %
3403 09-12-2019 15:11:17 7.3 C 25 %
3404 09-12-2019 15:21:17 7 C 27 %
3405 09-12-2019 15:31:18 7.1 C 26 %
3406 09-12-2019 15:41:18 7.1 C 25 %
3407 09-12-2019 15:51:17 7.4 C 23 %
3408 09-12-2019 16:01:18 7.5 C 20 %
3409 09-12-2019 16:11:18 7.5 C 20 %
3410 09-12-2019 16:21:17 7.6 C 20 %
3411 09-12-2019 16:31:18 7.3 C 20 %
3412 09-12-2019 16:41:18 7.4 C 20 %
3413 09-12-2019 16:51:17 7.3 C 20 %
3414 09-12-2019 17:01:18 7.1 C 20 %
3415 09-12-2019 17:11:18 7.2 C 20 %
3416 09-12-2019 17:21:17 6.7 C 25 %
3417 09-12-2019 17:31:17 6.1 C 32 %
3418 09-12-2019 17:41:17 5.9 C 36 %
3419 09-12-2019 17:51:17 6 C 34 %
3420 09-12-2019 18:01:18 6 C 30 %
3421 09-12-2019 18:11:18 6.1 C 31 %
3422 09-12-2019 18:21:17 6 C 33 %
3423 09-12-2019 18:31:17 5.8 C 35 %
3424 09-12-2019 18:41:17 5.7 C 37 %
3425 09-12-2019 18:51:18 5.7 C 38 %
Sensor: Nr:Datum:Temp:Feuchte:
Aussen-T/F 3426 09-12-2019 19:01:17 5.6 C 35 %
3427 09-12-2019 19:11:17 5.5 C 38 %
3428 09-12-2019 19:21:17 5.6 C 39 %
3429 09-12-2019 19:31:17 5.6 C 38 %
3430 09-12-2019 19:41:17 5.6 C 38 %
3431 09-12-2019 19:51:17 5.6 C 37 %
3432 09-12-2019 20:01:17 5.6 C 35 %
3433 09-12-2019 20:11:17 5.6 C 34 %
3434 09-12-2019 20:21:17 5.6 C 35 %
3435 09-12-2019 20:31:17 5.6 C 32 %
3436 09-12-2019 20:41:17 5.4 C 33 %
3437 09-12-2019 20:51:17 5.3 C 34 %
3438 09-12-2019 21:01:17 5.2 C 33 %
3439 09-12-2019 21:11:18 5.1 C 34 %
3440 09-12-2019 21:21:17 5.2 C 35 %
3441 09-12-2019 21:31:17 5.3 C 32 %
3442 09-12-2019 21:41:17 5.1 C 31 %
3443 09-12-2019 21:51:17 5 C 31 %
3444 09-12-2019 22:01:17 4.8 C 32 %
3445 09-12-2019 22:11:17 4.7 C 31 %
3446 09-12-2019 22:21:17 4.9 C 30 %
3447 09-12-2019 22:31:17 4.9 C 30 %
3448 09-12-2019 22:41:17 4.9 C 30 %
3449 09-12-2019 22:51:18 4.7 C 30 %
3450 09-12-2019 23:01:17 4.6 C 29 %
Sensor: Nr:Datum:Temp:Feuchte:
Aussen-T/F 3451 09-12-2019 23:11:17 4.5 C 29 %
3452 09-12-2019 23:21:17 4.1 C 30 %
3453 09-12-2019 23:31:18 4 C 30 %
3454 09-12-2019 23:41:18 4.1 C 29 %
3455 09-12-2019 23:51:17 4.1 C 29 %
3456 10-12-2019 00:01:17 3.7 C 30 %
3457 10-12-2019 00:11:17 4.1 C 28 %
3458 10-12-2019 00:21:17 3.4 C 30 %
3459 10-12-2019 00:31:17 3.6 C 30 %
3460 10-12-2019 00:41:17 3.1 C 31 %
3461 10-12-2019 00:51:17 3 C 31 %
3462 10-12-2019 01:01:17 2.4 C 33 %
3463 10-12-2019 01:11:17 2.4 C 36 %
3464 10-12-2019 01:21:17 2.5 C 36 %
3465 10-12-2019 01:31:18 2.8 C 34 %
3466 10-12-2019 01:41:18 2.4 C 34 %
3467 10-12-2019 01:51:17 2.4 C 33 %
3468 10-12-2019 02:01:18 2.7 C 33 %
3469 10-12-2019 02:11:18 2.9 C 32 %
3470 10-12-2019 02:21:17 2.3 C 33 %
3471 10-12-2019 02:31:17 2.1 C 35 %
3472 10-12-2019 02:41:17 1.7 C 37 %
3473 10-12-2019 02:51:17 1.6 C 39 %
3474 10-12-2019 03:01:17 1.8 C 40 %
3475 10-12-2019 03:11:17 1.8 C 40 %
Sensor: Nr:Datum:Temp:Feuchte:
Aussen-T/F 3476 10-12-2019 03:21:17 1.8 C 40 %
3477 10-12-2019 03:31:17 2 C 40 %
3478 10-12-2019 03:41:17 1.4 C 41 %
3479 10-12-2019 03:51:17 1.4 C 43 %
3480 10-12-2019 04:01:17 1.1 C 43 %
3481 10-12-2019 04:11:17 1.3 C 41 %
3482 10-12-2019 04:21:17 0.6 C 41 %
3483 10-12-2019 04:31:18 0.6 C 44 %
3484 10-12-2019 04:41:18 0.7 C 45 %
3485 10-12-2019 04:51:17 0.9 C 46 %
3486 10-12-2019 05:01:17 1.1 C 44 %
3487 10-12-2019 05:11:17 1.8 C 41 %
3488 10-12-2019 05:21:18 2.2 C 35 %
3489 10-12-2019 05:31:18 2 C 35 %
3490 10-12-2019 05:41:18 2 C 35 %
3491 10-12-2019 05:51:17 1.8 C 36 %
3492 10-12-2019 06:01:17 1.5 C 36 %
3493 10-12-2019 06:11:17 1.6 C 37 %
3494 10-12-2019 06:21:18 1.4 C 36 %
3495 10-12-2019 06:31:17 1.1 C 38 %
3496 10-12-2019 06:41:17 0.9 C 42 %
3497 10-12-2019 06:51:17 1.2 C 42 %
3498 10-12-2019 07:01:18 1.3 C 40 %
3499 10-12-2019 07:11:18 1.5 C 40 %
3500 10-12-2019 07:21:17 1.7 C 36 %
Sensor: Nr:Datum:Temp:Feuchte:
Aussen-T/F 3501 10-12-2019 07:31:17 1.2 C 37 %
3502 10-12-2019 07:41:17 0.8 C 41 %
3503 10-12-2019 07:51:17 0.8 C 41 %
3504 10-12-2019 08:01:17 0.7 C 41 %
3505 10-12-2019 08:11:17 0.8 C 41 %
3506 10-12-2019 08:21:17 0.4 C 42 %
3507 10-12-2019 08:31:18 0.6 C 42 %
3508 10-12-2019 08:41:18 0.4 C 42 %
3509 10-12-2019 08:51:17 0.4 C 43 %
3510 10-12-2019 09:01:17 0.1 C 42 %
3511 10-12-2019 09:11:17 0.5 C 44 %
3512 10-12-2019 09:21:17 0.8 C 44 %
3513 10-12-2019 09:31:17 1.4 C 42 %
3514 10-12-2019 09:41:17 1.7 C 39 %
3515 10-12-2019 09:51:17 1.8 C 39 %
3516 10-12-2019 10:01:17 2.2 C 36 %
3517 10-12-2019 10:11:17 2.5 C 35 %
3518 10-12-2019 10:21:17 2.7 C 33 %
3519 10-12-2019 10:31:17 2.7 C 33 %
3520 10-12-2019 10:41:17 2.5 C 33 %
3521 10-12-2019 10:51:17 2.4 C 35 %
3522 10-12-2019 11:01:17 2.4 C 34 %
3523 10-12-2019 11:11:17 2.5 C 34 %
3524 10-12-2019 11:21:17 2.3 C 35 %
3525 10-12-2019 11:31:18 2.2 C 36 %
Sensor: Nr:Datum:Temp:Feuchte:
Aussen-T/F 3526 10-12-2019 11:41:18 2.9 C 34 %
3527 10-12-2019 11:51:17 3.5 C 30 %
3528 10-12-2019 12:01:17 3.7 C 30 %
3529 10-12-2019 12:11:17 3.8 C 30 %
3530 10-12-2019 12:21:17 3.9 C 30 %
3531 10-12-2019 12:31:17 3.9 C 30 %
3532 10-12-2019 12:41:17 4.3 C 27 %
3533 10-12-2019 12:51:17 4.5 C 27 %
3534 10-12-2019 13:01:17 4.6 C 27 %
3535 10-12-2019 13:11:17 4.7 C 27 %
3536 10-12-2019 13:21:17 4.7 C 27 %
3537 10-12-2019 13:31:17 4.9 C 27 %
3538 10-12-2019 13:41:17 5.1 C 25 %
3539 10-12-2019 13:51:17 5 C 25 %
3540 10-12-2019 14:01:17 4.6 C 27 %
3541 10-12-2019 14:11:17 4.2 C 28 %
3542 10-12-2019 14:21:17 3.8 C 30 %
3543 10-12-2019 14:31:18 3.9 C 30 %
3544 10-12-2019 14:41:18 3.8 C 30 %
3545 10-12-2019 14:51:17 3.5 C 30 %
3546 10-12-2019 15:01:17 3.5 C 30 %
3547 10-12-2019 15:11:17 3.3 C 31 %
3548 10-12-2019 15:21:17 3.2 C 31 %
3549 10-12-2019 15:31:17 3.1 C 31 %
3550 10-12-2019 15:41:18 3.2 C 31 %
Sensor: Nr:Datum:Temp:Feuchte:
Aussen-T/F 3551 10-12-2019 15:51:17 2.9 C 31 %
3552 10-12-2019 16:01:17 2.4 C 32 %
3553 10-12-2019 16:11:17 3.1 C 31 %
3554 10-12-2019 16:21:17 3.4 C 30 %
3555 10-12-2019 16:31:17 3.5 C 28 %
3556 10-12-2019 16:41:17 3.3 C 28 %
3557 10-12-2019 16:51:17 3.3 C 26 %
3558 10-12-2019 17:01:17 2.8 C 27 %
3559 10-12-2019 17:11:17 2.7 C 27 %
3560 10-12-2019 17:21:18 2.7 C 27 %
3561 10-12-2019 17:31:17 2.7 C 27 %
3562 10-12-2019 17:41:17 2.6 C 27 %
3563 10-12-2019 17:51:17 2.4 C 28 %
3564 10-12-2019 18:01:17 2.3 C 27 %
3565 10-12-2019 18:11:17 1.7 C 31 %
3566 10-12-2019 18:21:17 1.9 C 32 %
3567 10-12-2019 18:31:17 1.8 C 33 %
3568 10-12-2019 18:41:17 1.7 C 34 %
3569 10-12-2019 18:51:17 1.6 C 35 %
3570 10-12-2019 19:01:17 1.5 C 36 %
3571 10-12-2019 19:11:17 1.5 C 36 %
3572 10-12-2019 19:21:17 1.6 C 36 %
3573 10-12-2019 19:31:17 1.5 C 36 %
3574 10-12-2019 19:41:18 1.7 C 36 %
3575 10-12-2019 19:51:17 1.7 C 35 %
Sensor: Nr:Datum:Temp:Feuchte:
Aussen-T/F 3576 10-12-2019 20:01:17 2.2 C 32 %
3577 10-12-2019 20:11:17 2.1 C 32 %
3578 10-12-2019 20:21:17 2.7 C 29 %
3579 10-12-2019 20:31:18 2.9 C 28 %
3580 10-12-2019 20:41:18 2.6 C 30 %
3581 10-12-2019 20:51:17 2.3 C 30 %
3582 10-12-2019 21:01:17 2.5 C 31 %
3583 10-12-2019 21:11:17 2.3 C 31 %
3584 10-12-2019 21:21:17 2.1 C 32 %
3585 10-12-2019 21:31:17 2 C 33 %
3586 10-12-2019 21:41:18 1.8 C 35 %
3587 10-12-2019 21:51:17 1.8 C 36 %
3588 10-12-2019 22:01:17 1.8 C 36 %
3589 10-12-2019 22:11:17 2.1 C 35 %
3590 10-12-2019 22:21:17 2.2 C 34 %
3591 10-12-2019 22:31:17 2.4 C 32 %
3592 10-12-2019 22:41:17 2.5 C 33 %
3593 10-12-2019 22:51:18 2.8 C 31 %
3594 10-12-2019 23:01:17 2.9 C 30 %
3595 10-12-2019 23:11:17 3 C 30 %
3596 10-12-2019 23:21:17 3 C 30 %
3597 10-12-2019 23:31:17 2.9 C 31 %
3598 10-12-2019 23:41:17 3.3 C 28 %
3599 10-12-2019 23:51:17 3.3 C 30 %
3600 11-12-2019 00:01:18 3.2 C 30 %
Sensor: Nr:Datum:Temp:Feuchte:
Aussen-T/F 3601 11-12-2019 00:11:18 3.3 C 29 %
3602 11-12-2019 00:21:17 3.4 C 28 %
3603 11-12-2019 00:31:17 3.4 C 29 %
3604 11-12-2019 00:41:17 3.5 C 27 %
3605 11-12-2019 00:51:17 3.4 C 27 %
3606 11-12-2019 01:01:17 3.5 C 25 %
3607 11-12-2019 01:11:17 3.4 C 27 %
3608 11-12-2019 01:21:18 3.4 C 28 %
3609 11-12-2019 01:31:17 3.4 C 29 %
3610 11-12-2019 01:41:17 3.2 C 30 %
3611 11-12-2019 01:51:17 3.1 C 32 %
3612 11-12-2019 02:01:17 3 C 33 %
3613 11-12-2019 02:11:17 2.9 C 33 %
3614 11-12-2019 02:21:17 2.9 C 32 %
3615 11-12-2019 02:31:18 2.8 C 34 %
3616 11-12-2019 02:41:18 2.9 C 31 %
3617 11-12-2019 02:51:17 3 C 30 %
3618 11-12-2019 03:01:18 3.1 C 30 %
3619 11-12-2019 03:11:18 3 C 32 %
3620 11-12-2019 03:21:17 2.9 C 30 %
3621 11-12-2019 03:31:17 3 C 30 %
3622 11-12-2019 03:41:17 3 C 35 %
3623 11-12-2019 03:51:17 2.8 C 36 %
3624 11-12-2019 04:01:17 2.7 C 35 %
3625 11-12-2019 04:11:17 2.8 C 35 %
Sensor: Nr:Datum:Temp:Feuchte:
Aussen-T/F 3626 11-12-2019 04:21:17 2.8 C 35 %
3627 11-12-2019 04:31:18 2.8 C 38 %
3628 11-12-2019 04:41:18 2.7 C 38 %
3629 11-12-2019 04:51:17 2.7 C 39 %
3630 11-12-2019 05:01:17 2.7 C 39 %
3631 11-12-2019 05:11:17 2.7 C 39 %
3632 11-12-2019 05:21:18 2.7 C 40 %
3633 11-12-2019 05:31:17 2.6 C 42 %
3634 11-12-2019 05:41:17 2.6 C 43 %
3635 11-12-2019 05:51:17 2.5 C 44 %
3636 11-12-2019 06:01:18 2.5 C 44 %
3637 11-12-2019 06:11:18 2.5 C 44 %
3638 11-12-2019 06:21:17 2.5 C 44 %
3639 11-12-2019 06:31:17 2.5 C 44 %
3640 11-12-2019 06:41:17 2.5 C 44 %
3641 11-12-2019 06:51:17 2.5 C 44 %
3642 11-12-2019 07:01:17 2.4 C 44 %
3643 11-12-2019 07:11:17 2.5 C 44 %
3644 11-12-2019 07:21:17 2.4 C 44 %
3645 11-12-2019 07:31:17 2.4 C 44 %
3646 11-12-2019 07:41:18 2.4 C 43 %
3647 11-12-2019 07:51:17 2.4 C 43 %
3648 11-12-2019 08:01:17 2.4 C 43 %
3649 11-12-2019 08:11:17 2.4 C 43 %
3650 11-12-2019 08:21:17 2.4 C 43 %
Sensor: Nr:Datum:Temp:Feuchte:
Aussen-T/F 3651 11-12-2019 08:31:18 2.3 C 43 %
3652 11-12-2019 08:41:18 2.3 C 43 %
3653 11-12-2019 08:51:17 2.3 C 43 %
3654 11-12-2019 09:01:18 2.3 C 43 %
3655 11-12-2019 09:11:18 2.4 C 43 %
3656 11-12-2019 09:21:17 2.5 C 43 %
3657 11-12-2019 09:31:17 2.5 C 43 %
3658 11-12-2019 09:41:17 2.5 C 43 %
3659 11-12-2019 09:51:17 2.5 C 43 %
3660 11-12-2019 10:01:17 2.6 C 43 %
3661 11-12-2019 10:11:17 2.7 C 43 %
3662 11-12-2019 10:21:17 2.7 C 42 %
3663 11-12-2019 10:31:17 2.7 C 42 %
3664 11-12-2019 10:41:17 2.8 C 41 %
3665 11-12-2019 10:51:17 3.1 C 40 %
3666 11-12-2019 11:01:17 3 C 39 %
3667 11-12-2019 11:11:17 3.1 C 39 %
3668 11-12-2019 11:21:17 3.2 C 39 %
3669 11-12-2019 11:31:17 3.1 C 38 %
3670 11-12-2019 11:41:17 3.1 C 38 %
3671 11-12-2019 11:51:17 3.2 C 39 %
3672 11-12-2019 12:01:18 3.2 C 39 %
3673 11-12-2019 12:11:18 3.1 C 39 %
3674 11-12-2019 12:21:17 3.1 C 39 %
3675 11-12-2019 12:31:17 3.1 C 40 %
Sensor: Nr:Datum:Temp:Feuchte:
Aussen-T/F 3676 11-12-2019 12:41:17 3.1 C 40 %
3677 11-12-2019 12:51:17 3.1 C 40 %
3678 11-12-2019 13:01:18 3.2 C 40 %
3679 11-12-2019 13:11:18 3.2 C 40 %
3680 11-12-2019 13:21:17 3.2 C 40 %
3681 11-12-2019 13:31:17 3.2 C 40 %
3682 11-12-2019 13:41:17 3.2 C 40 %
3683 11-12-2019 13:51:17 3.2 C 40 %
3684 11-12-2019 14:01:17 3.2 C 41 %
3685 11-12-2019 14:11:18 3.2 C 41 %
3686 11-12-2019 14:21:17 3.2 C 41 %
3687 11-12-2019 14:31:17 3.3 C 41 %
3688 11-12-2019 14:41:17 3.3 C 42 %
3689 11-12-2019 14:51:17 3.3 C 42 %
3690 11-12-2019 15:01:17 3.3 C 42 %
3691 11-12-2019 15:11:17 3.4 C 42 %
3692 11-12-2019 15:21:17 3.3 C 42 %
3693 11-12-2019 15:31:18 3.3 C 42 %
3694 11-12-2019 15:41:18 3.3 C 42 %
3695 11-12-2019 15:51:17 3.3 C 42 %
3696 11-12-2019 16:01:17 3.2 C 42 %
3697 11-12-2019 16:11:17 3.2 C 42 %
3698 11-12-2019 16:21:17 3.2 C 42 %
3699 11-12-2019 16:31:17 3.2 C 42 %
3700 11-12-2019 16:41:17 3.1 C 42 %
Sensor: Nr:Datum:Temp:Feuchte:
Aussen-T/F 3701 11-12-2019 16:51:17 3.1 C 42 %
3702 11-12-2019 17:01:17 3.1 C 43 %
3703 11-12-2019 17:11:17 3.1 C 42 %
3704 11-12-2019 17:21:17 3.1 C 42 %
3705 11-12-2019 17:31:17 3.1 C 42 %
3706 11-12-2019 17:41:17 3.1 C 42 %
3707 11-12-2019 17:51:18 3.2 C 43 %
3708 11-12-2019 18:01:17 3.2 C 43 %
3709 11-12-2019 18:11:17 3.3 C 43 %
3710 11-12-2019 18:21:17 3.3 C 43 %
3711 11-12-2019 18:31:18 3.4 C 43 %
3712 11-12-2019 18:41:18 3.4 C 43 %
3713 11-12-2019 18:51:17 3.5 C 43 %
3714 11-12-2019 19:01:17 3.5 C 42 %
3715 11-12-2019 19:11:17 3.5 C 42 %
3716 11-12-2019 19:21:18 3.5 C 42 %
3717 11-12-2019 19:31:17 3.5 C 42 %
3718 11-12-2019 19:41:17 3.6 C 42 %
3719 11-12-2019 19:51:18 3.6 C 42 %
3720 11-12-2019 20:01:17 3.6 C 42 %
3721 11-12-2019 20:11:17 3.7 C 42 %
3722 11-12-2019 20:21:17 3.8 C 42 %
3723 11-12-2019 20:31:18 3.8 C 42 %
3724 11-12-2019 20:41:18 3.9 C 42 %
3725 11-12-2019 20:51:17 4.1 C 41 %
Sensor: Nr:Datum:Temp:Feuchte:
Aussen-T/F 3726 11-12-2019 21:01:17 4.1 C 40 %
3727 11-12-2019 21:11:17 4.3 C 39 %
3728 11-12-2019 21:21:17 4.4 C 37 %
3729 11-12-2019 21:31:17 4.1 C 37 %
3730 11-12-2019 21:41:17 4.3 C 37 %
3731 11-12-2019 21:51:17 4.3 C 36 %
3732 11-12-2019 22:01:17 4.5 C 35 %
3733 11-12-2019 22:11:17 4.1 C 35 %
3734 11-12-2019 22:21:17 3.9 C 37 %
3735 11-12-2019 22:31:17 3.6 C 39 %
3736 11-12-2019 22:41:17 3.8 C 39 %
3737 11-12-2019 22:51:18 3.5 C 40 %
3738 11-12-2019 23:01:17 3.8 C 40 %
3739 11-12-2019 23:11:17 3.8 C 40 %
3740 11-12-2019 23:21:17 3.4 C 40 %
3741 11-12-2019 23:31:17 3 C 41 %
3742 11-12-2019 23:41:17 3.4 C 43 %
3743 11-12-2019 23:51:18 3.2 C 42 %
3744 12-12-2019 00:01:17 3 C 42 %
3745 12-12-2019 00:11:17 2.9 C 43 %
3746 12-12-2019 00:21:17 2.8 C 43 %
3747 12-12-2019 00:31:17 2.5 C 43 %
3748 12-12-2019 00:41:17 2.4 C 43 %
3749 12-12-2019 00:51:17 2.3 C 43 %
3750 12-12-2019 01:01:17 2.7 C 44 %
Sensor: Nr:Datum:Temp:Feuchte:
Aussen-T/F 3751 12-12-2019 01:11:17 2.8 C 44 %
3752 12-12-2019 01:21:18 2.6 C 43 %
3753 12-12-2019 01:31:17 2.2 C 43 %
3754 12-12-2019 01:41:17 2.5 C 43 %
3755 12-12-2019 01:51:18 2.1 C 43 %
3756 12-12-2019 02:01:17 1.8 C 44 %
3757 12-12-2019 02:11:17 1.6 C 44 %
3758 12-12-2019 02:21:17 1.7 C 44 %
3759 12-12-2019 02:31:18 1.6 C 44 %
3760 12-12-2019 02:41:18 2 C 43 %
3761 12-12-2019 02:51:17 2 C 43 %
3762 12-12-2019 03:01:17 2.3 C 43 %
3763 12-12-2019 03:11:17 2.4 C 43 %
3764 12-12-2019 03:21:17 2.5 C 43 %
3765 12-12-2019 03:31:17 2.4 C 43 %
3766 12-12-2019 03:41:17 2.5 C 43 %
3767 12-12-2019 03:51:17 2.7 C 43 %
3768 12-12-2019 04:01:17 2.6 C 43 %
3769 12-12-2019 04:11:17 2.7 C 43 %
3770 12-12-2019 04:21:17 2.8 C 43 %
3771 12-12-2019 04:31:17 2.8 C 43 %
3772 12-12-2019 04:41:17 2.9 C 43 %
3773 12-12-2019 04:51:17 2.4 C 42 %
3774 12-12-2019 05:01:17 2 C 42 %
3775 12-12-2019 05:11:17 2.1 C 42 %
Sensor: Nr:Datum:Temp:Feuchte:
Aussen-T/F 3776 12-12-2019 05:21:17 2.2 C 42 %
3777 12-12-2019 05:31:18 2.1 C 42 %
3778 12-12-2019 05:41:18 2.1 C 42 %
3779 12-12-2019 05:51:17 2.1 C 42 %
3780 12-12-2019 06:01:17 1.9 C 43 %
3781 12-12-2019 06:11:17 2 C 42 %
3782 12-12-2019 06:21:17 2.1 C 42 %
3783 12-12-2019 06:31:17 2.1 C 42 %
3784 12-12-2019 06:41:17 2.3 C 42 %
3785 12-12-2019 06:51:17 2.7 C 43 %
3786 12-12-2019 07:01:17 3 C 42 %
3787 12-12-2019 07:11:17 3 C 42 %
3788 12-12-2019 07:21:17 3 C 42 %
3789 12-12-2019 07:31:17 3 C 42 %
3790 12-12-2019 07:41:17 2.8 C 42 %
3791 12-12-2019 07:51:17 2.9 C 42 %
3792 12-12-2019 08:01:17 2.9 C 42 %
3793 12-12-2019 08:11:17 3.1 C 42 %
3794 12-12-2019 08:21:17 3.2 C 42 %
3795 12-12-2019 08:31:18 3.3 C 42 %
3796 12-12-2019 08:41:18 3.5 C 42 %
3797 12-12-2019 08:51:17 3.5 C 42 %
3798 12-12-2019 09:01:18 3.5 C 42 %
3799 12-12-2019 09:11:18 3.6 C 42 %
3800 12-12-2019 09:21:17 3.9 C 42 %
Sensor: Nr:Datum:Temp:Feuchte:
Aussen-T/F 3801 12-12-2019 09:31:17 3.9 C 42 %
3802 12-12-2019 09:41:17 3.7 C 41 %
3803 12-12-2019 09:51:17 3.5 C 41 %
3804 12-12-2019 10:01:17 3.9 C 41 %
3805 12-12-2019 10:11:17 4 C 40 %
3806 12-12-2019 10:21:18 4.4 C 37 %
3807 12-12-2019 10:31:17 4.6 C 35 %
3808 12-12-2019 10:41:17 4.7 C 32 %
3809 12-12-2019 10:51:17 4.8 C 31 %
3810 12-12-2019 11:01:18 4.7 C 32 %
3811 12-12-2019 11:11:18 4.6 C 31 %
3812 12-12-2019 11:21:17 4.4 C 31 %
3813 12-12-2019 11:31:17 4.4 C 32 %
3814 12-12-2019 11:41:17 4.7 C 31 %
3815 12-12-2019 11:51:18 4.9 C 29 %
3816 12-12-2019 12:01:17 5.1 C 29 %
3817 12-12-2019 12:11:17 5.1 C 27 %
3818 12-12-2019 12:21:17 5 C 26 %
3819 12-12-2019 12:31:18 4.7 C 27 %
3820 12-12-2019 12:41:18 4.7 C 28 %
3821 12-12-2019 12:51:17 4.7 C 27 %
3822 12-12-2019 13:01:17 4.6 C 28 %
3823 12-12-2019 13:11:18 5 C 26 %
3824 12-12-2019 13:21:17 4.8 C 27 %
3825 12-12-2019 13:31:17 4.6 C 26 %
Sensor: Nr:Datum:Temp:Feuchte:
Aussen-T/F 3826 12-12-2019 13:41:17 4.2 C 26 %
3827 12-12-2019 13:51:17 4.6 C 25 %
3828 12-12-2019 14:01:17 4.6 C 25 %
3829 12-12-2019 14:11:17 4.3 C 25 %
3830 12-12-2019 14:21:17 4 C 27 %
3831 12-12-2019 14:31:18 4.5 C 25 %
3832 12-12-2019 14:41:18 4.8 C 25 %
3833 12-12-2019 14:51:17 4.7 C 25 %
3834 12-12-2019 15:01:18 4 C 26 %
3835 12-12-2019 15:11:18 4.2 C 26 %
3836 12-12-2019 15:21:17 3.6 C 29 %
3837 12-12-2019 15:31:17 3.5 C 29 %
3838 12-12-2019 15:41:17 3.8 C 28 %
3839 12-12-2019 15:51:17 3.7 C 28 %
3840 12-12-2019 16:01:17 3.6 C 28 %
3841 12-12-2019 16:11:17 3.7 C 26 %
3842 12-12-2019 16:21:18 3.5 C 27 %
3843 12-12-2019 16:31:17 3.4 C 26 %
3844 12-12-2019 16:41:17 3.3 C 28 %
3845 12-12-2019 16:51:17 3.1 C 30 %
3846 12-12-2019 17:01:17 2.6 C 30 %
3847 12-12-2019 17:11:17 1.7 C 35 %
3848 12-12-2019 17:21:17 1.2 C 36 %
3849 12-12-2019 17:31:17 1.1 C 38 %
3850 12-12-2019 17:41:17 0.9 C 41 %
Sensor: Nr:Datum:Temp:Feuchte:
Aussen-T/F 3851 12-12-2019 17:51:17 1 C 40 %
3852 12-12-2019 18:01:17 1.1 C 40 %
3853 12-12-2019 18:11:17 1.1 C 40 %
3854 12-12-2019 18:21:17 1.1 C 40 %
3855 12-12-2019 18:31:17 1 C 40 %
3856 12-12-2019 18:41:17 0.9 C 41 %
3857 12-12-2019 18:51:17 0.7 C 41 %
3858 12-12-2019 19:01:17 0.7 C 41 %
3859 12-12-2019 19:11:17 0.6 C 41 %
3860 12-12-2019 19:21:17 0.6 C 42 %
3861 12-12-2019 19:31:17 0.6 C 42 %
3862 12-12-2019 19:41:17 0.7 C 42 %
3863 12-12-2019 19:51:17 0.7 C 41 %
3864 12-12-2019 20:01:17 0.6 C 41 %
3865 12-12-2019 20:11:17 0.6 C 41 %
3866 12-12-2019 20:21:17 0.6 C 41 %
3867 12-12-2019 20:31:17 0.6 C 41 %
3868 12-12-2019 20:41:17 0.6 C 41 %
3869 12-12-2019 20:51:17 1.3 C 42 %
3870 12-12-2019 21:01:17 1.6 C 38 %
3871 12-12-2019 21:11:17 1.6 C 36 %
3872 12-12-2019 21:21:17 1.3 C 36 %
3873 12-12-2019 21:31:17 1.3 C 35 %
3874 12-12-2019 21:41:17 1 C 35 %
3875 12-12-2019 21:51:17 0.7 C 37 %
Sensor: Nr:Datum:Temp:Feuchte:
Aussen-T/F 3876 12-12-2019 22:01:17 1.2 C 37 %
3877 12-12-2019 22:11:17 0.9 C 37 %
3878 12-12-2019 22:21:18 0.4 C 38 %
3879 12-12-2019 22:31:17 0.3 C 39 %
3880 12-12-2019 22:41:17 0.2 C 40 %
3881 12-12-2019 22:51:17 0.4 C 39 %
3882 12-12-2019 23:01:18 1.1 C 37 %
3883 12-12-2019 23:11:18 1.5 C 35 %
3884 12-12-2019 23:21:17 1.9 C 32 %
3885 12-12-2019 23:31:17 1.6 C 31 %
3886 12-12-2019 23:41:17 1.4 C 32 %
3887 12-12-2019 23:51:17 1.5 C 31 %
3888 13-12-2019 00:01:17 0.9 C 33 %
3889 13-12-2019 00:11:17 0.6 C 35 %
3890 13-12-2019 00:21:17 1 C 33 %
3891 13-12-2019 00:31:18 0.7 C 34 %
3892 13-12-2019 00:41:18 0.9 C 35 %
3893 13-12-2019 00:51:17 1.3 C 32 %
3894 13-12-2019 01:01:18 1.7 C 30 %
3895 13-12-2019 01:11:18 1.8 C 29 %
3896 13-12-2019 01:21:17 2 C 27 %
3897 13-12-2019 01:31:17 1.9 C 28 %
3898 13-12-2019 01:41:17 2 C 27 %
3899 13-12-2019 01:51:17 2 C 27 %
3900 13-12-2019 02:01:18 1.9 C 29 %
Sensor: Nr:Datum:Temp:Feuchte:
Aussen-T/F 3901 13-12-2019 02:11:18 2 C 27 %
3902 13-12-2019 02:21:17 2 C 27 %
3903 13-12-2019 02:31:17 2 C 27 %
3904 13-12-2019 02:41:17 2 C 27 %
3905 13-12-2019 02:51:17 2 C 27 %
3906 13-12-2019 03:01:17 1.8 C 29 %
3907 13-12-2019 03:11:17 1.8 C 30 %
3908 13-12-2019 03:21:17 1.7 C 30 %
3909 13-12-2019 03:31:17 1.6 C 30 %
3910 13-12-2019 03:41:17 1.7 C 30 %
3911 13-12-2019 03:51:17 1.6 C 31 %
3912 13-12-2019 04:01:17 1.4 C 32 %
3913 13-12-2019 04:11:17 1.5 C 32 %
3914 13-12-2019 04:21:17 1.6 C 32 %
3915 13-12-2019 04:31:17 1.6 C 32 %
3916 13-12-2019 04:41:17 1.6 C 32 %
3917 13-12-2019 04:51:17 1.4 C 34 %
3918 13-12-2019 05:01:17 1.4 C 35 %
3919 13-12-2019 05:11:17 1.5 C 34 %
3920 13-12-2019 05:21:17 1.5 C 34 %
3921 13-12-2019 05:31:18 1.7 C 33 %
3922 13-12-2019 05:41:18 1.7 C 32 %
3923 13-12-2019 05:51:17 1.8 C 33 %
3924 13-12-2019 06:01:17 1.9 C 32 %
3925 13-12-2019 06:11:17 2 C 31 %
Sensor: Nr:Datum:Temp:Feuchte:
Aussen-T/F 3926 13-12-2019 06:21:17 2 C 31 %
3927 13-12-2019 06:31:17 2 C 32 %
3928 13-12-2019 06:41:17 1.7 C 35 %
3929 13-12-2019 06:51:17 1.8 C 37 %
3930 13-12-2019 07:01:17 1.8 C 37 %
3931 13-12-2019 07:11:18 1.7 C 39 %
3932 13-12-2019 07:21:17 1.8 C 38 %
3933 13-12-2019 07:31:17 1.8 C 40 %
3934 13-12-2019 07:41:17 1.8 C 39 %
3935 13-12-2019 07:51:17 1.9 C 38 %
3936 13-12-2019 08:01:17 1.8 C 38 %
3937 13-12-2019 08:11:17 1.8 C 39 %
3938 13-12-2019 08:21:17 1.7 C 40 %
3939 13-12-2019 08:31:17 1.7 C 41 %
3940 13-12-2019 08:41:17 1.6 C 41 %
3941 13-12-2019 08:51:17 1.7 C 41 %
3942 13-12-2019 09:01:17 1.9 C 40 %
3943 13-12-2019 09:11:17 1.9 C 40 %
3944 13-12-2019 09:21:17 1.9 C 40 %
3945 13-12-2019 09:31:17 1.7 C 42 %
3946 13-12-2019 09:41:17 1.7 C 42 %
3947 13-12-2019 09:51:18 1.9 C 43 %
3948 13-12-2019 10:01:17 1.8 C 43 %
3949 13-12-2019 10:11:17 1.9 C 43 %
3950 13-12-2019 10:21:18 2 C 41 %
Sensor: Nr:Datum:Temp:Feuchte:
Aussen-T/F 3951 13-12-2019 10:31:17 2.2 C 41 %
3952 13-12-2019 10:41:17 2.3 C 41 %
3953 13-12-2019 10:51:18 2.3 C 41 %
3954 13-12-2019 11:01:17 2.4 C 41 %
3955 13-12-2019 11:11:17 2.3 C 40 %
3956 13-12-2019 11:21:17 2.3 C 40 %
3957 13-12-2019 11:31:17 2.4 C 41 %
3958 13-12-2019 11:41:17 2.5 C 41 %
3959 13-12-2019 11:51:18 2.8 C 42 %
3960 13-12-2019 12:01:17 3 C 41 %
3961 13-12-2019 12:11:17 3.1 C 39 %
3962 13-12-2019 12:21:17 3.2 C 38 %
3963 13-12-2019 12:31:17 3.5 C 38 %
3964 13-12-2019 12:41:17 3.5 C 38 %
3965 13-12-2019 12:51:18 3.6 C 38 %
3966 13-12-2019 13:01:18 3.8 C 39 %
3967 13-12-2019 13:11:18 4.1 C 37 %
3968 13-12-2019 13:21:17 4.6 C 38 %
3969 13-12-2019 13:31:17 5.2 C 35 %
3970 13-12-2019 13:41:17 5.7 C 35 %
3971 13-12-2019 13:51:17 6.4 C 31 %
3972 13-12-2019 14:01:17 6.7 C 30 %
3973 13-12-2019 14:11:17 7 C 28 %
3974 13-12-2019 14:21:17 6.8 C 29 %
3975 13-12-2019 14:31:17 6.8 C 28 %
Sensor: Nr:Datum:Temp:Feuchte:
Aussen-T/F 3976 13-12-2019 14:41:17 6.7 C 28 %
3977 13-12-2019 14:51:18 6.4 C 29 %
3978 13-12-2019 15:01:18 6.3 C 29 %
3979 13-12-2019 15:11:18 6.3 C 29 %
3980 13-12-2019 15:21:17 6.2 C 30 %
3981 13-12-2019 15:31:17 5.9 C 30 %
3982 13-12-2019 15:41:17 5.8 C 31 %
3983 13-12-2019 15:51:17 5.5 C 31 %
3984 13-12-2019 16:01:18 5.3 C 30 %
3985 13-12-2019 16:11:18 5.4 C 30 %
3986 13-12-2019 16:21:17 5.3 C 30 %
3987 13-12-2019 16:31:17 5.1 C 30 %
3988 13-12-2019 16:41:17 4.8 C 31 %
3989 13-12-2019 16:51:17 4.5 C 31 %
3990 13-12-2019 17:01:17 4.6 C 31 %
3991 13-12-2019 17:11:17 4.5 C 31 %
3992 13-12-2019 17:21:17 4.3 C 34 %
3993 13-12-2019 17:31:18 4.3 C 34 %
3994 13-12-2019 17:41:18 4.2 C 33 %
3995 13-12-2019 17:51:17 4 C 33 %
3996 13-12-2019 18:01:17 3.8 C 36 %
3997 13-12-2019 18:11:17 3.7 C 40 %
3998 13-12-2019 18:21:17 3.8 C 39 %
3999 13-12-2019 18:31:17 3.8 C 40 %
4000 13-12-2019 18:41:18 3.8 C 39 %
Sensor: Nr:Datum:Temp:Feuchte:
Aussen-T/F 4001 13-12-2019 18:51:17 3.9 C 36 %
4002 13-12-2019 19:01:17 3.9 C 36 %
4003 13-12-2019 19:11:17 3.9 C 35 %
4004 13-12-2019 19:21:17 4 C 34 %
4005 13-12-2019 19:31:17 4.1 C 35 %
4006 13-12-2019 19:41:17 4 C 36 %
4007 13-12-2019 19:51:17 4.6 C 32 %
4008 13-12-2019 20:01:17 4.6 C 32 %
4009 13-12-2019 20:11:17 4.8 C 31 %
4010 13-12-2019 20:21:17 4.7 C 31 %
4011 13-12-2019 20:31:17 4.7 C 31 %
4012 13-12-2019 20:41:17 4.7 C 32 %
4013 13-12-2019 20:51:17 4.5 C 32 %
4014 13-12-2019 21:01:17 4.3 C 34 %
4015 13-12-2019 21:11:17 4 C 36 %
4016 13-12-2019 21:21:17 4.5 C 35 %
4017 13-12-2019 21:31:18 4.4 C 33 %
4018 13-12-2019 21:41:18 4.4 C 35 %
4019 13-12-2019 21:51:17 4.6 C 32 %
4020 13-12-2019 22:01:17 4.6 C 31 %
4021 13-12-2019 22:11:17 4.6 C 30 %
4022 13-12-2019 22:21:17 4.7 C 30 %
4023 13-12-2019 22:31:18 4.7 C 30 %
4024 13-12-2019 22:41:18 3.8 C 34 %
4025 13-12-2019 22:51:17 3.8 C 36 %
Sensor: Nr:Datum:Temp:Feuchte:
Aussen-T/F 4026 13-12-2019 23:01:17 4.5 C 32 %
4027 13-12-2019 23:11:17 5.1 C 29 %
4028 13-12-2019 23:21:17 5.2 C 28 %
4029 13-12-2019 23:31:17 5.2 C 28 %
4030 13-12-2019 23:41:17 5 C 30 %
4031 13-12-2019 23:51:17 5 C 30 %
4032 14-12-2019 00:01:17 4.4 C 32 %
4033 14-12-2019 00:11:17 4.5 C 30 %
4034 14-12-2019 00:21:17 4.6 C 30 %
4035 14-12-2019 00:31:18 4.3 C 33 %
4036 14-12-2019 00:41:18 4.7 C 32 %
4037 14-12-2019 00:51:17 5.1 C 28 %
4038 14-12-2019 01:01:17 5.4 C 27 %
4039 14-12-2019 01:11:17 5.3 C 27 %
4040 14-12-2019 01:21:17 5.2 C 26 %
4041 14-12-2019 01:31:17 5.1 C 26 %
4042 14-12-2019 01:41:17 5.3 C 25 %
4043 14-12-2019 01:51:17 5.2 C 25 %
4044 14-12-2019 02:01:17 5 C 26 %
4045 14-12-2019 02:11:17 4.5 C 30 %
4046 14-12-2019 02:21:17 4.6 C 29 %
4047 14-12-2019 02:31:18 4.7 C 29 %
4048 14-12-2019 02:41:18 4.8 C 28 %
4049 14-12-2019 02:51:17 4.5 C 30 %
4050 14-12-2019 03:01:18 4.2 C 33 %
Sensor: Nr:Datum:Temp:Feuchte:
Aussen-T/F 4051 14-12-2019 03:11:18 4.1 C 36 %
4052 14-12-2019 03:21:17 3.9 C 38 %
4053 14-12-2019 03:31:17 3.9 C 39 %
4054 14-12-2019 03:41:17 3.9 C 36 %
4055 14-12-2019 03:51:18 3.8 C 36 %
4056 14-12-2019 04:01:17 3.8 C 40 %
4057 14-12-2019 04:11:17 3.8 C 41 %
4058 14-12-2019 04:21:17 3.7 C 42 %
4059 14-12-2019 04:31:18 3.5 C 42 %
4060 14-12-2019 04:41:18 3.5 C 42 %
4061 14-12-2019 04:51:17 3.4 C 42 %
4062 14-12-2019 05:01:17 3.4 C 41 %
4063 14-12-2019 05:11:17 3.4 C 41 %
4064 14-12-2019 05:21:17 3.4 C 42 %
4065 14-12-2019 05:31:18 3.4 C 42 %
4066 14-12-2019 05:41:18 3.4 C 43 %
4067 14-12-2019 05:51:17 3.4 C 43 %
4068 14-12-2019 06:01:18 3.4 C 42 %
4069 14-12-2019 06:11:18 3.7 C 43 %
4070 14-12-2019 06:21:17 4 C 42 %
4071 14-12-2019 06:31:17 5 C 40 %
4072 14-12-2019 06:41:17 5.2 C 39 %
4073 14-12-2019 06:51:18 5.6 C 36 %
4074 14-12-2019 07:01:17 5.6 C 36 %
4075 14-12-2019 07:11:18 5.7 C 36 %
Sensor: Nr:Datum:Temp:Feuchte:
Aussen-T/F 4076 14-12-2019 07:21:17 5.8 C 36 %
4077 14-12-2019 07:31:17 5.8 C 36 %
4078 14-12-2019 07:41:17 6.3 C 37 %
4079 14-12-2019 07:51:17 6.5 C 36 %
4080 14-12-2019 08:01:17 6.8 C 35 %
4081 14-12-2019 08:11:17 7 C 28 %
4082 14-12-2019 08:21:17 7.2 C 26 %
4083 14-12-2019 08:31:18 7.1 C 25 %
4084 14-12-2019 08:41:18 6.9 C 25 %
4085 14-12-2019 08:51:17 6.7 C 25 %
4086 14-12-2019 09:01:17 6.9 C 23 %
4087 14-12-2019 09:11:17 6.7 C 23 %
4088 14-12-2019 09:21:18 6.5 C 23 %
4089 14-12-2019 09:31:18 6.7 C 20 %
4090 14-12-2019 09:41:18 6.5 C 21 %
4091 14-12-2019 09:51:17 6.7 C 21 %
4092 14-12-2019 10:01:17 6.7 C 21 %
4093 14-12-2019 10:11:17 6.6 C 23 %
4094 14-12-2019 10:21:17 6.6 C 25 %
4095 14-12-2019 10:31:17 6.7 C 25 %
4096 14-12-2019 10:41:17 6.4 C 26 %
4097 14-12-2019 10:51:17 5.9 C 29 %
4098 14-12-2019 11:01:18 5.9 C 29 %
4099 14-12-2019 11:11:18 6.4 C 27 %
4100 14-12-2019 11:21:17 6.7 C 26 %
Sensor: Nr:Datum:Temp:Feuchte:
Aussen-T/F 4101 14-12-2019 11:31:17 6.3 C 26 %
4102 14-12-2019 11:41:17 6.4 C 25 %
4103 14-12-2019 11:51:17 6.9 C 20 %
4104 14-12-2019 12:01:17 7 C 20 %
4105 14-12-2019 12:11:17 7.2 C 20 %
4106 14-12-2019 12:21:18 7 C 20 %
4107 14-12-2019 12:31:17 7.3 C 20 %
4108 14-12-2019 12:41:17 7.6 C 20 %
4109 14-12-2019 12:51:17 7.8 C 20 %
4110 14-12-2019 13:01:17 7.9 C 20 %
4111 14-12-2019 13:11:17 8 C 20 %
4112 14-12-2019 13:21:17 8.4 C 20 %
4113 14-12-2019 13:31:17 8.4 C 20 %
4114 14-12-2019 13:41:17 8.3 C 20 %
4115 14-12-2019 13:51:17 8.4 C 20 %
4116 14-12-2019 14:01:18 8.5 C 20 %
4117 14-12-2019 14:11:18 8.4 C 20 %
4118 14-12-2019 14:21:17 8.4 C 20 %
4119 14-12-2019 14:31:18 8.7 C 20 %
4120 14-12-2019 14:41:18 8.8 C 20 %
4121 14-12-2019 14:51:18 8.6 C 20 %
4122 14-12-2019 15:01:17 7.3 C 23 %
4123 14-12-2019 15:11:17 6.8 C 28 %
4124 14-12-2019 15:21:17 6.6 C 30 %
4125 14-12-2019 15:31:17 6.7 C 28 %
Sensor: Nr:Datum:Temp:Feuchte:
Aussen-T/F 4126 14-12-2019 15:41:18 6.8 C 28 %
4127 14-12-2019 15:51:17 7.1 C 26 %
4128 14-12-2019 16:01:17 7 C 26 %
4129 14-12-2019 16:11:17 6.9 C 26 %
4130 14-12-2019 16:21:17 6.9 C 27 %
4131 14-12-2019 16:31:18 7.2 C 25 %
4132 14-12-2019 16:41:18 7.6 C 25 %
4133 14-12-2019 16:51:17 7.5 C 25 %
4134 14-12-2019 17:01:17 7.6 C 25 %
4135 14-12-2019 17:11:17 7.6 C 25 %
4136 14-12-2019 17:21:17 7.4 C 25 %
4137 14-12-2019 17:31:18 7.2 C 26 %
4138 14-12-2019 17:41:18 6.9 C 27 %
4139 14-12-2019 17:51:17 7.1 C 26 %
4140 14-12-2019 18:01:17 7.1 C 26 %
4141 14-12-2019 18:11:17 7.3 C 26 %
4142 14-12-2019 18:22:17 7.6 C 25 %
4143 14-12-2019 18:31:17 7.8 C 25 %
4144 14-12-2019 18:41:17 7.4 C 25 %
4145 14-12-2019 18:52:17 7 C 26 %
4146 14-12-2019 19:01:18 6.7 C 27 %
4147 14-12-2019 19:11:18 6.2 C 28 %
4148 14-12-2019 19:21:17 6.4 C 26 %
4149 14-12-2019 19:31:17 6.1 C 26 %
4150 14-12-2019 19:41:17 6.4 C 25 %
Sensor: Nr:Datum:Temp:Feuchte:
Aussen-T/F 4151 14-12-2019 19:52:17 6.4 C 25 %
4152 14-12-2019 20:01:18 6.6 C 25 %
4153 14-12-2019 20:11:18 6.7 C 25 %
4154 14-12-2019 20:21:17 6.9 C 25 %
4155 14-12-2019 20:31:17 5.8 C 27 %
4156 14-12-2019 20:41:17 5.9 C 27 %
4157 14-12-2019 20:52:17 7 C 25 %
4158 14-12-2019 21:01:17 7.2 C 25 %
4159 14-12-2019 21:11:17 7 C 25 %
4160 14-12-2019 21:22:17 7.1 C 25 %
4161 14-12-2019 21:31:18 6.7 C 26 %
4162 14-12-2019 21:41:18 6.8 C 26 %
4163 14-12-2019 21:52:17 6.9 C 26 %
4164 14-12-2019 22:02:17 7.1 C 25 %
4165 14-12-2019 22:11:17 6.8 C 26 %
4166 14-12-2019 22:22:17 6.9 C 26 %
4167 14-12-2019 22:31:17 7.3 C 25 %
4168 14-12-2019 22:41:17 7 C 26 %
4169 14-12-2019 22:52:17 7.3 C 25 %
4170 14-12-2019 23:02:17 7.1 C 25 %
4171 14-12-2019 23:12:17 7.3 C 25 %
4172 14-12-2019 23:22:17 7 C 26 %
4173 14-12-2019 23:31:18 7 C 26 %
4174 14-12-2019 23:41:18 7.4 C 25 %
4175 14-12-2019 23:51:18 7 C 25 %
Sensor: Nr:Datum:Temp:Feuchte:
G-T/H 1 16-11-2019 00:09:17 10 C 69 %
2 16-11-2019 00:19:17 10 C 69 %
3 16-11-2019 00:29:17 10 C 69 %
4 16-11-2019 00:39:17 10 C 69 %
5 16-11-2019 00:49:17 10 C 69 %
6 16-11-2019 00:59:17 10 C 69 %
7 16-11-2019 01:09:17 10 C 69 %
8 16-11-2019 01:19:17 10 C 69 %
9 16-11-2019 01:29:17 10 C 69 %
10 16-11-2019 01:39:17 10 C 69 %
11 16-11-2019 01:49:17 10 C 69 %
12 16-11-2019 01:59:17 10 C 69 %
13 16-11-2019 02:09:17 10 C 69 %
14 16-11-2019 02:19:17 10 C 69 %
15 16-11-2019 02:29:17 10 C 69 %
16 16-11-2019 02:39:17 10 C 69 %
17 16-11-2019 02:49:17 10 C 69 %
18 16-11-2019 02:59:17 9.9 C 70 %
19 16-11-2019 03:09:17 10 C 69 %
20 16-11-2019 03:19:17 10 C 69 %
21 16-11-2019 03:29:17 9.9 C 70 %
22 16-11-2019 03:39:18 9.9 C 70 %
23 16-11-2019 03:49:17 10 C 69 %
24 16-11-2019 03:59:17 9.9 C 70 %
25 16-11-2019 04:09:17 9.9 C 70 %
Sensor: Nr:Datum:Temp:Feuchte:
G-T/H 26 16-11-2019 04:19:17 9.9 C 70 %
27 16-11-2019 04:29:17 9.9 C 70 %
28 16-11-2019 04:39:17 9.9 C 70 %
29 16-11-2019 04:49:17 9.9 C 70 %
30 16-11-2019 04:59:17 9.9 C 70 %
31 16-11-2019 05:09:17 9.8 C 69 %
32 16-11-2019 05:19:17 9.8 C 69 %
33 16-11-2019 05:29:17 9.8 C 69 %
34 16-11-2019 05:39:17 9.8 C 69 %
35 16-11-2019 05:49:17 9.8 C 69 %
36 16-11-2019 05:59:17 9.8 C 69 %
37 16-11-2019 06:09:17 9.8 C 69 %
38 16-11-2019 06:19:17 9.8 C 69 %
39 16-11-2019 06:29:17 9.8 C 69 %
40 16-11-2019 06:39:17 9.7 C 69 %
41 16-11-2019 06:49:17 9.7 C 69 %
42 16-11-2019 06:59:17 9.7 C 69 %
43 16-11-2019 07:09:17 9.7 C 69 %
44 16-11-2019 07:19:17 9.7 C 69 %
45 16-11-2019 07:29:17 9.7 C 69 %
46 16-11-2019 07:39:17 9.7 C 69 %
47 16-11-2019 07:49:17 9.7 C 69 %
48 16-11-2019 07:59:17 9.7 C 69 %
49 16-11-2019 08:09:17 9.6 C 69 %
50 16-11-2019 08:19:17 9.6 C 68 %
Sensor: Nr:Datum:Temp:Feuchte:
G-T/H 51 16-11-2019 08:29:17 9.6 C 68 %
52 16-11-2019 08:39:17 9.6 C 68 %
53 16-11-2019 08:49:17 9.6 C 68 %
54 16-11-2019 08:59:17 9.6 C 68 %
55 16-11-2019 09:09:17 9.6 C 68 %
56 16-11-2019 09:19:17 9.6 C 68 %
57 16-11-2019 09:29:17 9.6 C 68 %
58 16-11-2019 09:39:17 9.6 C 68 %
59 16-11-2019 09:49:17 9.6 C 68 %
60 16-11-2019 09:59:17 9.6 C 68 %
61 16-11-2019 10:09:17 9.5 C 68 %
62 16-11-2019 10:19:17 9.5 C 68 %
63 16-11-2019 10:29:17 9.5 C 68 %
64 16-11-2019 10:39:17 9.5 C 68 %
65 16-11-2019 10:49:17 9.5 C 68 %
66 16-11-2019 10:59:17 9.5 C 68 %
67 16-11-2019 11:09:17 9.5 C 68 %
68 16-11-2019 11:19:17 9.5 C 68 %
69 16-11-2019 11:29:17 9.5 C 68 %
70 16-11-2019 11:39:17 9.5 C 68 %
71 16-11-2019 11:49:17 9.5 C 68 %
72 16-11-2019 11:59:17 9.7 C 69 %
73 16-11-2019 12:09:17 9.8 C 68 %
74 16-11-2019 12:19:17 9.8 C 68 %
75 16-11-2019 12:29:17 9.7 C 68 %
Sensor: Nr:Datum:Temp:Feuchte:
G-T/H 76 16-11-2019 12:39:17 9.7 C 68 %
77 16-11-2019 12:49:17 9.7 C 68 %
78 16-11-2019 12:59:17 9.3 C 66 %
79 16-11-2019 13:09:17 9.4 C 66 %
80 16-11-2019 13:19:17 9.5 C 67 %
81 16-11-2019 13:29:17 9.5 C 67 %
82 16-11-2019 13:39:17 9.5 C 67 %
83 16-11-2019 13:49:17 9.5 C 67 %
84 16-11-2019 13:59:17 9.5 C 68 %
85 16-11-2019 14:09:17 9.6 C 68 %
86 16-11-2019 14:19:17 9.5 C 68 %
87 16-11-2019 14:29:17 9.6 C 68 %
88 16-11-2019 14:39:17 9.6 C 68 %
89 16-11-2019 14:49:17 9.5 C 68 %
90 16-11-2019 14:59:17 9.6 C 68 %
91 16-11-2019 15:09:17 9.6 C 69 %
92 16-11-2019 15:19:17 9.6 C 69 %
93 16-11-2019 15:29:17 9.5 C 69 %
94 16-11-2019 15:39:17 9.6 C 69 %
95 16-11-2019 15:49:17 9.6 C 69 %
96 16-11-2019 15:59:17 9.6 C 69 %
97 16-11-2019 16:09:17 9.5 C 69 %
98 16-11-2019 16:19:17 9.6 C 69 %
99 16-11-2019 16:29:17 9.5 C 69 %
100 16-11-2019 16:39:17 9.5 C 69 %
Sensor: Nr:Datum:Temp:Feuchte:
G-T/H 101 16-11-2019 16:49:17 9.5 C 69 %
102 16-11-2019 16:59:17 9.5 C 69 %
103 16-11-2019 17:09:17 9.5 C 69 %
104 16-11-2019 17:19:17 9.5 C 69 %
105 16-11-2019 17:29:17 9.5 C 69 %
106 16-11-2019 17:39:17 9.5 C 69 %
107 16-11-2019 17:49:17 9.5 C 69 %
108 16-11-2019 17:59:17 9.5 C 69 %
109 16-11-2019 18:09:17 9.5 C 69 %
110 16-11-2019 18:19:17 9.5 C 69 %
111 16-11-2019 18:29:17 9.5 C 69 %
112 16-11-2019 18:39:17 9.5 C 69 %
113 16-11-2019 18:49:17 9.5 C 69 %
114 16-11-2019 18:59:17 9.4 C 69 %
115 16-11-2019 19:09:17 9.5 C 69 %
116 16-11-2019 19:19:17 9.4 C 69 %
117 16-11-2019 19:29:17 9.4 C 69 %
118 16-11-2019 19:39:17 9.4 C 69 %
119 16-11-2019 19:49:17 9.4 C 69 %
120 16-11-2019 19:59:17 9.4 C 69 %
121 16-11-2019 20:09:17 9.4 C 69 %
122 16-11-2019 20:19:17 9.4 C 69 %
123 16-11-2019 20:29:17 9.4 C 69 %
124 16-11-2019 20:39:17 9.4 C 69 %
125 16-11-2019 20:49:17 9.4 C 69 %
Sensor: Nr:Datum:Temp:Feuchte:
G-T/H 126 16-11-2019 20:59:17 9.3 C 69 %
127 16-11-2019 21:09:17 9.3 C 69 %
128 16-11-2019 21:19:17 9.3 C 69 %
129 16-11-2019 21:29:17 9.3 C 69 %
130 16-11-2019 21:39:17 9.3 C 69 %
131 16-11-2019 21:49:17 9.3 C 69 %
132 16-11-2019 21:59:17 9.3 C 69 %
133 16-11-2019 22:09:17 9.3 C 69 %
134 16-11-2019 22:19:17 9.3 C 69 %
135 16-11-2019 22:29:17 9.3 C 69 %
136 16-11-2019 22:39:17 9.2 C 69 %
137 16-11-2019 22:49:17 9.3 C 69 %
138 16-11-2019 22:59:17 9.3 C 69 %
139 16-11-2019 23:09:17 9.2 C 69 %
140 16-11-2019 23:19:17 9.2 C 69 %
141 16-11-2019 23:29:17 9.2 C 68 %
142 16-11-2019 23:39:17 9.2 C 68 %
143 16-11-2019 23:49:17 9.2 C 68 %
144 16-11-2019 23:59:17 9.2 C 68 %
145 17-11-2019 00:09:17 9.2 C 68 %
146 17-11-2019 00:19:17 9.1 C 68 %
147 17-11-2019 00:29:17 9.1 C 68 %
148 17-11-2019 00:39:17 9.1 C 68 %
149 17-11-2019 00:49:17 9.1 C 68 %
150 17-11-2019 00:59:17 9.1 C 68 %
Sensor: Nr:Datum:Temp:Feuchte:
G-T/H 151 17-11-2019 01:09:17 9.1 C 68 %
152 17-11-2019 01:19:17 9.1 C 68 %
153 17-11-2019 01:29:17 9.1 C 68 %
154 17-11-2019 01:39:17 9.1 C 68 %
155 17-11-2019 01:49:17 9 C 68 %
156 17-11-2019 01:59:17 9 C 68 %
157 17-11-2019 02:09:17 9 C 68 %
158 17-11-2019 02:19:17 9 C 68 %
159 17-11-2019 02:29:17 9 C 68 %
160 17-11-2019 02:39:17 9 C 68 %
161 17-11-2019 02:49:17 9 C 68 %
162 17-11-2019 02:59:17 9 C 68 %
163 17-11-2019 03:09:17 9 C 68 %
164 17-11-2019 03:19:17 9 C 68 %
165 17-11-2019 03:29:17 9 C 68 %
166 17-11-2019 03:39:17 9 C 68 %
167 17-11-2019 03:49:17 9 C 68 %
168 17-11-2019 03:59:17 9 C 68 %
169 17-11-2019 04:09:17 9 C 68 %
170 17-11-2019 04:19:17 9 C 68 %
171 17-11-2019 04:29:17 9 C 68 %
172 17-11-2019 04:39:17 9 C 68 %
173 17-11-2019 04:49:17 9 C 68 %
174 17-11-2019 04:59:17 9 C 68 %
175 17-11-2019 05:09:17 8.9 C 69 %
Sensor: Nr:Datum:Temp:Feuchte:
G-T/H 176 17-11-2019 05:19:17 8.9 C 69 %
177 17-11-2019 05:29:17 9 C 68 %
178 17-11-2019 05:39:17 8.9 C 69 %
179 17-11-2019 05:49:17 8.9 C 69 %
180 17-11-2019 05:59:17 8.9 C 69 %
181 17-11-2019 06:09:17 8.9 C 69 %
182 17-11-2019 06:19:17 8.9 C 69 %
183 17-11-2019 06:29:17 8.9 C 69 %
184 17-11-2019 06:39:17 8.9 C 69 %
185 17-11-2019 06:49:17 8.9 C 69 %
186 17-11-2019 06:59:17 8.9 C 69 %
187 17-11-2019 07:09:17 8.9 C 69 %
188 17-11-2019 07:19:17 8.9 C 69 %
189 17-11-2019 07:29:17 8.9 C 69 %
190 17-11-2019 07:39:17 8.9 C 69 %
191 17-11-2019 07:49:17 8.9 C 69 %
192 17-11-2019 07:59:17 8.9 C 69 %
193 17-11-2019 08:09:17 8.9 C 70 %
194 17-11-2019 08:19:17 8.9 C 70 %
195 17-11-2019 08:29:17 8.9 C 70 %
196 17-11-2019 08:39:17 8.9 C 70 %
197 17-11-2019 08:49:17 8.9 C 70 %
198 17-11-2019 08:59:17 8.9 C 70 %
199 17-11-2019 09:09:17 8.9 C 70 %
200 17-11-2019 09:19:17 8.9 C 70 %
Sensor: Nr:Datum:Temp:Feuchte:
G-T/H 201 17-11-2019 09:29:17 8.9 C 70 %
202 17-11-2019 09:39:17 8.9 C 70 %
203 17-11-2019 09:49:17 8.9 C 70 %
204 17-11-2019 09:59:17 8.9 C 70 %
205 17-11-2019 10:09:17 8.9 C 70 %
206 17-11-2019 10:19:17 8.9 C 70 %
207 17-11-2019 10:29:17 8.9 C 70 %
208 17-11-2019 10:39:17 8.9 C 70 %
209 17-11-2019 10:49:17 8.9 C 70 %
210 17-11-2019 10:59:17 8.9 C 70 %
211 17-11-2019 11:09:17 8.9 C 70 %
212 17-11-2019 11:19:17 8.9 C 70 %
213 17-11-2019 11:29:17 8.9 C 70 %
214 17-11-2019 11:39:17 8.9 C 70 %
215 17-11-2019 11:49:17 8.9 C 70 %
216 17-11-2019 11:59:17 8.9 C 70 %
217 17-11-2019 12:09:17 8.9 C 71 %
218 17-11-2019 12:19:17 8.9 C 71 %
219 17-11-2019 12:29:17 8.9 C 71 %
220 17-11-2019 12:39:17 8.9 C 71 %
221 17-11-2019 12:49:17 8.9 C 71 %
222 17-11-2019 12:59:17 8.9 C 71 %
223 17-11-2019 13:09:17 8.9 C 71 %
224 17-11-2019 13:19:17 9 C 70 %
225 17-11-2019 13:29:17 9 C 70 %
Sensor: Nr:Datum:Temp:Feuchte:
G-T/H 226 17-11-2019 13:39:17 9 C 70 %
227 17-11-2019 13:49:17 9 C 70 %
228 17-11-2019 13:59:17 9 C 70 %
229 17-11-2019 14:09:17 9 C 70 %
230 17-11-2019 14:19:17 9 C 70 %
231 17-11-2019 14:29:17 9 C 70 %
232 17-11-2019 14:39:17 9 C 70 %
233 17-11-2019 14:49:17 9.1 C 70 %
234 17-11-2019 14:59:17 9 C 70 %
235 17-11-2019 15:09:17 9 C 70 %
236 17-11-2019 15:19:17 9 C 70 %
237 17-11-2019 15:29:17 9 C 70 %
238 17-11-2019 15:39:18 9 C 71 %
239 17-11-2019 15:49:17 9 C 71 %
240 17-11-2019 15:59:17 9.1 C 71 %
241 17-11-2019 16:09:17 9.1 C 71 %
242 17-11-2019 16:19:17 9.1 C 71 %
243 17-11-2019 16:29:17 9.1 C 71 %
244 17-11-2019 16:39:17 9.1 C 71 %
245 17-11-2019 16:49:17 9.1 C 71 %
246 17-11-2019 16:59:17 9.1 C 71 %
247 17-11-2019 17:09:17 9.1 C 71 %
248 17-11-2019 17:19:17 9.1 C 71 %
249 17-11-2019 17:29:17 9.1 C 71 %
250 17-11-2019 17:39:17 9.1 C 71 %
Sensor: Nr:Datum:Temp:Feuchte:
G-T/H 251 17-11-2019 17:49:17 9.1 C 71 %
252 17-11-2019 17:59:17 9.1 C 71 %
253 17-11-2019 18:09:17 9.1 C 71 %
254 17-11-2019 18:19:17 9.1 C 71 %
255 17-11-2019 18:29:17 9.1 C 71 %
256 17-11-2019 18:39:17 9.1 C 71 %
257 17-11-2019 18:49:17 9.2 C 71 %
258 17-11-2019 18:59:17 9.1 C 71 %
259 17-11-2019 19:09:17 9.2 C 71 %
260 17-11-2019 19:19:17 9.2 C 71 %
261 17-11-2019 19:29:17 9.2 C 71 %
262 17-11-2019 19:39:17 9.2 C 71 %
263 17-11-2019 19:49:17 9.2 C 71 %
264 17-11-2019 19:59:17 9.2 C 71 %
265 17-11-2019 20:09:17 9.2 C 71 %
266 17-11-2019 20:19:17 9.2 C 71 %
267 17-11-2019 20:29:17 9.2 C 71 %
268 17-11-2019 20:39:17 9.2 C 71 %
269 17-11-2019 20:49:17 9.2 C 71 %
270 17-11-2019 20:59:17 9.2 C 71 %
271 17-11-2019 21:09:17 9.2 C 71 %
272 17-11-2019 21:19:17 9.2 C 71 %
273 17-11-2019 21:29:17 9.2 C 71 %
274 17-11-2019 21:39:17 9.2 C 71 %
275 17-11-2019 21:49:17 9.3 C 71 %
Sensor: Nr:Datum:Temp:Feuchte:
G-T/H 276 17-11-2019 21:59:17 9.2 C 71 %
277 17-11-2019 22:09:17 9.2 C 71 %
278 17-11-2019 22:19:17 9.2 C 72 %
279 17-11-2019 22:29:17 9.3 C 72 %
280 17-11-2019 22:39:17 9.3 C 72 %
281 17-11-2019 22:49:17 9.3 C 72 %
282 17-11-2019 22:59:17 9.3 C 72 %
283 17-11-2019 23:09:17 9.3 C 72 %
284 17-11-2019 23:19:17 9.3 C 72 %
285 17-11-2019 23:29:17 9.3 C 72 %
286 17-11-2019 23:39:17 9.3 C 72 %
287 17-11-2019 23:49:17 9.3 C 72 %
288 17-11-2019 23:59:17 9.3 C 72 %
289 18-11-2019 00:09:17 9.3 C 72 %
290 18-11-2019 00:19:17 9.3 C 72 %
291 18-11-2019 00:29:17 9.3 C 72 %
292 18-11-2019 00:39:17 9.3 C 72 %
293 18-11-2019 00:49:17 9.3 C 72 %
294 18-11-2019 00:59:17 9.3 C 72 %
295 18-11-2019 01:09:17 9.3 C 72 %
296 18-11-2019 01:19:17 9.3 C 72 %
297 18-11-2019 01:29:17 9.3 C 72 %
298 18-11-2019 01:39:17 9.3 C 72 %
299 18-11-2019 01:49:17 9.3 C 72 %
300 18-11-2019 01:59:17 9.3 C 72 %
Sensor: Nr:Datum:Temp:Feuchte:
G-T/H 301 18-11-2019 02:09:17 9.3 C 72 %
302 18-11-2019 02:19:17 9.3 C 72 %
303 18-11-2019 02:29:17 9.3 C 72 %
304 18-11-2019 02:39:17 9.3 C 72 %
305 18-11-2019 02:49:17 9.3 C 72 %
306 18-11-2019 02:59:17 9.3 C 72 %
307 18-11-2019 03:09:17 9.3 C 72 %
308 18-11-2019 03:19:17 9.3 C 72 %
309 18-11-2019 03:29:17 9.4 C 72 %
310 18-11-2019 03:39:17 9.4 C 72 %
311 18-11-2019 03:49:17 9.4 C 72 %
312 18-11-2019 03:59:17 9.4 C 72 %
313 18-11-2019 04:09:17 9.3 C 72 %
314 18-11-2019 04:19:17 9.4 C 72 %
315 18-11-2019 04:29:17 9.4 C 72 %
316 18-11-2019 04:39:18 9.3 C 72 %
317 18-11-2019 04:49:17 9.4 C 72 %
318 18-11-2019 04:59:17 9.3 C 72 %
319 18-11-2019 05:09:17 9.3 C 72 %
320 18-11-2019 05:19:18 9.4 C 72 %
321 18-11-2019 05:29:18 9.4 C 72 %
322 18-11-2019 05:39:17 9.3 C 72 %
323 18-11-2019 05:49:17 9.4 C 72 %
324 18-11-2019 05:59:17 9.4 C 72 %
325 18-11-2019 06:09:17 9.3 C 72 %
Sensor: Nr:Datum:Temp:Feuchte:
G-T/H 326 18-11-2019 06:19:17 9.4 C 72 %
327 18-11-2019 06:29:17 9.3 C 72 %
328 18-11-2019 06:39:17 9.4 C 72 %
329 18-11-2019 06:49:17 9.4 C 72 %
330 18-11-2019 06:59:17 9.4 C 72 %
331 18-11-2019 07:09:17 9.4 C 72 %
332 18-11-2019 07:19:18 9.4 C 72 %
333 18-11-2019 07:29:18 9.4 C 72 %
334 18-11-2019 07:39:18 9.3 C 72 %
335 18-11-2019 07:49:17 9.4 C 72 %
336 18-11-2019 07:59:17 9.4 C 72 %
337 18-11-2019 08:09:17 9.4 C 72 %
338 18-11-2019 08:19:17 9.4 C 72 %
339 18-11-2019 08:29:17 9.4 C 72 %
340 18-11-2019 08:39:18 9.4 C 72 %
341 18-11-2019 08:49:18 9.4 C 72 %
342 18-11-2019 08:59:18 9.4 C 72 %
343 18-11-2019 09:09:17 9.4 C 72 %
344 18-11-2019 09:19:17 9.4 C 72 %
345 18-11-2019 09:29:17 9.4 C 72 %
346 18-11-2019 09:39:17 9.4 C 72 %
347 18-11-2019 09:49:17 9.4 C 72 %
348 18-11-2019 09:59:17 9.4 C 72 %
349 18-11-2019 10:09:17 9.4 C 72 %
350 18-11-2019 10:19:31 9.4 C 72 %
Sensor: Nr:Datum:Temp:Feuchte:
G-T/H 351 18-11-2019 10:29:31 9.4 C 72 %
352 18-11-2019 10:39:17 9.5 C 72 %
353 18-11-2019 10:49:17 9.5 C 72 %
354 18-11-2019 10:59:17 9.5 C 72 %
355 18-11-2019 11:09:17 9.4 C 72 %
356 18-11-2019 11:19:17 9.5 C 72 %
357 18-11-2019 11:29:17 9.4 C 72 %
358 18-11-2019 11:39:17 9.5 C 72 %
359 18-11-2019 11:49:17 9.5 C 72 %
360 18-11-2019 11:59:17 9.5 C 72 %
361 18-11-2019 12:09:17 9.5 C 72 %
362 18-11-2019 12:19:17 9.5 C 72 %
363 18-11-2019 12:29:17 9.5 C 72 %
364 18-11-2019 12:39:17 9.5 C 72 %
365 18-11-2019 12:49:17 9.5 C 72 %
366 18-11-2019 12:59:17 9.5 C 72 %
367 18-11-2019 13:09:17 9.5 C 72 %
368 18-11-2019 13:19:17 9.5 C 72 %
369 18-11-2019 13:29:17 9.5 C 72 %
370 18-11-2019 13:39:17 9.5 C 72 %
371 18-11-2019 13:49:17 9.5 C 72 %
372 18-11-2019 13:59:17 9.5 C 72 %
373 18-11-2019 14:09:17 9.5 C 72 %
374 18-11-2019 14:19:17 9.5 C 72 %
375 18-11-2019 14:29:17 9.5 C 72 %
Sensor: Nr:Datum:Temp:Feuchte:
G-T/H 376 18-11-2019 14:39:17 9.6 C 73 %
377 18-11-2019 14:49:17 9.5 C 73 %
378 18-11-2019 14:59:17 9.6 C 73 %
379 18-11-2019 15:09:17 9.6 C 73 %
380 18-11-2019 15:19:18 9.6 C 73 %
381 18-11-2019 15:29:18 9.5 C 73 %
382 18-11-2019 15:39:17 9.6 C 73 %
383 18-11-2019 15:49:17 9.6 C 73 %
384 18-11-2019 15:59:17 9.6 C 73 %
385 18-11-2019 16:09:17 9.6 C 73 %
386 18-11-2019 16:19:17 9.6 C 73 %
387 18-11-2019 16:29:17 9.6 C 73 %
388 18-11-2019 16:39:17 9.6 C 73 %
389 18-11-2019 16:49:17 9.6 C 73 %
390 18-11-2019 16:59:17 9.6 C 73 %
391 18-11-2019 17:09:17 9.6 C 73 %
392 18-11-2019 17:19:17 9.6 C 73 %
393 18-11-2019 17:29:17 9.6 C 73 %
394 18-11-2019 17:39:17 9.6 C 73 %
395 18-11-2019 17:49:17 9.6 C 73 %
396 18-11-2019 17:59:17 9.6 C 73 %
397 18-11-2019 18:09:17 9.6 C 73 %
398 18-11-2019 18:19:17 9.6 C 73 %
399 18-11-2019 18:29:17 9.6 C 73 %
400 18-11-2019 18:39:17 9.6 C 73 %
Sensor: Nr:Datum:Temp:Feuchte:
G-T/H 401 18-11-2019 18:49:17 9.6 C 73 %
402 18-11-2019 18:59:17 9.7 C 73 %
403 18-11-2019 19:09:17 9.6 C 73 %
404 18-11-2019 19:19:17 9.6 C 73 %
405 18-11-2019 19:29:17 9.6 C 73 %
406 18-11-2019 19:39:17 9.6 C 73 %
407 18-11-2019 19:49:17 9.6 C 73 %
408 18-11-2019 19:59:17 9.6 C 73 %
409 18-11-2019 20:09:17 9.6 C 73 %
410 18-11-2019 20:19:17 9.6 C 73 %
411 18-11-2019 20:29:17 9.6 C 73 %
412 18-11-2019 20:39:17 9.6 C 72 %
413 18-11-2019 20:49:17 9.6 C 72 %
414 18-11-2019 20:59:17 9.6 C 72 %
415 18-11-2019 21:09:17 9.6 C 72 %
416 18-11-2019 21:19:17 9.6 C 72 %
417 18-11-2019 21:29:17 9.6 C 72 %
418 18-11-2019 21:39:17 9.6 C 72 %
419 18-11-2019 21:49:17 9.6 C 72 %
420 18-11-2019 21:59:17 9.6 C 72 %
421 18-11-2019 22:09:17 9.6 C 72 %
422 18-11-2019 22:19:17 9.6 C 72 %
423 18-11-2019 22:29:17 9.6 C 72 %
424 18-11-2019 22:39:17 9.6 C 72 %
425 18-11-2019 22:49:17 9.6 C 72 %
Sensor: Nr:Datum:Temp:Feuchte:
G-T/H 426 18-11-2019 22:59:17 9.6 C 72 %
427 18-11-2019 23:09:17 9.6 C 72 %
428 18-11-2019 23:19:17 9.6 C 72 %
429 18-11-2019 23:29:17 9.6 C 72 %
430 18-11-2019 23:39:17 9.5 C 72 %
431 18-11-2019 23:49:17 9.6 C 72 %
432 18-11-2019 23:59:17 9.6 C 72 %
433 19-11-2019 00:09:17 9.5 C 72 %
434 19-11-2019 00:19:17 9.5 C 72 %
435 19-11-2019 00:29:17 9.5 C 72 %
436 19-11-2019 00:39:17 9.5 C 72 %
437 19-11-2019 00:49:18 9.6 C 72 %
438 19-11-2019 00:59:18 9.6 C 72 %
439 19-11-2019 01:09:17 9.5 C 72 %
440 19-11-2019 01:19:17 9.5 C 72 %
441 19-11-2019 01:29:17 9.5 C 72 %
442 19-11-2019 01:39:18 9.5 C 72 %
443 19-11-2019 01:49:18 9.5 C 72 %
444 19-11-2019 01:59:18 9.5 C 72 %
445 19-11-2019 02:09:18 9.5 C 72 %
446 19-11-2019 02:19:17 9.5 C 72 %
447 19-11-2019 02:29:17 9.5 C 72 %
448 19-11-2019 02:39:17 9.5 C 72 %
449 19-11-2019 02:49:17 9.5 C 72 %
450 19-11-2019 02:59:17 9.5 C 72 %
Sensor: Nr:Datum:Temp:Feuchte:
G-T/H 451 19-11-2019 03:09:17 9.5 C 72 %
452 19-11-2019 03:19:17 9.5 C 72 %
453 19-11-2019 03:29:17 9.5 C 72 %
454 19-11-2019 03:39:17 9.5 C 72 %
455 19-11-2019 03:49:17 9.5 C 72 %
456 19-11-2019 03:59:17 9.5 C 72 %
457 19-11-2019 04:09:17 9.5 C 72 %
458 19-11-2019 04:19:18 9.5 C 72 %
459 19-11-2019 04:29:18 9.5 C 72 %
460 19-11-2019 04:39:17 9.5 C 72 %
461 19-11-2019 04:49:17 9.5 C 72 %
462 19-11-2019 04:59:17 9.5 C 72 %
463 19-11-2019 05:09:17 9.5 C 72 %
464 19-11-2019 05:19:18 9.5 C 72 %
465 19-11-2019 05:29:18 9.5 C 72 %
466 19-11-2019 05:39:17 9.4 C 72 %
467 19-11-2019 05:49:17 9.4 C 72 %
468 19-11-2019 05:59:17 9.4 C 72 %
469 19-11-2019 06:09:17 9.4 C 72 %
470 19-11-2019 06:19:17 9.4 C 72 %
471 19-11-2019 06:29:17 9.4 C 72 %
472 19-11-2019 06:39:17 9.4 C 72 %
473 19-11-2019 06:49:17 9.4 C 72 %
474 19-11-2019 06:59:17 9.4 C 72 %
475 19-11-2019 07:09:17 9.4 C 72 %
Sensor: Nr:Datum:Temp:Feuchte:
G-T/H 476 19-11-2019 07:19:17 9.4 C 72 %
477 19-11-2019 07:29:17 9.4 C 72 %
478 19-11-2019 07:39:17 9.4 C 72 %
479 19-11-2019 07:49:17 9.4 C 72 %
480 19-11-2019 07:59:17 9.3 C 72 %
481 19-11-2019 08:09:17 9.3 C 72 %
482 19-11-2019 08:19:17 9.3 C 72 %
483 19-11-2019 08:29:17 9.3 C 72 %
484 19-11-2019 08:39:17 9.3 C 72 %
485 19-11-2019 08:49:17 9.3 C 72 %
486 19-11-2019 08:59:17 9.3 C 72 %
487 19-11-2019 09:09:17 9.4 C 72 %
488 19-11-2019 09:19:17 9.3 C 72 %
489 19-11-2019 09:29:17 9.3 C 72 %
490 19-11-2019 09:39:17 9.3 C 72 %
491 19-11-2019 09:49:17 9.4 C 72 %
492 19-11-2019 09:59:17 9.3 C 72 %
493 19-11-2019 10:09:17 9.3 C 72 %
494 19-11-2019 10:19:17 9.4 C 72 %
495 19-11-2019 10:29:17 9.4 C 72 %
496 19-11-2019 10:39:17 9.3 C 72 %
497 19-11-2019 10:49:17 9.3 C 72 %
498 19-11-2019 10:59:17 9.3 C 72 %
499 19-11-2019 11:09:17 9.3 C 72 %
500 19-11-2019 11:19:17 9.3 C 72 %
Sensor: Nr:Datum:Temp:Feuchte:
G-T/H 501 19-11-2019 11:29:17 9.3 C 72 %
502 19-11-2019 11:39:17 9.3 C 72 %
503 19-11-2019 11:49:17 9.3 C 72 %
504 19-11-2019 11:59:17 9.4 C 72 %
505 19-11-2019 12:09:17 9.3 C 72 %
506 19-11-2019 12:19:17 9.4 C 72 %
507 19-11-2019 12:29:17 9.4 C 72 %
508 19-11-2019 12:39:17 9.4 C